<?xml version="1.0" encoding="UTF-8" standalone="no" ?>
<gpx xmlns="http://www.topografix.com/GPX/1/1" xmlns:xsi="http://www.w3.org/2001/XMLSchema-instance" xsi:schemaLocation="http://www.topografix.com/GPX/1/1 http://www.topografix.com/GPX/1/1/gpx.xsd" version="1.1" creator="VisuGPX - https://www.visugpx.com">
  <metadata>
    <name>rocca</name>
    <desc><![CDATA[bonne balade dans du v5 ... ]]></desc>
  </metadata>
  <trk>
    <name><![CDATA[(null)]]></name>
    <desc><![CDATA[(null)]]></desc>
    <trkseg>
      <trkpt lat="43.86561" lon="7.293">
        <ele>625.440411</ele>
        <time>2011-11-01T11:02:51Z</time>
      </trkpt>
      <trkpt lat="43.86561" lon="7.293">
        <ele>625.440411</ele>
        <time>2011-11-01T11:02:51Z</time>
      </trkpt>
      <trkpt lat="43.86562" lon="7.293">
        <ele>624.440411</ele>
        <time>2011-11-01T11:02:52Z</time>
      </trkpt>
      <trkpt lat="43.86552" lon="7.29304">
        <ele>627.440407</ele>
        <time>2011-11-01T11:03:25Z</time>
      </trkpt>
      <trkpt lat="43.86544" lon="7.29312">
        <ele>627.440411</ele>
        <time>2011-11-01T11:03:31Z</time>
      </trkpt>
      <trkpt lat="43.86542" lon="7.29313">
        <ele>627.440414</ele>
        <time>2011-11-01T11:03:32Z</time>
      </trkpt>
      <trkpt lat="43.86531" lon="7.29321">
        <ele>627.440414</ele>
        <time>2011-11-01T11:03:39Z</time>
      </trkpt>
      <trkpt lat="43.86527" lon="7.29324">
        <ele>628.440414</ele>
        <time>2011-11-01T11:03:43Z</time>
      </trkpt>
      <trkpt lat="43.86517" lon="7.29339">
        <ele>627.44043</ele>
        <time>2011-11-01T11:03:53Z</time>
      </trkpt>
      <trkpt lat="43.86512" lon="7.29345">
        <ele>627.440437</ele>
        <time>2011-11-01T11:03:56Z</time>
      </trkpt>
      <trkpt lat="43.86503" lon="7.29356">
        <ele>630.440445</ele>
        <time>2011-11-01T11:04:00Z</time>
      </trkpt>
      <trkpt lat="43.86499" lon="7.29364">
        <ele>631.44046</ele>
        <time>2011-11-01T11:04:04Z</time>
      </trkpt>
      <trkpt lat="43.86488" lon="7.29387">
        <ele>634.440491</ele>
        <time>2011-11-01T11:04:14Z</time>
      </trkpt>
      <trkpt lat="43.86479" lon="7.29394">
        <ele>638.440491</ele>
        <time>2011-11-01T11:04:26Z</time>
      </trkpt>
      <trkpt lat="43.86469" lon="7.29393">
        <ele>641.440479</ele>
        <time>2011-11-01T11:04:31Z</time>
      </trkpt>
      <trkpt lat="43.8646" lon="7.29392">
        <ele>643.44046</ele>
        <time>2011-11-01T11:04:34Z</time>
      </trkpt>
      <trkpt lat="43.86451" lon="7.29392">
        <ele>644.440453</ele>
        <time>2011-11-01T11:04:37Z</time>
      </trkpt>
      <trkpt lat="43.86446" lon="7.29431">
        <ele>645.440529</ele>
        <time>2011-11-01T11:05:02Z</time>
      </trkpt>
      <trkpt lat="43.86427" lon="7.29436">
        <ele>648.440514</ele>
        <time>2011-11-01T11:05:32Z</time>
      </trkpt>
      <trkpt lat="43.86424" lon="7.29436">
        <ele>648.440506</ele>
        <time>2011-11-01T11:05:33Z</time>
      </trkpt>
      <trkpt lat="43.86413" lon="7.29433">
        <ele>647.440483</ele>
        <time>2011-11-01T11:05:37Z</time>
      </trkpt>
      <trkpt lat="43.86404" lon="7.29433">
        <ele>646.440472</ele>
        <time>2011-11-01T11:05:42Z</time>
      </trkpt>
      <trkpt lat="43.86395" lon="7.29438">
        <ele>646.440475</ele>
        <time>2011-11-01T11:05:49Z</time>
      </trkpt>
      <trkpt lat="43.86416" lon="7.29469">
        <ele>654.440563</ele>
        <time>2011-11-01T11:06:36Z</time>
      </trkpt>
      <trkpt lat="43.86418" lon="7.2947">
        <ele>655.440567</ele>
        <time>2011-11-01T11:06:45Z</time>
      </trkpt>
      <trkpt lat="43.86417" lon="7.29483">
        <ele>652.440594</ele>
        <time>2011-11-01T11:07:47Z</time>
      </trkpt>
      <trkpt lat="43.86432" lon="7.29507">
        <ele>655.440666</ele>
        <time>2011-11-01T11:08:28Z</time>
      </trkpt>
      <trkpt lat="43.86432" lon="7.2951">
        <ele>656.440666</ele>
        <time>2011-11-01T11:08:31Z</time>
      </trkpt>
      <trkpt lat="43.86426" lon="7.29523">
        <ele>660.440689</ele>
        <time>2011-11-01T11:08:49Z</time>
      </trkpt>
      <trkpt lat="43.8642" lon="7.29543">
        <ele>661.44072</ele>
        <time>2011-11-01T11:08:57Z</time>
      </trkpt>
      <trkpt lat="43.8642" lon="7.29548">
        <ele>660.440727</ele>
        <time>2011-11-01T11:09:05Z</time>
      </trkpt>
      <trkpt lat="43.86417" lon="7.29561">
        <ele>663.440758</ele>
        <time>2011-11-01T11:09:08Z</time>
      </trkpt>
      <trkpt lat="43.86417" lon="7.29561">
        <ele>663.440758</ele>
        <time>2011-11-01T11:09:12Z</time>
      </trkpt>
      <trkpt lat="43.86412" lon="7.2958">
        <ele>665.440788</ele>
        <time>2011-11-01T11:09:26Z</time>
      </trkpt>
      <trkpt lat="43.86403" lon="7.29575">
        <ele>666.440762</ele>
        <time>2011-11-01T11:09:42Z</time>
      </trkpt>
      <trkpt lat="43.86408" lon="7.29552">
        <ele>667.440723</ele>
        <time>2011-11-01T11:10:05Z</time>
      </trkpt>
      <trkpt lat="43.86391" lon="7.29477">
        <ele>665.440544</ele>
        <time>2011-11-01T11:12:28Z</time>
      </trkpt>
      <trkpt lat="43.86391" lon="7.29477">
        <ele>665.440544</ele>
        <time>2011-11-01T11:12:31Z</time>
      </trkpt>
      <trkpt lat="43.86418" lon="7.29468">
        <ele>664.440559</ele>
        <time>2011-11-01T11:12:43Z</time>
      </trkpt>
      <trkpt lat="43.86428" lon="7.29468">
        <ele>664.440578</ele>
        <time>2011-11-01T11:12:54Z</time>
      </trkpt>
      <trkpt lat="43.86422" lon="7.29453">
        <ele>665.44054</ele>
        <time>2011-11-01T11:13:39Z</time>
      </trkpt>
      <trkpt lat="43.86421" lon="7.29452">
        <ele>665.440536</ele>
        <time>2011-11-01T11:13:42Z</time>
      </trkpt>
      <trkpt lat="43.86425" lon="7.29439">
        <ele>667.440514</ele>
        <time>2011-11-01T11:13:48Z</time>
      </trkpt>
      <trkpt lat="43.86434" lon="7.29434">
        <ele>669.440514</ele>
        <time>2011-11-01T11:13:51Z</time>
      </trkpt>
      <trkpt lat="43.86443" lon="7.29437">
        <ele>670.440533</ele>
        <time>2011-11-01T11:13:54Z</time>
      </trkpt>
      <trkpt lat="43.86451" lon="7.29475">
        <ele>669.440624</ele>
        <time>2011-11-01T11:13:58Z</time>
      </trkpt>
      <trkpt lat="43.86461" lon="7.29498">
        <ele>666.440681</ele>
        <time>2011-11-01T11:14:04Z</time>
      </trkpt>
      <trkpt lat="43.86464" lon="7.29511">
        <ele>665.440716</ele>
        <time>2011-11-01T11:14:07Z</time>
      </trkpt>
      <trkpt lat="43.86468" lon="7.29524">
        <ele>663.44075</ele>
        <time>2011-11-01T11:14:12Z</time>
      </trkpt>
      <trkpt lat="43.86475" lon="7.29516">
        <ele>662.440739</ele>
        <time>2011-11-01T11:14:17Z</time>
      </trkpt>
      <trkpt lat="43.86478" lon="7.29503">
        <ele>661.44072</ele>
        <time>2011-11-01T11:14:20Z</time>
      </trkpt>
      <trkpt lat="43.86478" lon="7.29488">
        <ele>661.440685</ele>
        <time>2011-11-01T11:14:23Z</time>
      </trkpt>
      <trkpt lat="43.86474" lon="7.29474">
        <ele>661.440651</ele>
        <time>2011-11-01T11:14:27Z</time>
      </trkpt>
      <trkpt lat="43.86471" lon="7.29462">
        <ele>660.440624</ele>
        <time>2011-11-01T11:14:31Z</time>
      </trkpt>
      <trkpt lat="43.8647" lon="7.29448">
        <ele>658.440594</ele>
        <time>2011-11-01T11:14:36Z</time>
      </trkpt>
      <trkpt lat="43.86472" lon="7.29407">
        <ele>658.440514</ele>
        <time>2011-11-01T11:15:00Z</time>
      </trkpt>
      <trkpt lat="43.86461" lon="7.29418">
        <ele>656.440521</ele>
        <time>2011-11-01T11:15:32Z</time>
      </trkpt>
      <trkpt lat="43.86463" lon="7.29436">
        <ele>654.440556</ele>
        <time>2011-11-01T11:15:36Z</time>
      </trkpt>
      <trkpt lat="43.86467" lon="7.29451">
        <ele>653.440594</ele>
        <time>2011-11-01T11:15:39Z</time>
      </trkpt>
      <trkpt lat="43.86477" lon="7.29481">
        <ele>651.44067</ele>
        <time>2011-11-01T11:15:45Z</time>
      </trkpt>
      <trkpt lat="43.86484" lon="7.29498">
        <ele>651.44072</ele>
        <time>2011-11-01T11:15:47Z</time>
      </trkpt>
      <trkpt lat="43.86492" lon="7.29516">
        <ele>649.440765</ele>
        <time>2011-11-01T11:15:49Z</time>
      </trkpt>
      <trkpt lat="43.86498" lon="7.29531">
        <ele>648.440804</ele>
        <time>2011-11-01T11:15:52Z</time>
      </trkpt>
      <trkpt lat="43.86503" lon="7.29544">
        <ele>646.440834</ele>
        <time>2011-11-01T11:15:55Z</time>
      </trkpt>
      <trkpt lat="43.86513" lon="7.29557">
        <ele>643.44088</ele>
        <time>2011-11-01T11:15:59Z</time>
      </trkpt>
      <trkpt lat="43.8652" lon="7.29565">
        <ele>642.440903</ele>
        <time>2011-11-01T11:16:01Z</time>
      </trkpt>
      <trkpt lat="43.86528" lon="7.29577">
        <ele>639.440937</ele>
        <time>2011-11-01T11:16:04Z</time>
      </trkpt>
      <trkpt lat="43.86531" lon="7.29591">
        <ele>637.440971</ele>
        <time>2011-11-01T11:16:07Z</time>
      </trkpt>
      <trkpt lat="43.86535" lon="7.29605">
        <ele>635.441006</ele>
        <time>2011-11-01T11:16:10Z</time>
      </trkpt>
      <trkpt lat="43.86535" lon="7.29609">
        <ele>634.441013</ele>
        <time>2011-11-01T11:16:11Z</time>
      </trkpt>
      <trkpt lat="43.86536" lon="7.29623">
        <ele>632.441048</ele>
        <time>2011-11-01T11:16:15Z</time>
      </trkpt>
      <trkpt lat="43.86532" lon="7.29627">
        <ele>631.441048</ele>
        <time>2011-11-01T11:16:17Z</time>
      </trkpt>
      <trkpt lat="43.86525" lon="7.29638">
        <ele>629.441063</ele>
        <time>2011-11-01T11:16:21Z</time>
      </trkpt>
      <trkpt lat="43.86528" lon="7.2965">
        <ele>629.441093</ele>
        <time>2011-11-01T11:16:25Z</time>
      </trkpt>
      <trkpt lat="43.86536" lon="7.29658">
        <ele>628.441116</ele>
        <time>2011-11-01T11:16:28Z</time>
      </trkpt>
      <trkpt lat="43.86542" lon="7.29663">
        <ele>626.441135</ele>
        <time>2011-11-01T11:16:30Z</time>
      </trkpt>
      <trkpt lat="43.86552" lon="7.29671">
        <ele>624.441166</ele>
        <time>2011-11-01T11:16:34Z</time>
      </trkpt>
      <trkpt lat="43.86558" lon="7.29681">
        <ele>623.441193</ele>
        <time>2011-11-01T11:16:38Z</time>
      </trkpt>
      <trkpt lat="43.8656" lon="7.29686">
        <ele>622.441208</ele>
        <time>2011-11-01T11:16:40Z</time>
      </trkpt>
      <trkpt lat="43.86557" lon="7.29714">
        <ele>613.441261</ele>
        <time>2011-11-01T11:17:13Z</time>
      </trkpt>
      <trkpt lat="43.86555" lon="7.29727">
        <ele>612.441288</ele>
        <time>2011-11-01T11:17:17Z</time>
      </trkpt>
      <trkpt lat="43.86553" lon="7.29744">
        <ele>611.441319</ele>
        <time>2011-11-01T11:17:20Z</time>
      </trkpt>
      <trkpt lat="43.8655" lon="7.29758">
        <ele>611.441338</ele>
        <time>2011-11-01T11:17:23Z</time>
      </trkpt>
      <trkpt lat="43.86538" lon="7.29772">
        <ele>607.441357</ele>
        <time>2011-11-01T11:17:38Z</time>
      </trkpt>
      <trkpt lat="43.8654" lon="7.29787">
        <ele>606.441387</ele>
        <time>2011-11-01T11:17:46Z</time>
      </trkpt>
      <trkpt lat="43.86541" lon="7.298">
        <ele>606.441414</ele>
        <time>2011-11-01T11:17:49Z</time>
      </trkpt>
      <trkpt lat="43.86538" lon="7.29814">
        <ele>604.441444</ele>
        <time>2011-11-01T11:17:54Z</time>
      </trkpt>
      <trkpt lat="43.86537" lon="7.29831">
        <ele>602.441475</ele>
        <time>2011-11-01T11:17:58Z</time>
      </trkpt>
      <trkpt lat="43.8654" lon="7.29847">
        <ele>598.441509</ele>
        <time>2011-11-01T11:18:01Z</time>
      </trkpt>
      <trkpt lat="43.86546" lon="7.29865">
        <ele>592.441559</ele>
        <time>2011-11-01T11:18:07Z</time>
      </trkpt>
      <trkpt lat="43.86541" lon="7.29876">
        <ele>587.441574</ele>
        <time>2011-11-01T11:18:19Z</time>
      </trkpt>
      <trkpt lat="43.86544" lon="7.29896">
        <ele>580.44162</ele>
        <time>2011-11-01T11:18:34Z</time>
      </trkpt>
      <trkpt lat="43.86547" lon="7.2991">
        <ele>578.44165</ele>
        <time>2011-11-01T11:18:44Z</time>
      </trkpt>
      <trkpt lat="43.86546" lon="7.29922">
        <ele>578.441681</ele>
        <time>2011-11-01T11:18:48Z</time>
      </trkpt>
      <trkpt lat="43.86541" lon="7.29936">
        <ele>578.441696</ele>
        <time>2011-11-01T11:18:52Z</time>
      </trkpt>
      <trkpt lat="43.86535" lon="7.2995">
        <ele>577.441719</ele>
        <time>2011-11-01T11:18:55Z</time>
      </trkpt>
      <trkpt lat="43.86527" lon="7.29955">
        <ele>574.441719</ele>
        <time>2011-11-01T11:18:58Z</time>
      </trkpt>
      <trkpt lat="43.86517" lon="7.2996">
        <ele>572.441719</ele>
        <time>2011-11-01T11:19:01Z</time>
      </trkpt>
      <trkpt lat="43.86506" lon="7.29971">
        <ele>571.441723</ele>
        <time>2011-11-01T11:19:04Z</time>
      </trkpt>
      <trkpt lat="43.86499" lon="7.29986">
        <ele>570.441746</ele>
        <time>2011-11-01T11:19:07Z</time>
      </trkpt>
      <trkpt lat="43.86496" lon="7.30001">
        <ele>568.441772</ele>
        <time>2011-11-01T11:19:10Z</time>
      </trkpt>
      <trkpt lat="43.86491" lon="7.30013">
        <ele>567.441788</ele>
        <time>2011-11-01T11:19:12Z</time>
      </trkpt>
      <trkpt lat="43.86485" lon="7.30025">
        <ele>566.441811</ele>
        <time>2011-11-01T11:19:14Z</time>
      </trkpt>
      <trkpt lat="43.86482" lon="7.30033">
        <ele>566.441822</ele>
        <time>2011-11-01T11:19:15Z</time>
      </trkpt>
      <trkpt lat="43.86478" lon="7.30048">
        <ele>565.441845</ele>
        <time>2011-11-01T11:19:17Z</time>
      </trkpt>
      <trkpt lat="43.86478" lon="7.30066">
        <ele>564.441883</ele>
        <time>2011-11-01T11:19:19Z</time>
      </trkpt>
      <trkpt lat="43.86478" lon="7.3008">
        <ele>563.44191</ele>
        <time>2011-11-01T11:19:21Z</time>
      </trkpt>
      <trkpt lat="43.86478" lon="7.30093">
        <ele>560.44194</ele>
        <time>2011-11-01T11:19:24Z</time>
      </trkpt>
      <trkpt lat="43.86484" lon="7.30114">
        <ele>527.44199</ele>
        <time>2011-11-01T11:19:39Z</time>
      </trkpt>
      <trkpt lat="43.86485" lon="7.30117">
        <ele>526.441994</ele>
        <time>2011-11-01T11:19:40Z</time>
      </trkpt>
      <trkpt lat="43.86493" lon="7.30125">
        <ele>508.442024</ele>
        <time>2011-11-01T11:20:16Z</time>
      </trkpt>
      <trkpt lat="43.86501" lon="7.30119">
        <ele>509.442017</ele>
        <time>2011-11-01T11:20:32Z</time>
      </trkpt>
      <trkpt lat="43.86516" lon="7.30121">
        <ele>511.442047</ele>
        <time>2011-11-01T11:20:39Z</time>
      </trkpt>
      <trkpt lat="43.86524" lon="7.30128">
        <ele>513.44207</ele>
        <time>2011-11-01T11:20:42Z</time>
      </trkpt>
      <trkpt lat="43.86532" lon="7.30139">
        <ele>514.442104</ele>
        <time>2011-11-01T11:20:46Z</time>
      </trkpt>
      <trkpt lat="43.86541" lon="7.30148">
        <ele>517.442139</ele>
        <time>2011-11-01T11:21:01Z</time>
      </trkpt>
      <trkpt lat="43.86546" lon="7.30164">
        <ele>517.442177</ele>
        <time>2011-11-01T11:21:04Z</time>
      </trkpt>
      <trkpt lat="43.86553" lon="7.30175">
        <ele>516.442207</ele>
        <time>2011-11-01T11:21:08Z</time>
      </trkpt>
      <trkpt lat="43.86559" lon="7.30186">
        <ele>515.442238</ele>
        <time>2011-11-01T11:21:12Z</time>
      </trkpt>
      <trkpt lat="43.86565" lon="7.30197">
        <ele>514.442272</ele>
        <time>2011-11-01T11:21:16Z</time>
      </trkpt>
      <trkpt lat="43.86575" lon="7.30209">
        <ele>512.442307</ele>
        <time>2011-11-01T11:21:30Z</time>
      </trkpt>
      <trkpt lat="43.86577" lon="7.3021">
        <ele>511.44231</ele>
        <time>2011-11-01T11:21:31Z</time>
      </trkpt>
      <trkpt lat="43.86563" lon="7.30215">
        <ele>500.442307</ele>
        <time>2011-11-01T11:21:53Z</time>
      </trkpt>
      <trkpt lat="43.8656" lon="7.30214">
        <ele>502.442299</ele>
        <time>2011-11-01T11:21:58Z</time>
      </trkpt>
      <trkpt lat="43.8657" lon="7.30216">
        <ele>502.442314</ele>
        <time>2011-11-01T11:22:55Z</time>
      </trkpt>
      <trkpt lat="43.8657" lon="7.30216">
        <ele>502.442314</ele>
        <time>2011-11-01T11:22:58Z</time>
      </trkpt>
      <trkpt lat="43.8658" lon="7.30213">
        <ele>501.442322</ele>
        <time>2011-11-01T11:23:07Z</time>
      </trkpt>
      <trkpt lat="43.8659" lon="7.30215">
        <ele>501.442337</ele>
        <time>2011-11-01T11:23:16Z</time>
      </trkpt>
      <trkpt lat="43.86601" lon="7.30224">
        <ele>501.442375</ele>
        <time>2011-11-01T11:23:21Z</time>
      </trkpt>
      <trkpt lat="43.86598" lon="7.30243">
        <ele>502.44241</ele>
        <time>2011-11-01T11:23:34Z</time>
      </trkpt>
      <trkpt lat="43.86594" lon="7.30256">
        <ele>501.442436</ele>
        <time>2011-11-01T11:23:39Z</time>
      </trkpt>
      <trkpt lat="43.86588" lon="7.30271">
        <ele>500.442451</ele>
        <time>2011-11-01T11:23:43Z</time>
      </trkpt>
      <trkpt lat="43.86582" lon="7.30282">
        <ele>499.442467</ele>
        <time>2011-11-01T11:23:46Z</time>
      </trkpt>
      <trkpt lat="43.86575" lon="7.30293">
        <ele>499.442482</ele>
        <time>2011-11-01T11:23:49Z</time>
      </trkpt>
      <trkpt lat="43.86572" lon="7.30302">
        <ele>500.442497</ele>
        <time>2011-11-01T11:23:51Z</time>
      </trkpt>
      <trkpt lat="43.86573" lon="7.30316">
        <ele>499.442528</ele>
        <time>2011-11-01T11:23:54Z</time>
      </trkpt>
      <trkpt lat="43.86585" lon="7.30332">
        <ele>494.442574</ele>
        <time>2011-11-01T11:24:09Z</time>
      </trkpt>
      <trkpt lat="43.86596" lon="7.30332">
        <ele>490.442589</ele>
        <time>2011-11-01T11:24:19Z</time>
      </trkpt>
      <trkpt lat="43.86606" lon="7.30331">
        <ele>488.442604</ele>
        <time>2011-11-01T11:24:27Z</time>
      </trkpt>
      <trkpt lat="43.86615" lon="7.30338">
        <ele>486.442631</ele>
        <time>2011-11-01T11:24:35Z</time>
      </trkpt>
      <trkpt lat="43.86622" lon="7.30352">
        <ele>484.442669</ele>
        <time>2011-11-01T11:24:47Z</time>
      </trkpt>
      <trkpt lat="43.86634" lon="7.30361">
        <ele>482.442703</ele>
        <time>2011-11-01T11:24:58Z</time>
      </trkpt>
      <trkpt lat="43.86626" lon="7.30381">
        <ele>469.442734</ele>
        <time>2011-11-01T11:26:00Z</time>
      </trkpt>
      <trkpt lat="43.86616" lon="7.30399">
        <ele>468.44276</ele>
        <time>2011-11-01T11:26:04Z</time>
      </trkpt>
      <trkpt lat="43.86613" lon="7.30418">
        <ele>467.442791</ele>
        <time>2011-11-01T11:26:06Z</time>
      </trkpt>
      <trkpt lat="43.86612" lon="7.30438">
        <ele>465.442833</ele>
        <time>2011-11-01T11:26:08Z</time>
      </trkpt>
      <trkpt lat="43.86612" lon="7.30455">
        <ele>464.442871</ele>
        <time>2011-11-01T11:26:10Z</time>
      </trkpt>
      <trkpt lat="43.86611" lon="7.30469">
        <ele>463.442894</ele>
        <time>2011-11-01T11:26:12Z</time>
      </trkpt>
      <trkpt lat="43.86607" lon="7.30484">
        <ele>462.442921</ele>
        <time>2011-11-01T11:26:15Z</time>
      </trkpt>
      <trkpt lat="43.86596" lon="7.30487">
        <ele>459.442909</ele>
        <time>2011-11-01T11:26:35Z</time>
      </trkpt>
      <trkpt lat="43.86587" lon="7.30482">
        <ele>458.44289</ele>
        <time>2011-11-01T11:27:04Z</time>
      </trkpt>
      <trkpt lat="43.86579" lon="7.30477">
        <ele>460.442863</ele>
        <time>2011-11-01T11:27:15Z</time>
      </trkpt>
      <trkpt lat="43.86565" lon="7.30482">
        <ele>461.44286</ele>
        <time>2011-11-01T11:27:27Z</time>
      </trkpt>
      <trkpt lat="43.86556" lon="7.30483">
        <ele>457.442848</ele>
        <time>2011-11-01T11:27:39Z</time>
      </trkpt>
      <trkpt lat="43.86545" lon="7.30485">
        <ele>455.442841</ele>
        <time>2011-11-01T11:27:50Z</time>
      </trkpt>
      <trkpt lat="43.86541" lon="7.30498">
        <ele>456.442856</ele>
        <time>2011-11-01T11:28:00Z</time>
      </trkpt>
      <trkpt lat="43.86541" lon="7.30499">
        <ele>456.442863</ele>
        <time>2011-11-01T11:28:01Z</time>
      </trkpt>
      <trkpt lat="43.8654" lon="7.30512">
        <ele>458.44289</ele>
        <time>2011-11-01T11:28:07Z</time>
      </trkpt>
      <trkpt lat="43.86539" lon="7.30519">
        <ele>458.442898</ele>
        <time>2011-11-01T11:28:11Z</time>
      </trkpt>
      <trkpt lat="43.86535" lon="7.30531">
        <ele>451.442917</ele>
        <time>2011-11-01T11:28:22Z</time>
      </trkpt>
      <trkpt lat="43.86535" lon="7.30531">
        <ele>451.442917</ele>
        <time>2011-11-01T11:28:23Z</time>
      </trkpt>
      <trkpt lat="43.86526" lon="7.30536">
        <ele>451.442917</ele>
        <time>2011-11-01T11:28:35Z</time>
      </trkpt>
      <trkpt lat="43.86518" lon="7.30543">
        <ele>450.442921</ele>
        <time>2011-11-01T11:28:44Z</time>
      </trkpt>
      <trkpt lat="43.8651" lon="7.30557">
        <ele>452.44294</ele>
        <time>2011-11-01T11:28:52Z</time>
      </trkpt>
      <trkpt lat="43.86509" lon="7.30559">
        <ele>452.44294</ele>
        <time>2011-11-01T11:28:55Z</time>
      </trkpt>
      <trkpt lat="43.86505" lon="7.3057">
        <ele>453.442959</ele>
        <time>2011-11-01T11:29:00Z</time>
      </trkpt>
      <trkpt lat="43.86501" lon="7.3059">
        <ele>458.442993</ele>
        <time>2011-11-01T11:29:11Z</time>
      </trkpt>
      <trkpt lat="43.86494" lon="7.30601">
        <ele>460.443008</ele>
        <time>2011-11-01T11:29:15Z</time>
      </trkpt>
      <trkpt lat="43.86486" lon="7.30613">
        <ele>460.443024</ele>
        <time>2011-11-01T11:29:19Z</time>
      </trkpt>
      <trkpt lat="43.86479" lon="7.30623">
        <ele>460.443035</ele>
        <time>2011-11-01T11:29:23Z</time>
      </trkpt>
      <trkpt lat="43.86472" lon="7.30634">
        <ele>462.44305</ele>
        <time>2011-11-01T11:29:28Z</time>
      </trkpt>
      <trkpt lat="43.86467" lon="7.30648">
        <ele>463.443069</ele>
        <time>2011-11-01T11:29:33Z</time>
      </trkpt>
      <trkpt lat="43.8646" lon="7.30659">
        <ele>464.443085</ele>
        <time>2011-11-01T11:29:38Z</time>
      </trkpt>
      <trkpt lat="43.86454" lon="7.30666">
        <ele>464.443089</ele>
        <time>2011-11-01T11:29:41Z</time>
      </trkpt>
      <trkpt lat="43.86448" lon="7.3068">
        <ele>466.443115</ele>
        <time>2011-11-01T11:29:45Z</time>
      </trkpt>
      <trkpt lat="43.86446" lon="7.30689">
        <ele>467.443127</ele>
        <time>2011-11-01T11:29:47Z</time>
      </trkpt>
      <trkpt lat="43.86445" lon="7.30706">
        <ele>468.443157</ele>
        <time>2011-11-01T11:29:50Z</time>
      </trkpt>
      <trkpt lat="43.86446" lon="7.30724">
        <ele>468.443199</ele>
        <time>2011-11-01T11:29:53Z</time>
      </trkpt>
      <trkpt lat="43.86446" lon="7.3073">
        <ele>467.443207</ele>
        <time>2011-11-01T11:29:54Z</time>
      </trkpt>
      <trkpt lat="43.86447" lon="7.30748">
        <ele>466.443253</ele>
        <time>2011-11-01T11:29:57Z</time>
      </trkpt>
      <trkpt lat="43.86447" lon="7.30765">
        <ele>465.443287</ele>
        <time>2011-11-01T11:30:00Z</time>
      </trkpt>
      <trkpt lat="43.86446" lon="7.30781">
        <ele>464.443317</ele>
        <time>2011-11-01T11:30:03Z</time>
      </trkpt>
      <trkpt lat="43.86443" lon="7.30791">
        <ele>464.443336</ele>
        <time>2011-11-01T11:30:05Z</time>
      </trkpt>
      <trkpt lat="43.86436" lon="7.30802">
        <ele>465.443348</ele>
        <time>2011-11-01T11:30:08Z</time>
      </trkpt>
      <trkpt lat="43.86434" lon="7.30805">
        <ele>465.443352</ele>
        <time>2011-11-01T11:30:09Z</time>
      </trkpt>
      <trkpt lat="43.86425" lon="7.30805">
        <ele>469.443336</ele>
        <time>2011-11-01T11:30:19Z</time>
      </trkpt>
      <trkpt lat="43.86422" lon="7.30804">
        <ele>469.443333</ele>
        <time>2011-11-01T11:30:21Z</time>
      </trkpt>
      <trkpt lat="43.86411" lon="7.30801">
        <ele>475.443314</ele>
        <time>2011-11-01T11:30:29Z</time>
      </trkpt>
      <trkpt lat="43.8641" lon="7.30801">
        <ele>476.443306</ele>
        <time>2011-11-01T11:30:31Z</time>
      </trkpt>
      <trkpt lat="43.86399" lon="7.30802">
        <ele>480.443298</ele>
        <time>2011-11-01T11:30:37Z</time>
      </trkpt>
      <trkpt lat="43.86388" lon="7.30804">
        <ele>484.443291</ele>
        <time>2011-11-01T11:30:41Z</time>
      </trkpt>
      <trkpt lat="43.86379" lon="7.30807">
        <ele>485.443275</ele>
        <time>2011-11-01T11:30:45Z</time>
      </trkpt>
      <trkpt lat="43.86376" lon="7.30808">
        <ele>485.443279</ele>
        <time>2011-11-01T11:30:46Z</time>
      </trkpt>
      <trkpt lat="43.86365" lon="7.30812">
        <ele>487.443272</ele>
        <time>2011-11-01T11:30:50Z</time>
      </trkpt>
      <trkpt lat="43.86352" lon="7.30819">
        <ele>488.443268</ele>
        <time>2011-11-01T11:30:54Z</time>
      </trkpt>
      <trkpt lat="43.86338" lon="7.30837">
        <ele>490.443287</ele>
        <time>2011-11-01T11:31:00Z</time>
      </trkpt>
      <trkpt lat="43.86335" lon="7.3085">
        <ele>490.443314</ele>
        <time>2011-11-01T11:31:03Z</time>
      </trkpt>
      <trkpt lat="43.86333" lon="7.30864">
        <ele>491.443336</ele>
        <time>2011-11-01T11:31:06Z</time>
      </trkpt>
      <trkpt lat="43.86333" lon="7.30873">
        <ele>491.443356</ele>
        <time>2011-11-01T11:31:08Z</time>
      </trkpt>
      <trkpt lat="43.86333" lon="7.30886">
        <ele>490.443382</ele>
        <time>2011-11-01T11:31:11Z</time>
      </trkpt>
      <trkpt lat="43.86333" lon="7.3089">
        <ele>490.44339</ele>
        <time>2011-11-01T11:31:12Z</time>
      </trkpt>
      <trkpt lat="43.86334" lon="7.30907">
        <ele>489.443428</ele>
        <time>2011-11-01T11:31:16Z</time>
      </trkpt>
      <trkpt lat="43.86336" lon="7.30916">
        <ele>489.443451</ele>
        <time>2011-11-01T11:31:18Z</time>
      </trkpt>
      <trkpt lat="43.86338" lon="7.30931">
        <ele>489.443481</ele>
        <time>2011-11-01T11:31:21Z</time>
      </trkpt>
      <trkpt lat="43.86339" lon="7.30944">
        <ele>489.443508</ele>
        <time>2011-11-01T11:31:24Z</time>
      </trkpt>
      <trkpt lat="43.86338" lon="7.30958">
        <ele>488.443539</ele>
        <time>2011-11-01T11:31:28Z</time>
      </trkpt>
      <trkpt lat="43.86319" lon="7.30955">
        <ele>494.443508</ele>
        <time>2011-11-01T11:31:50Z</time>
      </trkpt>
      <trkpt lat="43.86309" lon="7.30954">
        <ele>496.443489</ele>
        <time>2011-11-01T11:31:54Z</time>
      </trkpt>
      <trkpt lat="43.86299" lon="7.30953">
        <ele>497.443474</ele>
        <time>2011-11-01T11:31:58Z</time>
      </trkpt>
      <trkpt lat="43.86296" lon="7.30954">
        <ele>497.443474</ele>
        <time>2011-11-01T11:31:59Z</time>
      </trkpt>
      <trkpt lat="43.86285" lon="7.30955">
        <ele>499.443459</ele>
        <time>2011-11-01T11:32:03Z</time>
      </trkpt>
      <trkpt lat="43.86276" lon="7.30958">
        <ele>502.443459</ele>
        <time>2011-11-01T11:32:06Z</time>
      </trkpt>
      <trkpt lat="43.86268" lon="7.30964">
        <ele>503.443451</ele>
        <time>2011-11-01T11:32:09Z</time>
      </trkpt>
      <trkpt lat="43.86259" lon="7.30971">
        <ele>504.443459</ele>
        <time>2011-11-01T11:32:12Z</time>
      </trkpt>
      <trkpt lat="43.86252" lon="7.30978">
        <ele>505.443462</ele>
        <time>2011-11-01T11:32:15Z</time>
      </trkpt>
      <trkpt lat="43.86245" lon="7.30987">
        <ele>506.443474</ele>
        <time>2011-11-01T11:32:18Z</time>
      </trkpt>
      <trkpt lat="43.8624" lon="7.30998">
        <ele>506.443489</ele>
        <time>2011-11-01T11:32:21Z</time>
      </trkpt>
      <trkpt lat="43.86236" lon="7.31009">
        <ele>505.443504</ele>
        <time>2011-11-01T11:32:24Z</time>
      </trkpt>
      <trkpt lat="43.8623" lon="7.31022">
        <ele>507.443527</ele>
        <time>2011-11-01T11:32:28Z</time>
      </trkpt>
      <trkpt lat="43.86228" lon="7.31025">
        <ele>507.443531</ele>
        <time>2011-11-01T11:32:29Z</time>
      </trkpt>
      <trkpt lat="43.8622" lon="7.31032">
        <ele>506.443531</ele>
        <time>2011-11-01T11:32:33Z</time>
      </trkpt>
      <trkpt lat="43.86211" lon="7.31036">
        <ele>505.443527</ele>
        <time>2011-11-01T11:32:37Z</time>
      </trkpt>
      <trkpt lat="43.86209" lon="7.31037">
        <ele>506.443527</ele>
        <time>2011-11-01T11:32:38Z</time>
      </trkpt>
      <trkpt lat="43.86199" lon="7.31041">
        <ele>507.443523</ele>
        <time>2011-11-01T11:32:43Z</time>
      </trkpt>
      <trkpt lat="43.86192" lon="7.3105">
        <ele>511.443535</ele>
        <time>2011-11-01T11:32:49Z</time>
      </trkpt>
      <trkpt lat="43.86192" lon="7.3105">
        <ele>511.443535</ele>
        <time>2011-11-01T11:32:50Z</time>
      </trkpt>
      <trkpt lat="43.86196" lon="7.31062">
        <ele>513.443562</ele>
        <time>2011-11-01T11:32:54Z</time>
      </trkpt>
      <trkpt lat="43.86197" lon="7.31063">
        <ele>513.443565</ele>
        <time>2011-11-01T11:32:55Z</time>
      </trkpt>
      <trkpt lat="43.86204" lon="7.31072">
        <ele>512.443588</ele>
        <time>2011-11-01T11:33:00Z</time>
      </trkpt>
      <trkpt lat="43.86212" lon="7.31081">
        <ele>513.443619</ele>
        <time>2011-11-01T11:33:06Z</time>
      </trkpt>
      <trkpt lat="43.8622" lon="7.31099">
        <ele>512.443672</ele>
        <time>2011-11-01T11:33:17Z</time>
      </trkpt>
      <trkpt lat="43.86219" lon="7.31113">
        <ele>514.443699</ele>
        <time>2011-11-01T11:33:26Z</time>
      </trkpt>
      <trkpt lat="43.86218" lon="7.31127">
        <ele>522.443726</ele>
        <time>2011-11-01T11:35:57Z</time>
      </trkpt>
      <trkpt lat="43.86207" lon="7.31129">
        <ele>512.443718</ele>
        <time>2011-11-01T11:38:54Z</time>
      </trkpt>
      <trkpt lat="43.86198" lon="7.31134">
        <ele>513.443714</ele>
        <time>2011-11-01T11:39:00Z</time>
      </trkpt>
      <trkpt lat="43.86189" lon="7.31139">
        <ele>514.44371</ele>
        <time>2011-11-01T11:39:07Z</time>
      </trkpt>
      <trkpt lat="43.86184" lon="7.31144">
        <ele>515.443718</ele>
        <time>2011-11-01T11:39:11Z</time>
      </trkpt>
      <trkpt lat="43.86174" lon="7.31157">
        <ele>517.443733</ele>
        <time>2011-11-01T11:39:20Z</time>
      </trkpt>
      <trkpt lat="43.86169" lon="7.31171">
        <ele>520.443748</ele>
        <time>2011-11-01T11:39:30Z</time>
      </trkpt>
      <trkpt lat="43.86168" lon="7.31173">
        <ele>520.443752</ele>
        <time>2011-11-01T11:39:31Z</time>
      </trkpt>
      <trkpt lat="43.86163" lon="7.31185">
        <ele>520.443771</ele>
        <time>2011-11-01T11:39:39Z</time>
      </trkpt>
      <trkpt lat="43.86157" lon="7.31194">
        <ele>522.443779</ele>
        <time>2011-11-01T11:39:46Z</time>
      </trkpt>
      <trkpt lat="43.86149" lon="7.31204">
        <ele>526.44379</ele>
        <time>2011-11-01T11:39:51Z</time>
      </trkpt>
      <trkpt lat="43.86145" lon="7.31212">
        <ele>528.443802</ele>
        <time>2011-11-01T11:39:54Z</time>
      </trkpt>
      <trkpt lat="43.86143" lon="7.31226">
        <ele>527.443829</ele>
        <time>2011-11-01T11:39:58Z</time>
      </trkpt>
      <trkpt lat="43.86143" lon="7.31226">
        <ele>527.443829</ele>
        <time>2011-11-01T11:39:59Z</time>
      </trkpt>
      <trkpt lat="43.86143" lon="7.31241">
        <ele>527.443863</ele>
        <time>2011-11-01T11:40:02Z</time>
      </trkpt>
      <trkpt lat="43.86143" lon="7.31256">
        <ele>530.443893</ele>
        <time>2011-11-01T11:40:07Z</time>
      </trkpt>
      <trkpt lat="43.86142" lon="7.31259">
        <ele>530.443893</ele>
        <time>2011-11-01T11:40:08Z</time>
      </trkpt>
      <trkpt lat="43.86139" lon="7.31273">
        <ele>528.443924</ele>
        <time>2011-11-01T11:40:14Z</time>
      </trkpt>
      <trkpt lat="43.86136" lon="7.31285">
        <ele>530.443939</ele>
        <time>2011-11-01T11:40:19Z</time>
      </trkpt>
      <trkpt lat="43.86135" lon="7.31288">
        <ele>530.443947</ele>
        <time>2011-11-01T11:40:21Z</time>
      </trkpt>
      <trkpt lat="43.86132" lon="7.313">
        <ele>531.44397</ele>
        <time>2011-11-01T11:40:24Z</time>
      </trkpt>
      <trkpt lat="43.86128" lon="7.31311">
        <ele>530.443985</ele>
        <time>2011-11-01T11:40:27Z</time>
      </trkpt>
      <trkpt lat="43.86121" lon="7.31324">
        <ele>530.444004</ele>
        <time>2011-11-01T11:40:31Z</time>
      </trkpt>
      <trkpt lat="43.86115" lon="7.31334">
        <ele>530.444016</ele>
        <time>2011-11-01T11:40:35Z</time>
      </trkpt>
      <trkpt lat="43.86114" lon="7.31349">
        <ele>531.444046</ele>
        <time>2011-11-01T11:40:40Z</time>
      </trkpt>
      <trkpt lat="43.86118" lon="7.31363">
        <ele>531.44408</ele>
        <time>2011-11-01T11:40:43Z</time>
      </trkpt>
      <trkpt lat="43.86123" lon="7.31375">
        <ele>531.444111</ele>
        <time>2011-11-01T11:40:46Z</time>
      </trkpt>
      <trkpt lat="43.86124" lon="7.31379">
        <ele>532.444122</ele>
        <time>2011-11-01T11:40:47Z</time>
      </trkpt>
      <trkpt lat="43.86128" lon="7.31393">
        <ele>532.444157</ele>
        <time>2011-11-01T11:40:52Z</time>
      </trkpt>
      <trkpt lat="43.86126" lon="7.31408">
        <ele>534.444183</ele>
        <time>2011-11-01T11:40:57Z</time>
      </trkpt>
      <trkpt lat="43.86124" lon="7.31413">
        <ele>534.444191</ele>
        <time>2011-11-01T11:41:00Z</time>
      </trkpt>
      <trkpt lat="43.86114" lon="7.31414">
        <ele>532.444183</ele>
        <time>2011-11-01T11:41:13Z</time>
      </trkpt>
      <trkpt lat="43.86103" lon="7.31414">
        <ele>534.444168</ele>
        <time>2011-11-01T11:41:27Z</time>
      </trkpt>
      <trkpt lat="43.86068" lon="7.31423">
        <ele>529.444138</ele>
        <time>2011-11-01T11:41:48Z</time>
      </trkpt>
      <trkpt lat="43.86053" lon="7.31449">
        <ele>529.444172</ele>
        <time>2011-11-01T11:41:58Z</time>
      </trkpt>
      <trkpt lat="43.86048" lon="7.31462">
        <ele>528.444191</ele>
        <time>2011-11-01T11:42:02Z</time>
      </trkpt>
      <trkpt lat="43.86047" lon="7.31465">
        <ele>527.444195</ele>
        <time>2011-11-01T11:42:03Z</time>
      </trkpt>
      <trkpt lat="43.86039" lon="7.3148">
        <ele>525.444214</ele>
        <time>2011-11-01T11:42:19Z</time>
      </trkpt>
      <trkpt lat="43.86039" lon="7.31482">
        <ele>526.444221</ele>
        <time>2011-11-01T11:42:22Z</time>
      </trkpt>
      <trkpt lat="43.86027" lon="7.31486">
        <ele>527.444214</ele>
        <time>2011-11-01T11:42:52Z</time>
      </trkpt>
      <trkpt lat="43.86022" lon="7.31486">
        <ele>526.444206</ele>
        <time>2011-11-01T11:42:59Z</time>
      </trkpt>
      <trkpt lat="43.86011" lon="7.31487">
        <ele>526.444195</ele>
        <time>2011-11-01T11:43:08Z</time>
      </trkpt>
      <trkpt lat="43.86001" lon="7.3149">
        <ele>530.444183</ele>
        <time>2011-11-01T11:43:19Z</time>
      </trkpt>
      <trkpt lat="43.86" lon="7.31491">
        <ele>530.444187</ele>
        <time>2011-11-01T11:43:21Z</time>
      </trkpt>
      <trkpt lat="43.85995" lon="7.31502">
        <ele>531.444202</ele>
        <time>2011-11-01T11:43:33Z</time>
      </trkpt>
      <trkpt lat="43.85995" lon="7.31504">
        <ele>531.444206</ele>
        <time>2011-11-01T11:43:34Z</time>
      </trkpt>
      <trkpt lat="43.85997" lon="7.31518">
        <ele>532.444237</ele>
        <time>2011-11-01T11:43:41Z</time>
      </trkpt>
      <trkpt lat="43.85998" lon="7.31533">
        <ele>534.444271</ele>
        <time>2011-11-01T11:43:50Z</time>
      </trkpt>
      <trkpt lat="43.86002" lon="7.31545">
        <ele>536.444298</ele>
        <time>2011-11-01T11:44:01Z</time>
      </trkpt>
      <trkpt lat="43.86002" lon="7.31547">
        <ele>536.444305</ele>
        <time>2011-11-01T11:44:03Z</time>
      </trkpt>
      <trkpt lat="43.86001" lon="7.31562">
        <ele>543.444336</ele>
        <time>2011-11-01T11:44:35Z</time>
      </trkpt>
      <trkpt lat="43.85997" lon="7.31577">
        <ele>547.444363</ele>
        <time>2011-11-01T11:44:55Z</time>
      </trkpt>
      <trkpt lat="43.85995" lon="7.31579">
        <ele>548.444359</ele>
        <time>2011-11-01T11:45:00Z</time>
      </trkpt>
      <trkpt lat="43.85985" lon="7.31585">
        <ele>547.444359</ele>
        <time>2011-11-01T11:45:09Z</time>
      </trkpt>
      <trkpt lat="43.85976" lon="7.31591">
        <ele>546.444359</ele>
        <time>2011-11-01T11:45:23Z</time>
      </trkpt>
      <trkpt lat="43.85964" lon="7.31589">
        <ele>541.44434</ele>
        <time>2011-11-01T11:45:56Z</time>
      </trkpt>
      <trkpt lat="43.85958" lon="7.31588">
        <ele>543.444332</ele>
        <time>2011-11-01T11:46:05Z</time>
      </trkpt>
      <trkpt lat="43.85948" lon="7.31586">
        <ele>542.444313</ele>
        <time>2011-11-01T11:46:11Z</time>
      </trkpt>
      <trkpt lat="43.85939" lon="7.31583">
        <ele>541.444298</ele>
        <time>2011-11-01T11:46:24Z</time>
      </trkpt>
      <trkpt lat="43.8593" lon="7.31585">
        <ele>543.444286</ele>
        <time>2011-11-01T11:46:36Z</time>
      </trkpt>
      <trkpt lat="43.85922" lon="7.31589">
        <ele>546.444283</ele>
        <time>2011-11-01T11:46:45Z</time>
      </trkpt>
      <trkpt lat="43.85917" lon="7.31601">
        <ele>550.444302</ele>
        <time>2011-11-01T11:46:57Z</time>
      </trkpt>
      <trkpt lat="43.85916" lon="7.31614">
        <ele>549.444328</ele>
        <time>2011-11-01T11:47:12Z</time>
      </trkpt>
      <trkpt lat="43.85908" lon="7.3163">
        <ele>553.444351</ele>
        <time>2011-11-01T11:47:32Z</time>
      </trkpt>
      <trkpt lat="43.85908" lon="7.31632">
        <ele>553.444355</ele>
        <time>2011-11-01T11:47:38Z</time>
      </trkpt>
      <trkpt lat="43.85908" lon="7.31647">
        <ele>555.444389</ele>
        <time>2011-11-01T11:47:43Z</time>
      </trkpt>
      <trkpt lat="43.85906" lon="7.31659">
        <ele>556.444405</ele>
        <time>2011-11-01T11:48:19Z</time>
      </trkpt>
      <trkpt lat="43.85906" lon="7.31659">
        <ele>556.444405</ele>
        <time>2011-11-01T11:48:20Z</time>
      </trkpt>
      <trkpt lat="43.85898" lon="7.31667">
        <ele>552.444412</ele>
        <time>2011-11-01T11:48:47Z</time>
      </trkpt>
      <trkpt lat="43.85888" lon="7.31677">
        <ele>553.44442</ele>
        <time>2011-11-01T11:48:59Z</time>
      </trkpt>
      <trkpt lat="43.85884" lon="7.31683">
        <ele>554.444427</ele>
        <time>2011-11-01T11:49:03Z</time>
      </trkpt>
      <trkpt lat="43.85878" lon="7.31692">
        <ele>556.444443</ele>
        <time>2011-11-01T11:49:15Z</time>
      </trkpt>
      <trkpt lat="43.85877" lon="7.31698">
        <ele>556.44445</ele>
        <time>2011-11-01T11:49:21Z</time>
      </trkpt>
      <trkpt lat="43.85884" lon="7.31707">
        <ele>554.444477</ele>
        <time>2011-11-01T11:49:49Z</time>
      </trkpt>
      <trkpt lat="43.85879" lon="7.31715">
        <ele>562.444489</ele>
        <time>2011-11-01T11:50:18Z</time>
      </trkpt>
      <trkpt lat="43.85871" lon="7.31725">
        <ele>568.444496</ele>
        <time>2011-11-01T11:50:35Z</time>
      </trkpt>
      <trkpt lat="43.8587" lon="7.31727">
        <ele>568.444504</ele>
        <time>2011-11-01T11:50:37Z</time>
      </trkpt>
      <trkpt lat="43.85865" lon="7.31742">
        <ele>570.444523</ele>
        <time>2011-11-01T11:50:46Z</time>
      </trkpt>
      <trkpt lat="43.85865" lon="7.31754">
        <ele>573.44455</ele>
        <time>2011-11-01T11:50:59Z</time>
      </trkpt>
      <trkpt lat="43.85867" lon="7.31767">
        <ele>581.44458</ele>
        <time>2011-11-01T11:51:35Z</time>
      </trkpt>
      <trkpt lat="43.85867" lon="7.31771">
        <ele>583.444588</ele>
        <time>2011-11-01T11:51:42Z</time>
      </trkpt>
      <trkpt lat="43.85871" lon="7.31783">
        <ele>586.444618</ele>
        <time>2011-11-01T11:52:00Z</time>
      </trkpt>
      <trkpt lat="43.85872" lon="7.31783">
        <ele>587.444618</ele>
        <time>2011-11-01T11:52:02Z</time>
      </trkpt>
      <trkpt lat="43.8588" lon="7.31791">
        <ele>593.444645</ele>
        <time>2011-11-01T11:52:17Z</time>
      </trkpt>
      <trkpt lat="43.85887" lon="7.31801">
        <ele>595.444672</ele>
        <time>2011-11-01T11:52:25Z</time>
      </trkpt>
      <trkpt lat="43.85893" lon="7.31806">
        <ele>598.444695</ele>
        <time>2011-11-01T11:52:30Z</time>
      </trkpt>
      <trkpt lat="43.85903" lon="7.31811">
        <ele>602.444717</ele>
        <time>2011-11-01T11:52:37Z</time>
      </trkpt>
      <trkpt lat="43.8592" lon="7.31816">
        <ele>605.444756</ele>
        <time>2011-11-01T11:52:45Z</time>
      </trkpt>
      <trkpt lat="43.85929" lon="7.31819">
        <ele>609.444771</ele>
        <time>2011-11-01T11:52:56Z</time>
      </trkpt>
      <trkpt lat="43.85933" lon="7.3183">
        <ele>613.444801</ele>
        <time>2011-11-01T11:53:11Z</time>
      </trkpt>
      <trkpt lat="43.85943" lon="7.31836">
        <ele>615.444824</ele>
        <time>2011-11-01T11:53:18Z</time>
      </trkpt>
      <trkpt lat="43.85952" lon="7.31842">
        <ele>617.444847</ele>
        <time>2011-11-01T11:53:25Z</time>
      </trkpt>
      <trkpt lat="43.85966" lon="7.31861">
        <ele>621.444908</ele>
        <time>2011-11-01T11:53:49Z</time>
      </trkpt>
      <trkpt lat="43.85972" lon="7.31874">
        <ele>623.444942</ele>
        <time>2011-11-01T11:53:56Z</time>
      </trkpt>
      <trkpt lat="43.85983" lon="7.31889">
        <ele>625.444984</ele>
        <time>2011-11-01T11:54:03Z</time>
      </trkpt>
      <trkpt lat="43.85992" lon="7.31896">
        <ele>625.445011</ele>
        <time>2011-11-01T11:54:10Z</time>
      </trkpt>
      <trkpt lat="43.85999" lon="7.31904">
        <ele>627.445038</ele>
        <time>2011-11-01T11:54:21Z</time>
      </trkpt>
      <trkpt lat="43.85999" lon="7.31916">
        <ele>629.445068</ele>
        <time>2011-11-01T11:54:42Z</time>
      </trkpt>
      <trkpt lat="43.86001" lon="7.3193">
        <ele>631.445095</ele>
        <time>2011-11-01T11:54:53Z</time>
      </trkpt>
      <trkpt lat="43.86005" lon="7.31942">
        <ele>635.445129</ele>
        <time>2011-11-01T11:55:08Z</time>
      </trkpt>
      <trkpt lat="43.86008" lon="7.31953">
        <ele>635.445152</ele>
        <time>2011-11-01T11:55:17Z</time>
      </trkpt>
      <trkpt lat="43.86013" lon="7.31965">
        <ele>635.445183</ele>
        <time>2011-11-01T11:55:28Z</time>
      </trkpt>
      <trkpt lat="43.86012" lon="7.31981">
        <ele>635.445217</ele>
        <time>2011-11-01T11:55:48Z</time>
      </trkpt>
      <trkpt lat="43.86009" lon="7.31993">
        <ele>636.445236</ele>
        <time>2011-11-01T11:56:02Z</time>
      </trkpt>
      <trkpt lat="43.86009" lon="7.31995">
        <ele>637.445244</ele>
        <time>2011-11-01T11:56:04Z</time>
      </trkpt>
      <trkpt lat="43.86012" lon="7.32008">
        <ele>637.445271</ele>
        <time>2011-11-01T11:56:19Z</time>
      </trkpt>
      <trkpt lat="43.86017" lon="7.32019">
        <ele>638.445305</ele>
        <time>2011-11-01T11:56:40Z</time>
      </trkpt>
      <trkpt lat="43.86022" lon="7.3204">
        <ele>652.445351</ele>
        <time>2011-11-01T11:57:19Z</time>
      </trkpt>
      <trkpt lat="43.86019" lon="7.32055">
        <ele>651.445381</ele>
        <time>2011-11-01T11:57:43Z</time>
      </trkpt>
      <trkpt lat="43.8602" lon="7.3207">
        <ele>653.445412</ele>
        <time>2011-11-01T11:57:50Z</time>
      </trkpt>
      <trkpt lat="43.86021" lon="7.32073">
        <ele>652.445419</ele>
        <time>2011-11-01T11:57:51Z</time>
      </trkpt>
      <trkpt lat="43.86021" lon="7.32086">
        <ele>653.445446</ele>
        <time>2011-11-01T11:57:59Z</time>
      </trkpt>
      <trkpt lat="43.86023" lon="7.32099">
        <ele>656.44548</ele>
        <time>2011-11-01T11:58:04Z</time>
      </trkpt>
      <trkpt lat="43.86023" lon="7.32099">
        <ele>656.44548</ele>
        <time>2011-11-01T11:58:05Z</time>
      </trkpt>
      <trkpt lat="43.86026" lon="7.32113">
        <ele>657.445511</ele>
        <time>2011-11-01T11:58:09Z</time>
      </trkpt>
      <trkpt lat="43.86027" lon="7.32128">
        <ele>655.445541</ele>
        <time>2011-11-01T11:58:14Z</time>
      </trkpt>
      <trkpt lat="43.86025" lon="7.32146">
        <ele>653.445572</ele>
        <time>2011-11-01T11:58:21Z</time>
      </trkpt>
      <trkpt lat="43.86017" lon="7.32158">
        <ele>653.445587</ele>
        <time>2011-11-01T11:58:28Z</time>
      </trkpt>
      <trkpt lat="43.86018" lon="7.32173">
        <ele>657.445618</ele>
        <time>2011-11-01T11:58:33Z</time>
      </trkpt>
      <trkpt lat="43.86022" lon="7.32188">
        <ele>660.445656</ele>
        <time>2011-11-01T11:58:37Z</time>
      </trkpt>
      <trkpt lat="43.86022" lon="7.32188">
        <ele>660.445656</ele>
        <time>2011-11-01T11:58:38Z</time>
      </trkpt>
      <trkpt lat="43.86027" lon="7.322">
        <ele>662.445686</ele>
        <time>2011-11-01T11:58:41Z</time>
      </trkpt>
      <trkpt lat="43.86032" lon="7.32212">
        <ele>663.445724</ele>
        <time>2011-11-01T11:58:46Z</time>
      </trkpt>
      <trkpt lat="43.86038" lon="7.32226">
        <ele>663.445755</ele>
        <time>2011-11-01T11:58:51Z</time>
      </trkpt>
      <trkpt lat="43.86042" lon="7.32241">
        <ele>666.445793</ele>
        <time>2011-11-01T11:58:59Z</time>
      </trkpt>
      <trkpt lat="43.8605" lon="7.32263">
        <ele>671.445854</ele>
        <time>2011-11-01T11:59:09Z</time>
      </trkpt>
      <trkpt lat="43.86054" lon="7.32276">
        <ele>674.445881</ele>
        <time>2011-11-01T11:59:14Z</time>
      </trkpt>
      <trkpt lat="43.86054" lon="7.32276">
        <ele>674.445881</ele>
        <time>2011-11-01T11:59:15Z</time>
      </trkpt>
      <trkpt lat="43.8606" lon="7.32288">
        <ele>675.445915</ele>
        <time>2011-11-01T11:59:19Z</time>
      </trkpt>
      <trkpt lat="43.86061" lon="7.32291">
        <ele>675.445923</ele>
        <time>2011-11-01T11:59:20Z</time>
      </trkpt>
      <trkpt lat="43.86066" lon="7.32304">
        <ele>677.445953</ele>
        <time>2011-11-01T11:59:25Z</time>
      </trkpt>
      <trkpt lat="43.86069" lon="7.32311">
        <ele>677.445976</ele>
        <time>2011-11-01T11:59:29Z</time>
      </trkpt>
      <trkpt lat="43.86077" lon="7.32334">
        <ele>679.446037</ele>
        <time>2011-11-01T11:59:38Z</time>
      </trkpt>
      <trkpt lat="43.86081" lon="7.32346">
        <ele>681.446064</ele>
        <time>2011-11-01T11:59:44Z</time>
      </trkpt>
      <trkpt lat="43.86082" lon="7.32352">
        <ele>681.446075</ele>
        <time>2011-11-01T11:59:47Z</time>
      </trkpt>
      <trkpt lat="43.86086" lon="7.32364">
        <ele>684.446106</ele>
        <time>2011-11-01T11:59:57Z</time>
      </trkpt>
      <trkpt lat="43.86086" lon="7.32366">
        <ele>684.446114</ele>
        <time>2011-11-01T11:59:59Z</time>
      </trkpt>
      <trkpt lat="43.86092" lon="7.32377">
        <ele>683.446144</ele>
        <time>2011-11-01T12:00:12Z</time>
      </trkpt>
      <trkpt lat="43.8609" lon="7.32379">
        <ele>683.446144</ele>
        <time>2011-11-01T12:00:17Z</time>
      </trkpt>
      <trkpt lat="43.86091" lon="7.32391">
        <ele>685.446171</ele>
        <time>2011-11-01T12:00:26Z</time>
      </trkpt>
      <trkpt lat="43.86091" lon="7.32394">
        <ele>685.446178</ele>
        <time>2011-11-01T12:00:27Z</time>
      </trkpt>
      <trkpt lat="43.86094" lon="7.32406">
        <ele>685.446209</ele>
        <time>2011-11-01T12:00:33Z</time>
      </trkpt>
      <trkpt lat="43.86101" lon="7.32424">
        <ele>685.446251</ele>
        <time>2011-11-01T12:00:42Z</time>
      </trkpt>
      <trkpt lat="43.86105" lon="7.32437">
        <ele>686.446285</ele>
        <time>2011-11-01T12:00:47Z</time>
      </trkpt>
      <trkpt lat="43.86112" lon="7.32447">
        <ele>687.446312</ele>
        <time>2011-11-01T12:00:52Z</time>
      </trkpt>
      <trkpt lat="43.8612" lon="7.32455">
        <ele>687.446342</ele>
        <time>2011-11-01T12:00:57Z</time>
      </trkpt>
      <trkpt lat="43.86134" lon="7.32453">
        <ele>689.446358</ele>
        <time>2011-11-01T12:01:07Z</time>
      </trkpt>
      <trkpt lat="43.86145" lon="7.32447">
        <ele>694.446362</ele>
        <time>2011-11-01T12:01:20Z</time>
      </trkpt>
      <trkpt lat="43.86155" lon="7.32448">
        <ele>698.446373</ele>
        <time>2011-11-01T12:01:27Z</time>
      </trkpt>
      <trkpt lat="43.86155" lon="7.32448">
        <ele>698.446373</ele>
        <time>2011-11-01T12:01:30Z</time>
      </trkpt>
      <trkpt lat="43.86164" lon="7.32447">
        <ele>700.446381</ele>
        <time>2011-11-01T12:01:33Z</time>
      </trkpt>
      <trkpt lat="43.86168" lon="7.32446">
        <ele>701.446388</ele>
        <time>2011-11-01T12:01:35Z</time>
      </trkpt>
      <trkpt lat="43.86177" lon="7.32442">
        <ele>703.446388</ele>
        <time>2011-11-01T12:01:41Z</time>
      </trkpt>
      <trkpt lat="43.86182" lon="7.32435">
        <ele>704.446381</ele>
        <time>2011-11-01T12:01:46Z</time>
      </trkpt>
      <trkpt lat="43.86199" lon="7.32414">
        <ele>706.446365</ele>
        <time>2011-11-01T12:02:00Z</time>
      </trkpt>
      <trkpt lat="43.86213" lon="7.32405">
        <ele>709.446362</ele>
        <time>2011-11-01T12:02:09Z</time>
      </trkpt>
      <trkpt lat="43.86224" lon="7.32402">
        <ele>712.446373</ele>
        <time>2011-11-01T12:02:15Z</time>
      </trkpt>
      <trkpt lat="43.86239" lon="7.32398">
        <ele>716.446381</ele>
        <time>2011-11-01T12:02:22Z</time>
      </trkpt>
      <trkpt lat="43.86248" lon="7.32398">
        <ele>718.446396</ele>
        <time>2011-11-01T12:02:25Z</time>
      </trkpt>
      <trkpt lat="43.86259" lon="7.32398">
        <ele>719.446407</ele>
        <time>2011-11-01T12:02:29Z</time>
      </trkpt>
      <trkpt lat="43.86269" lon="7.32397">
        <ele>721.446423</ele>
        <time>2011-11-01T12:02:33Z</time>
      </trkpt>
      <trkpt lat="43.86294" lon="7.32383">
        <ele>722.446423</ele>
        <time>2011-11-01T12:02:46Z</time>
      </trkpt>
      <trkpt lat="43.86302" lon="7.32376">
        <ele>722.446423</ele>
        <time>2011-11-01T12:02:51Z</time>
      </trkpt>
      <trkpt lat="43.86313" lon="7.32367">
        <ele>722.446419</ele>
        <time>2011-11-01T12:02:57Z</time>
      </trkpt>
      <trkpt lat="43.86325" lon="7.32357">
        <ele>722.446415</ele>
        <time>2011-11-01T12:03:05Z</time>
      </trkpt>
      <trkpt lat="43.86336" lon="7.32349">
        <ele>721.446411</ele>
        <time>2011-11-01T12:03:12Z</time>
      </trkpt>
      <trkpt lat="43.86349" lon="7.32346">
        <ele>718.446426</ele>
        <time>2011-11-01T12:03:24Z</time>
      </trkpt>
      <trkpt lat="43.86355" lon="7.32343">
        <ele>718.446419</ele>
        <time>2011-11-01T12:03:30Z</time>
      </trkpt>
      <trkpt lat="43.86364" lon="7.32335">
        <ele>717.446419</ele>
        <time>2011-11-01T12:03:39Z</time>
      </trkpt>
      <trkpt lat="43.86375" lon="7.32327">
        <ele>715.446419</ele>
        <time>2011-11-01T12:03:50Z</time>
      </trkpt>
      <trkpt lat="43.86378" lon="7.32326">
        <ele>715.446419</ele>
        <time>2011-11-01T12:03:53Z</time>
      </trkpt>
      <trkpt lat="43.86389" lon="7.32325">
        <ele>716.446434</ele>
        <time>2011-11-01T12:04:01Z</time>
      </trkpt>
      <trkpt lat="43.864" lon="7.32323">
        <ele>717.446445</ele>
        <time>2011-11-01T12:04:06Z</time>
      </trkpt>
      <trkpt lat="43.86408" lon="7.32321">
        <ele>718.446449</ele>
        <time>2011-11-01T12:04:10Z</time>
      </trkpt>
      <trkpt lat="43.86422" lon="7.32319">
        <ele>719.446465</ele>
        <time>2011-11-01T12:04:16Z</time>
      </trkpt>
      <trkpt lat="43.8643" lon="7.32319">
        <ele>719.446472</ele>
        <time>2011-11-01T12:04:19Z</time>
      </trkpt>
      <trkpt lat="43.86439" lon="7.32319">
        <ele>719.446487</ele>
        <time>2011-11-01T12:04:23Z</time>
      </trkpt>
      <trkpt lat="43.86439" lon="7.32319">
        <ele>719.446487</ele>
        <time>2011-11-01T12:04:24Z</time>
      </trkpt>
      <trkpt lat="43.86451" lon="7.32318">
        <ele>718.446499</ele>
        <time>2011-11-01T12:04:28Z</time>
      </trkpt>
      <trkpt lat="43.86462" lon="7.32316">
        <ele>719.446514</ele>
        <time>2011-11-01T12:04:32Z</time>
      </trkpt>
      <trkpt lat="43.86471" lon="7.32317">
        <ele>721.446526</ele>
        <time>2011-11-01T12:04:35Z</time>
      </trkpt>
      <trkpt lat="43.8648" lon="7.32317">
        <ele>723.446541</ele>
        <time>2011-11-01T12:04:38Z</time>
      </trkpt>
      <trkpt lat="43.86483" lon="7.32316">
        <ele>723.446541</ele>
        <time>2011-11-01T12:04:39Z</time>
      </trkpt>
      <trkpt lat="43.86493" lon="7.32315">
        <ele>724.446552</ele>
        <time>2011-11-01T12:04:43Z</time>
      </trkpt>
      <trkpt lat="43.86496" lon="7.32316">
        <ele>725.446556</ele>
        <time>2011-11-01T12:04:45Z</time>
      </trkpt>
      <trkpt lat="43.86502" lon="7.32327">
        <ele>726.446587</ele>
        <time>2011-11-01T12:04:53Z</time>
      </trkpt>
      <trkpt lat="43.86505" lon="7.32339">
        <ele>724.446617</ele>
        <time>2011-11-01T12:04:58Z</time>
      </trkpt>
      <trkpt lat="43.86509" lon="7.32352">
        <ele>725.446648</ele>
        <time>2011-11-01T12:05:03Z</time>
      </trkpt>
      <trkpt lat="43.86514" lon="7.32365">
        <ele>726.446682</ele>
        <time>2011-11-01T12:05:09Z</time>
      </trkpt>
      <trkpt lat="43.86523" lon="7.32377">
        <ele>730.446716</ele>
        <time>2011-11-01T12:05:16Z</time>
      </trkpt>
      <trkpt lat="43.86531" lon="7.32382">
        <ele>732.446739</ele>
        <time>2011-11-01T12:05:21Z</time>
      </trkpt>
      <trkpt lat="43.86533" lon="7.32382">
        <ele>732.446747</ele>
        <time>2011-11-01T12:05:22Z</time>
      </trkpt>
      <trkpt lat="43.8655" lon="7.32383">
        <ele>734.44677</ele>
        <time>2011-11-01T12:05:32Z</time>
      </trkpt>
      <trkpt lat="43.86577" lon="7.32373">
        <ele>730.446785</ele>
        <time>2011-11-01T12:05:53Z</time>
      </trkpt>
      <trkpt lat="43.86581" lon="7.32371">
        <ele>730.446785</ele>
        <time>2011-11-01T12:05:56Z</time>
      </trkpt>
      <trkpt lat="43.8659" lon="7.32367">
        <ele>733.446789</ele>
        <time>2011-11-01T12:06:18Z</time>
      </trkpt>
      <trkpt lat="43.866" lon="7.32372">
        <ele>733.446812</ele>
        <time>2011-11-01T12:06:24Z</time>
      </trkpt>
      <trkpt lat="43.8661" lon="7.32379">
        <ele>733.446838</ele>
        <time>2011-11-01T12:06:28Z</time>
      </trkpt>
      <trkpt lat="43.86622" lon="7.32387">
        <ele>733.446877</ele>
        <time>2011-11-01T12:06:31Z</time>
      </trkpt>
      <trkpt lat="43.86632" lon="7.32393">
        <ele>732.446899</ele>
        <time>2011-11-01T12:06:33Z</time>
      </trkpt>
      <trkpt lat="43.86641" lon="7.32398">
        <ele>732.446918</ele>
        <time>2011-11-01T12:06:35Z</time>
      </trkpt>
      <trkpt lat="43.86651" lon="7.32402">
        <ele>732.446938</ele>
        <time>2011-11-01T12:06:37Z</time>
      </trkpt>
      <trkpt lat="43.8666" lon="7.32405">
        <ele>732.44696</ele>
        <time>2011-11-01T12:06:39Z</time>
      </trkpt>
      <trkpt lat="43.86669" lon="7.32408">
        <ele>732.446983</ele>
        <time>2011-11-01T12:06:41Z</time>
      </trkpt>
      <trkpt lat="43.86678" lon="7.32406">
        <ele>732.446991</ele>
        <time>2011-11-01T12:06:43Z</time>
      </trkpt>
      <trkpt lat="43.86686" lon="7.32402">
        <ele>732.446991</ele>
        <time>2011-11-01T12:06:45Z</time>
      </trkpt>
      <trkpt lat="43.86696" lon="7.32397">
        <ele>732.446991</ele>
        <time>2011-11-01T12:06:47Z</time>
      </trkpt>
      <trkpt lat="43.86705" lon="7.32391">
        <ele>732.446991</ele>
        <time>2011-11-01T12:06:49Z</time>
      </trkpt>
      <trkpt lat="43.86714" lon="7.32385">
        <ele>732.446991</ele>
        <time>2011-11-01T12:06:51Z</time>
      </trkpt>
      <trkpt lat="43.86722" lon="7.32377">
        <ele>731.446983</ele>
        <time>2011-11-01T12:06:53Z</time>
      </trkpt>
      <trkpt lat="43.8673" lon="7.32368">
        <ele>730.446976</ele>
        <time>2011-11-01T12:06:55Z</time>
      </trkpt>
      <trkpt lat="43.86738" lon="7.32358">
        <ele>729.446972</ele>
        <time>2011-11-01T12:06:57Z</time>
      </trkpt>
      <trkpt lat="43.86745" lon="7.32345">
        <ele>729.446945</ele>
        <time>2011-11-01T12:06:59Z</time>
      </trkpt>
      <trkpt lat="43.86749" lon="7.3234">
        <ele>728.446945</ele>
        <time>2011-11-01T12:07:00Z</time>
      </trkpt>
      <trkpt lat="43.86758" lon="7.32332">
        <ele>729.446941</ele>
        <time>2011-11-01T12:07:03Z</time>
      </trkpt>
      <trkpt lat="43.86768" lon="7.32331">
        <ele>729.446953</ele>
        <time>2011-11-01T12:07:08Z</time>
      </trkpt>
      <trkpt lat="43.86785" lon="7.32326">
        <ele>729.446968</ele>
        <time>2011-11-01T12:07:17Z</time>
      </trkpt>
      <trkpt lat="43.86796" lon="7.32323">
        <ele>729.446976</ele>
        <time>2011-11-01T12:07:22Z</time>
      </trkpt>
      <trkpt lat="43.86805" lon="7.32319">
        <ele>729.446976</ele>
        <time>2011-11-01T12:07:25Z</time>
      </trkpt>
      <trkpt lat="43.86817" lon="7.32314">
        <ele>728.446983</ele>
        <time>2011-11-01T12:07:28Z</time>
      </trkpt>
      <trkpt lat="43.86827" lon="7.32309">
        <ele>728.446987</ele>
        <time>2011-11-01T12:07:31Z</time>
      </trkpt>
      <trkpt lat="43.86838" lon="7.32303">
        <ele>727.446991</ele>
        <time>2011-11-01T12:07:34Z</time>
      </trkpt>
      <trkpt lat="43.86847" lon="7.32297">
        <ele>727.446991</ele>
        <time>2011-11-01T12:07:37Z</time>
      </trkpt>
      <trkpt lat="43.86856" lon="7.32291">
        <ele>729.446987</ele>
        <time>2011-11-01T12:07:40Z</time>
      </trkpt>
      <trkpt lat="43.86864" lon="7.32286">
        <ele>730.446991</ele>
        <time>2011-11-01T12:07:43Z</time>
      </trkpt>
      <trkpt lat="43.86874" lon="7.32279">
        <ele>732.446987</ele>
        <time>2011-11-01T12:07:47Z</time>
      </trkpt>
      <trkpt lat="43.86884" lon="7.32274">
        <ele>733.446991</ele>
        <time>2011-11-01T12:07:51Z</time>
      </trkpt>
      <trkpt lat="43.86893" lon="7.32268">
        <ele>733.446991</ele>
        <time>2011-11-01T12:07:55Z</time>
      </trkpt>
      <trkpt lat="43.86902" lon="7.32262">
        <ele>734.446991</ele>
        <time>2011-11-01T12:07:59Z</time>
      </trkpt>
      <trkpt lat="43.86913" lon="7.32256">
        <ele>734.446991</ele>
        <time>2011-11-01T12:08:03Z</time>
      </trkpt>
      <trkpt lat="43.86922" lon="7.32252">
        <ele>734.446999</ele>
        <time>2011-11-01T12:08:06Z</time>
      </trkpt>
      <trkpt lat="43.86931" lon="7.32248">
        <ele>733.447002</ele>
        <time>2011-11-01T12:08:09Z</time>
      </trkpt>
      <trkpt lat="43.86943" lon="7.32242">
        <ele>733.447006</ele>
        <time>2011-11-01T12:08:12Z</time>
      </trkpt>
      <trkpt lat="43.86951" lon="7.32237">
        <ele>733.447006</ele>
        <time>2011-11-01T12:08:14Z</time>
      </trkpt>
      <trkpt lat="43.86962" lon="7.3223">
        <ele>733.447002</ele>
        <time>2011-11-01T12:08:17Z</time>
      </trkpt>
      <trkpt lat="43.86972" lon="7.3222">
        <ele>734.446995</ele>
        <time>2011-11-01T12:08:20Z</time>
      </trkpt>
      <trkpt lat="43.86982" lon="7.3221">
        <ele>734.446991</ele>
        <time>2011-11-01T12:08:23Z</time>
      </trkpt>
      <trkpt lat="43.8699" lon="7.32205">
        <ele>735.446991</ele>
        <time>2011-11-01T12:08:25Z</time>
      </trkpt>
      <trkpt lat="43.86999" lon="7.32197">
        <ele>736.446983</ele>
        <time>2011-11-01T12:08:28Z</time>
      </trkpt>
      <trkpt lat="43.87006" lon="7.32187">
        <ele>736.446976</ele>
        <time>2011-11-01T12:08:31Z</time>
      </trkpt>
      <trkpt lat="43.87014" lon="7.32179">
        <ele>736.446968</ele>
        <time>2011-11-01T12:08:35Z</time>
      </trkpt>
      <trkpt lat="43.87023" lon="7.32178">
        <ele>738.44698</ele>
        <time>2011-11-01T12:08:39Z</time>
      </trkpt>
      <trkpt lat="43.87025" lon="7.32176">
        <ele>738.446976</ele>
        <time>2011-11-01T12:08:40Z</time>
      </trkpt>
      <trkpt lat="43.87035" lon="7.3217">
        <ele>738.44698</ele>
        <time>2011-11-01T12:08:44Z</time>
      </trkpt>
      <trkpt lat="43.87047" lon="7.32167">
        <ele>739.446983</ele>
        <time>2011-11-01T12:08:48Z</time>
      </trkpt>
      <trkpt lat="43.87055" lon="7.32165">
        <ele>740.446995</ele>
        <time>2011-11-01T12:08:51Z</time>
      </trkpt>
      <trkpt lat="43.87066" lon="7.32165">
        <ele>741.447006</ele>
        <time>2011-11-01T12:08:55Z</time>
      </trkpt>
      <trkpt lat="43.87068" lon="7.32166">
        <ele>741.447014</ele>
        <time>2011-11-01T12:08:56Z</time>
      </trkpt>
      <trkpt lat="43.87079" lon="7.32172">
        <ele>742.447041</ele>
        <time>2011-11-01T12:09:00Z</time>
      </trkpt>
      <trkpt lat="43.87092" lon="7.32188">
        <ele>743.44709</ele>
        <time>2011-11-01T12:09:11Z</time>
      </trkpt>
      <trkpt lat="43.87095" lon="7.322">
        <ele>741.447121</ele>
        <time>2011-11-01T12:09:24Z</time>
      </trkpt>
      <trkpt lat="43.87098" lon="7.32213">
        <ele>743.447151</ele>
        <time>2011-11-01T12:09:35Z</time>
      </trkpt>
      <trkpt lat="43.87099" lon="7.32227">
        <ele>745.447182</ele>
        <time>2011-11-01T12:09:44Z</time>
      </trkpt>
      <trkpt lat="43.87104" lon="7.32239">
        <ele>747.447212</ele>
        <time>2011-11-01T12:09:52Z</time>
      </trkpt>
      <trkpt lat="43.87112" lon="7.32247">
        <ele>752.447235</ele>
        <time>2011-11-01T12:10:00Z</time>
      </trkpt>
      <trkpt lat="43.87118" lon="7.32257">
        <ele>749.447269</ele>
        <time>2011-11-01T12:10:24Z</time>
      </trkpt>
      <trkpt lat="43.87119" lon="7.32258">
        <ele>750.447273</ele>
        <time>2011-11-01T12:10:26Z</time>
      </trkpt>
      <trkpt lat="43.87132" lon="7.32267">
        <ele>749.447311</ele>
        <time>2011-11-01T12:10:41Z</time>
      </trkpt>
      <trkpt lat="43.87142" lon="7.32272">
        <ele>750.447327</ele>
        <time>2011-11-01T12:10:50Z</time>
      </trkpt>
      <trkpt lat="43.87145" lon="7.32274">
        <ele>750.447334</ele>
        <time>2011-11-01T12:10:58Z</time>
      </trkpt>
      <trkpt lat="43.87156" lon="7.32284">
        <ele>752.447376</ele>
        <time>2011-11-01T12:11:10Z</time>
      </trkpt>
      <trkpt lat="43.87169" lon="7.32289">
        <ele>755.447403</ele>
        <time>2011-11-01T12:11:19Z</time>
      </trkpt>
      <trkpt lat="43.87183" lon="7.32288">
        <ele>760.447422</ele>
        <time>2011-11-01T12:11:31Z</time>
      </trkpt>
      <trkpt lat="43.87198" lon="7.32293">
        <ele>758.447449</ele>
        <time>2011-11-01T12:11:41Z</time>
      </trkpt>
      <trkpt lat="43.87207" lon="7.32297">
        <ele>758.447472</ele>
        <time>2011-11-01T12:11:47Z</time>
      </trkpt>
      <trkpt lat="43.87218" lon="7.32301">
        <ele>758.447495</ele>
        <time>2011-11-01T12:11:55Z</time>
      </trkpt>
      <trkpt lat="43.87219" lon="7.32302">
        <ele>758.447495</ele>
        <time>2011-11-01T12:11:56Z</time>
      </trkpt>
      <trkpt lat="43.8723" lon="7.32305">
        <ele>757.447521</ele>
        <time>2011-11-01T12:12:06Z</time>
      </trkpt>
      <trkpt lat="43.8724" lon="7.32299">
        <ele>760.447521</ele>
        <time>2011-11-01T12:12:20Z</time>
      </trkpt>
      <trkpt lat="43.87249" lon="7.323">
        <ele>758.447533</ele>
        <time>2011-11-01T12:12:32Z</time>
      </trkpt>
      <trkpt lat="43.8725" lon="7.323">
        <ele>758.447533</ele>
        <time>2011-11-01T12:12:33Z</time>
      </trkpt>
      <trkpt lat="43.87263" lon="7.32304">
        <ele>759.447559</ele>
        <time>2011-11-01T12:12:49Z</time>
      </trkpt>
      <trkpt lat="43.87268" lon="7.32305">
        <ele>758.447571</ele>
        <time>2011-11-01T12:12:53Z</time>
      </trkpt>
      <trkpt lat="43.87277" lon="7.32307">
        <ele>757.447586</ele>
        <time>2011-11-01T12:12:59Z</time>
      </trkpt>
      <trkpt lat="43.87279" lon="7.32308">
        <ele>757.447586</ele>
        <time>2011-11-01T12:13:00Z</time>
      </trkpt>
      <trkpt lat="43.87288" lon="7.32311">
        <ele>758.447609</ele>
        <time>2011-11-01T12:13:06Z</time>
      </trkpt>
      <trkpt lat="43.87289" lon="7.32312">
        <ele>758.447609</ele>
        <time>2011-11-01T12:13:07Z</time>
      </trkpt>
      <trkpt lat="43.87299" lon="7.32314">
        <ele>760.447628</ele>
        <time>2011-11-01T12:13:15Z</time>
      </trkpt>
      <trkpt lat="43.87302" lon="7.32315">
        <ele>761.447636</ele>
        <time>2011-11-01T12:13:18Z</time>
      </trkpt>
      <trkpt lat="43.87313" lon="7.32315">
        <ele>761.447647</ele>
        <time>2011-11-01T12:13:28Z</time>
      </trkpt>
      <trkpt lat="43.87323" lon="7.32314">
        <ele>764.447659</ele>
        <time>2011-11-01T12:13:37Z</time>
      </trkpt>
      <trkpt lat="43.87323" lon="7.32314">
        <ele>764.447659</ele>
        <time>2011-11-01T12:13:38Z</time>
      </trkpt>
      <trkpt lat="43.87332" lon="7.32315">
        <ele>767.447678</ele>
        <time>2011-11-01T12:13:46Z</time>
      </trkpt>
      <trkpt lat="43.87346" lon="7.32323">
        <ele>770.447708</ele>
        <time>2011-11-01T12:14:01Z</time>
      </trkpt>
      <trkpt lat="43.87353" lon="7.32331">
        <ele>772.447735</ele>
        <time>2011-11-01T12:14:09Z</time>
      </trkpt>
      <trkpt lat="43.87363" lon="7.32339">
        <ele>776.447762</ele>
        <time>2011-11-01T12:14:20Z</time>
      </trkpt>
      <trkpt lat="43.87369" lon="7.32348">
        <ele>777.447792</ele>
        <time>2011-11-01T12:14:46Z</time>
      </trkpt>
      <trkpt lat="43.87378" lon="7.32356">
        <ele>785.447819</ele>
        <time>2011-11-01T12:15:17Z</time>
      </trkpt>
      <trkpt lat="43.87379" lon="7.32356">
        <ele>786.447823</ele>
        <time>2011-11-01T12:15:19Z</time>
      </trkpt>
      <trkpt lat="43.87387" lon="7.32351">
        <ele>792.447823</ele>
        <time>2011-11-01T12:15:42Z</time>
      </trkpt>
      <trkpt lat="43.87388" lon="7.3235">
        <ele>792.447823</ele>
        <time>2011-11-01T12:15:43Z</time>
      </trkpt>
      <trkpt lat="43.87397" lon="7.3235">
        <ele>794.447834</ele>
        <time>2011-11-01T12:15:59Z</time>
      </trkpt>
      <trkpt lat="43.87407" lon="7.32354">
        <ele>794.447853</ele>
        <time>2011-11-01T12:16:14Z</time>
      </trkpt>
      <trkpt lat="43.87409" lon="7.32354">
        <ele>795.447861</ele>
        <time>2011-11-01T12:16:21Z</time>
      </trkpt>
      <trkpt lat="43.87419" lon="7.32354">
        <ele>798.447876</ele>
        <time>2011-11-01T12:16:40Z</time>
      </trkpt>
      <trkpt lat="43.87427" lon="7.32359">
        <ele>800.447891</ele>
        <time>2011-11-01T12:16:57Z</time>
      </trkpt>
      <trkpt lat="43.87434" lon="7.32368">
        <ele>801.447922</ele>
        <time>2011-11-01T12:17:08Z</time>
      </trkpt>
      <trkpt lat="43.87439" lon="7.32378">
        <ele>802.447952</ele>
        <time>2011-11-01T12:17:21Z</time>
      </trkpt>
      <trkpt lat="43.8743" lon="7.32388">
        <ele>807.44796</ele>
        <time>2011-11-01T12:28:41Z</time>
      </trkpt>
      <trkpt lat="43.87424" lon="7.32403">
        <ele>807.447975</ele>
        <time>2011-11-01T12:28:44Z</time>
      </trkpt>
      <trkpt lat="43.87417" lon="7.32414">
        <ele>807.447994</ele>
        <time>2011-11-01T12:28:46Z</time>
      </trkpt>
      <trkpt lat="43.87409" lon="7.32423">
        <ele>807.448006</ele>
        <time>2011-11-01T12:28:48Z</time>
      </trkpt>
      <trkpt lat="43.87405" lon="7.32427">
        <ele>807.448006</ele>
        <time>2011-11-01T12:28:49Z</time>
      </trkpt>
      <trkpt lat="43.87396" lon="7.32434">
        <ele>808.448006</ele>
        <time>2011-11-01T12:28:51Z</time>
      </trkpt>
      <trkpt lat="43.87388" lon="7.32442">
        <ele>809.448009</ele>
        <time>2011-11-01T12:28:53Z</time>
      </trkpt>
      <trkpt lat="43.8738" lon="7.3245">
        <ele>811.448021</ele>
        <time>2011-11-01T12:28:55Z</time>
      </trkpt>
      <trkpt lat="43.87373" lon="7.32458">
        <ele>811.448025</ele>
        <time>2011-11-01T12:28:57Z</time>
      </trkpt>
      <trkpt lat="43.8737" lon="7.32463">
        <ele>812.448029</ele>
        <time>2011-11-01T12:28:58Z</time>
      </trkpt>
      <trkpt lat="43.87362" lon="7.32476">
        <ele>812.448044</ele>
        <time>2011-11-01T12:29:01Z</time>
      </trkpt>
      <trkpt lat="43.87357" lon="7.32489">
        <ele>813.448067</ele>
        <time>2011-11-01T12:29:04Z</time>
      </trkpt>
      <trkpt lat="43.87353" lon="7.32501">
        <ele>813.44809</ele>
        <time>2011-11-01T12:29:07Z</time>
      </trkpt>
      <trkpt lat="43.87348" lon="7.32512">
        <ele>813.448105</ele>
        <time>2011-11-01T12:29:10Z</time>
      </trkpt>
      <trkpt lat="43.87343" lon="7.32523">
        <ele>813.44812</ele>
        <time>2011-11-01T12:29:13Z</time>
      </trkpt>
      <trkpt lat="43.87339" lon="7.32536">
        <ele>813.448143</ele>
        <time>2011-11-01T12:29:16Z</time>
      </trkpt>
      <trkpt lat="43.87336" lon="7.3255">
        <ele>813.448166</ele>
        <time>2011-11-01T12:29:19Z</time>
      </trkpt>
      <trkpt lat="43.87335" lon="7.32555">
        <ele>812.448174</ele>
        <time>2011-11-01T12:29:20Z</time>
      </trkpt>
      <trkpt lat="43.87332" lon="7.32568">
        <ele>811.448196</ele>
        <time>2011-11-01T12:29:23Z</time>
      </trkpt>
      <trkpt lat="43.8733" lon="7.32573">
        <ele>811.448204</ele>
        <time>2011-11-01T12:29:24Z</time>
      </trkpt>
      <trkpt lat="43.87326" lon="7.32586">
        <ele>810.448227</ele>
        <time>2011-11-01T12:29:27Z</time>
      </trkpt>
      <trkpt lat="43.8732" lon="7.32598">
        <ele>810.448242</ele>
        <time>2011-11-01T12:29:30Z</time>
      </trkpt>
      <trkpt lat="43.87314" lon="7.32611">
        <ele>810.448261</ele>
        <time>2011-11-01T12:29:33Z</time>
      </trkpt>
      <trkpt lat="43.87309" lon="7.32625">
        <ele>809.44828</ele>
        <time>2011-11-01T12:29:36Z</time>
      </trkpt>
      <trkpt lat="43.87305" lon="7.32635">
        <ele>808.448296</ele>
        <time>2011-11-01T12:29:38Z</time>
      </trkpt>
      <trkpt lat="43.87298" lon="7.32649">
        <ele>808.448322</ele>
        <time>2011-11-01T12:29:41Z</time>
      </trkpt>
      <trkpt lat="43.87295" lon="7.32664">
        <ele>807.448345</ele>
        <time>2011-11-01T12:29:44Z</time>
      </trkpt>
      <trkpt lat="43.87299" lon="7.32679">
        <ele>808.448383</ele>
        <time>2011-11-01T12:29:47Z</time>
      </trkpt>
      <trkpt lat="43.87308" lon="7.3269">
        <ele>809.448414</ele>
        <time>2011-11-01T12:29:50Z</time>
      </trkpt>
      <trkpt lat="43.87317" lon="7.32696">
        <ele>809.448441</ele>
        <time>2011-11-01T12:29:53Z</time>
      </trkpt>
      <trkpt lat="43.87327" lon="7.32703">
        <ele>808.448467</ele>
        <time>2011-11-01T12:29:56Z</time>
      </trkpt>
      <trkpt lat="43.87337" lon="7.32708">
        <ele>809.44849</ele>
        <time>2011-11-01T12:29:59Z</time>
      </trkpt>
      <trkpt lat="43.87346" lon="7.32709">
        <ele>810.448509</ele>
        <time>2011-11-01T12:30:02Z</time>
      </trkpt>
      <trkpt lat="43.87358" lon="7.3271">
        <ele>810.448524</ele>
        <time>2011-11-01T12:30:06Z</time>
      </trkpt>
      <trkpt lat="43.87368" lon="7.32709">
        <ele>810.448536</ele>
        <time>2011-11-01T12:30:10Z</time>
      </trkpt>
      <trkpt lat="43.87378" lon="7.32715">
        <ele>810.448563</ele>
        <time>2011-11-01T12:30:14Z</time>
      </trkpt>
      <trkpt lat="43.87387" lon="7.32724">
        <ele>811.448589</ele>
        <time>2011-11-01T12:30:18Z</time>
      </trkpt>
      <trkpt lat="43.87405" lon="7.32729">
        <ele>813.448627</ele>
        <time>2011-11-01T12:30:27Z</time>
      </trkpt>
      <trkpt lat="43.87415" lon="7.32728">
        <ele>814.448639</ele>
        <time>2011-11-01T12:30:32Z</time>
      </trkpt>
      <trkpt lat="43.87425" lon="7.3273">
        <ele>817.448658</ele>
        <time>2011-11-01T12:30:37Z</time>
      </trkpt>
      <trkpt lat="43.87434" lon="7.32738">
        <ele>817.448685</ele>
        <time>2011-11-01T12:30:40Z</time>
      </trkpt>
      <trkpt lat="43.87446" lon="7.32757">
        <ele>806.448738</ele>
        <time>2011-11-01T12:31:10Z</time>
      </trkpt>
      <trkpt lat="43.87456" lon="7.3275">
        <ele>803.448738</ele>
        <time>2011-11-01T12:31:40Z</time>
      </trkpt>
      <trkpt lat="43.87467" lon="7.32749">
        <ele>803.448746</ele>
        <time>2011-11-01T12:31:44Z</time>
      </trkpt>
      <trkpt lat="43.87476" lon="7.32753">
        <ele>804.448772</ele>
        <time>2011-11-01T12:31:47Z</time>
      </trkpt>
      <trkpt lat="43.87485" lon="7.32762">
        <ele>804.448799</ele>
        <time>2011-11-01T12:31:51Z</time>
      </trkpt>
      <trkpt lat="43.87494" lon="7.32766">
        <ele>803.448826</ele>
        <time>2011-11-01T12:31:55Z</time>
      </trkpt>
      <trkpt lat="43.87504" lon="7.32768">
        <ele>804.448845</ele>
        <time>2011-11-01T12:32:00Z</time>
      </trkpt>
      <trkpt lat="43.8751" lon="7.32777">
        <ele>802.448868</ele>
        <time>2011-11-01T12:32:17Z</time>
      </trkpt>
      <trkpt lat="43.87507" lon="7.3279">
        <ele>805.448891</ele>
        <time>2011-11-01T12:32:37Z</time>
      </trkpt>
      <trkpt lat="43.87506" lon="7.32794">
        <ele>804.448895</ele>
        <time>2011-11-01T12:32:39Z</time>
      </trkpt>
      <trkpt lat="43.87501" lon="7.32814">
        <ele>806.448933</ele>
        <time>2011-11-01T12:32:48Z</time>
      </trkpt>
      <trkpt lat="43.87503" lon="7.32827">
        <ele>805.448959</ele>
        <time>2011-11-01T12:32:53Z</time>
      </trkpt>
      <trkpt lat="43.87507" lon="7.32841">
        <ele>805.448994</ele>
        <time>2011-11-01T12:32:57Z</time>
      </trkpt>
      <trkpt lat="43.87511" lon="7.32856">
        <ele>805.449032</ele>
        <time>2011-11-01T12:33:00Z</time>
      </trkpt>
      <trkpt lat="43.87515" lon="7.3287">
        <ele>806.449066</ele>
        <time>2011-11-01T12:33:03Z</time>
      </trkpt>
      <trkpt lat="43.87516" lon="7.32873">
        <ele>806.44907</ele>
        <time>2011-11-01T12:33:04Z</time>
      </trkpt>
      <trkpt lat="43.87523" lon="7.32895">
        <ele>804.449127</ele>
        <time>2011-11-01T12:33:13Z</time>
      </trkpt>
      <trkpt lat="43.87524" lon="7.32909">
        <ele>801.449158</ele>
        <time>2011-11-01T12:33:19Z</time>
      </trkpt>
      <trkpt lat="43.87525" lon="7.32913">
        <ele>801.449165</ele>
        <time>2011-11-01T12:33:21Z</time>
      </trkpt>
      <trkpt lat="43.87528" lon="7.32928">
        <ele>800.449203</ele>
        <time>2011-11-01T12:33:25Z</time>
      </trkpt>
      <trkpt lat="43.87531" lon="7.32942">
        <ele>800.449234</ele>
        <time>2011-11-01T12:33:29Z</time>
      </trkpt>
      <trkpt lat="43.87535" lon="7.32957">
        <ele>799.449265</ele>
        <time>2011-11-01T12:33:33Z</time>
      </trkpt>
      <trkpt lat="43.87539" lon="7.32971">
        <ele>798.449303</ele>
        <time>2011-11-01T12:33:38Z</time>
      </trkpt>
      <trkpt lat="43.87545" lon="7.32985">
        <ele>798.449341</ele>
        <time>2011-11-01T12:33:43Z</time>
      </trkpt>
      <trkpt lat="43.87552" lon="7.33001">
        <ele>794.449379</ele>
        <time>2011-11-01T12:33:50Z</time>
      </trkpt>
      <trkpt lat="43.87558" lon="7.33012">
        <ele>794.449413</ele>
        <time>2011-11-01T12:33:55Z</time>
      </trkpt>
      <trkpt lat="43.87565" lon="7.33034">
        <ele>796.449471</ele>
        <time>2011-11-01T12:34:06Z</time>
      </trkpt>
      <trkpt lat="43.87567" lon="7.33048">
        <ele>797.449501</ele>
        <time>2011-11-01T12:34:14Z</time>
      </trkpt>
      <trkpt lat="43.87567" lon="7.33048">
        <ele>797.449501</ele>
        <time>2011-11-01T12:34:15Z</time>
      </trkpt>
      <trkpt lat="43.87571" lon="7.33062">
        <ele>800.449532</ele>
        <time>2011-11-01T12:34:21Z</time>
      </trkpt>
      <trkpt lat="43.87579" lon="7.33078">
        <ele>805.449577</ele>
        <time>2011-11-01T12:34:31Z</time>
      </trkpt>
      <trkpt lat="43.87585" lon="7.33087">
        <ele>806.449608</ele>
        <time>2011-11-01T12:34:38Z</time>
      </trkpt>
      <trkpt lat="43.87595" lon="7.33089">
        <ele>808.449623</ele>
        <time>2011-11-01T12:34:47Z</time>
      </trkpt>
      <trkpt lat="43.87611" lon="7.33088">
        <ele>808.449642</ele>
        <time>2011-11-01T12:34:57Z</time>
      </trkpt>
      <trkpt lat="43.87621" lon="7.33089">
        <ele>809.449661</ele>
        <time>2011-11-01T12:35:03Z</time>
      </trkpt>
      <trkpt lat="43.8763" lon="7.33088">
        <ele>812.449665</ele>
        <time>2011-11-01T12:35:09Z</time>
      </trkpt>
      <trkpt lat="43.87638" lon="7.33081">
        <ele>813.449661</ele>
        <time>2011-11-01T12:35:16Z</time>
      </trkpt>
      <trkpt lat="43.87645" lon="7.33071">
        <ele>813.449654</ele>
        <time>2011-11-01T12:35:22Z</time>
      </trkpt>
      <trkpt lat="43.87648" lon="7.33067">
        <ele>814.449646</ele>
        <time>2011-11-01T12:35:27Z</time>
      </trkpt>
      <trkpt lat="43.87655" lon="7.33057">
        <ele>815.449638</ele>
        <time>2011-11-01T12:35:30Z</time>
      </trkpt>
      <trkpt lat="43.87663" lon="7.33044">
        <ele>817.449623</ele>
        <time>2011-11-01T12:35:43Z</time>
      </trkpt>
      <trkpt lat="43.87666" lon="7.33043">
        <ele>817.449623</ele>
        <time>2011-11-01T12:35:47Z</time>
      </trkpt>
      <trkpt lat="43.87681" lon="7.33044">
        <ele>819.449646</ele>
        <time>2011-11-01T12:36:00Z</time>
      </trkpt>
      <trkpt lat="43.87691" lon="7.33042">
        <ele>820.449654</ele>
        <time>2011-11-01T12:36:04Z</time>
      </trkpt>
      <trkpt lat="43.87698" lon="7.33042">
        <ele>822.449661</ele>
        <time>2011-11-01T12:36:09Z</time>
      </trkpt>
      <trkpt lat="43.87708" lon="7.33043">
        <ele>823.449677</ele>
        <time>2011-11-01T12:36:13Z</time>
      </trkpt>
      <trkpt lat="43.87717" lon="7.33041">
        <ele>825.449684</ele>
        <time>2011-11-01T12:36:18Z</time>
      </trkpt>
      <trkpt lat="43.87717" lon="7.33041">
        <ele>825.449684</ele>
        <time>2011-11-01T12:36:20Z</time>
      </trkpt>
      <trkpt lat="43.87726" lon="7.33036">
        <ele>828.449688</ele>
        <time>2011-11-01T12:36:24Z</time>
      </trkpt>
      <trkpt lat="43.87737" lon="7.33033">
        <ele>829.449692</ele>
        <time>2011-11-01T12:36:31Z</time>
      </trkpt>
      <trkpt lat="43.87746" lon="7.33027">
        <ele>829.449696</ele>
        <time>2011-11-01T12:36:37Z</time>
      </trkpt>
      <trkpt lat="43.87756" lon="7.33024">
        <ele>829.449703</ele>
        <time>2011-11-01T12:36:42Z</time>
      </trkpt>
      <trkpt lat="43.8776" lon="7.33022">
        <ele>829.449707</ele>
        <time>2011-11-01T12:36:44Z</time>
      </trkpt>
      <trkpt lat="43.8777" lon="7.33019">
        <ele>829.449715</ele>
        <time>2011-11-01T12:36:50Z</time>
      </trkpt>
      <trkpt lat="43.87779" lon="7.3301">
        <ele>830.449703</ele>
        <time>2011-11-01T12:36:55Z</time>
      </trkpt>
      <trkpt lat="43.87783" lon="7.33007">
        <ele>831.449707</ele>
        <time>2011-11-01T12:36:59Z</time>
      </trkpt>
      <trkpt lat="43.87792" lon="7.33002">
        <ele>831.449707</ele>
        <time>2011-11-01T12:37:02Z</time>
      </trkpt>
      <trkpt lat="43.87803" lon="7.32995">
        <ele>832.449707</ele>
        <time>2011-11-01T12:37:14Z</time>
      </trkpt>
      <trkpt lat="43.8781" lon="7.32997">
        <ele>832.449722</ele>
        <time>2011-11-01T12:37:20Z</time>
      </trkpt>
      <trkpt lat="43.8782" lon="7.33002">
        <ele>832.449741</ele>
        <time>2011-11-01T12:37:26Z</time>
      </trkpt>
      <trkpt lat="43.87829" lon="7.33006">
        <ele>833.44976</ele>
        <time>2011-11-01T12:37:31Z</time>
      </trkpt>
      <trkpt lat="43.87838" lon="7.33011">
        <ele>836.449787</ele>
        <time>2011-11-01T12:37:37Z</time>
      </trkpt>
      <trkpt lat="43.87848" lon="7.33018">
        <ele>839.449814</ele>
        <time>2011-11-01T12:37:43Z</time>
      </trkpt>
      <trkpt lat="43.87853" lon="7.3302">
        <ele>840.449829</ele>
        <time>2011-11-01T12:37:44Z</time>
      </trkpt>
      <trkpt lat="43.87865" lon="7.33028">
        <ele>842.44986</ele>
        <time>2011-11-01T12:37:47Z</time>
      </trkpt>
      <trkpt lat="43.87874" lon="7.33033">
        <ele>843.449875</ele>
        <time>2011-11-01T12:37:49Z</time>
      </trkpt>
      <trkpt lat="43.87883" lon="7.33038">
        <ele>844.449902</ele>
        <time>2011-11-01T12:37:51Z</time>
      </trkpt>
      <trkpt lat="43.87891" lon="7.33044">
        <ele>843.449921</ele>
        <time>2011-11-01T12:37:53Z</time>
      </trkpt>
      <trkpt lat="43.879" lon="7.33054">
        <ele>843.449955</ele>
        <time>2011-11-01T12:37:56Z</time>
      </trkpt>
      <trkpt lat="43.87907" lon="7.33063">
        <ele>842.449986</ele>
        <time>2011-11-01T12:37:59Z</time>
      </trkpt>
      <trkpt lat="43.87909" lon="7.33066">
        <ele>842.449997</ele>
        <time>2011-11-01T12:38:00Z</time>
      </trkpt>
      <trkpt lat="43.87915" lon="7.33077">
        <ele>841.450024</ele>
        <time>2011-11-01T12:38:04Z</time>
      </trkpt>
      <trkpt lat="43.87924" lon="7.33089">
        <ele>841.450062</ele>
        <time>2011-11-01T12:38:08Z</time>
      </trkpt>
      <trkpt lat="43.87927" lon="7.33092">
        <ele>841.450069</ele>
        <time>2011-11-01T12:38:09Z</time>
      </trkpt>
      <trkpt lat="43.87938" lon="7.33103">
        <ele>840.450108</ele>
        <time>2011-11-01T12:38:12Z</time>
      </trkpt>
      <trkpt lat="43.87943" lon="7.33106">
        <ele>840.450123</ele>
        <time>2011-11-01T12:38:13Z</time>
      </trkpt>
      <trkpt lat="43.87951" lon="7.33113">
        <ele>840.450146</ele>
        <time>2011-11-01T12:38:15Z</time>
      </trkpt>
      <trkpt lat="43.87961" lon="7.33121">
        <ele>840.450172</ele>
        <time>2011-11-01T12:38:17Z</time>
      </trkpt>
      <trkpt lat="43.87966" lon="7.33124">
        <ele>839.450188</ele>
        <time>2011-11-01T12:38:18Z</time>
      </trkpt>
      <trkpt lat="43.87977" lon="7.33129">
        <ele>839.450218</ele>
        <time>2011-11-01T12:38:20Z</time>
      </trkpt>
      <trkpt lat="43.87982" lon="7.33131">
        <ele>839.450226</ele>
        <time>2011-11-01T12:38:21Z</time>
      </trkpt>
      <trkpt lat="43.87994" lon="7.33135">
        <ele>839.450253</ele>
        <time>2011-11-01T12:38:24Z</time>
      </trkpt>
      <trkpt lat="43.88007" lon="7.33142">
        <ele>839.450279</ele>
        <time>2011-11-01T12:38:27Z</time>
      </trkpt>
      <trkpt lat="43.88015" lon="7.33147">
        <ele>838.450302</ele>
        <time>2011-11-01T12:38:29Z</time>
      </trkpt>
      <trkpt lat="43.88022" lon="7.33155">
        <ele>837.450325</ele>
        <time>2011-11-01T12:38:31Z</time>
      </trkpt>
      <trkpt lat="43.88029" lon="7.33162">
        <ele>837.450352</ele>
        <time>2011-11-01T12:38:33Z</time>
      </trkpt>
      <trkpt lat="43.88037" lon="7.33173">
        <ele>836.450386</ele>
        <time>2011-11-01T12:38:36Z</time>
      </trkpt>
      <trkpt lat="43.88039" lon="7.33176">
        <ele>836.450394</ele>
        <time>2011-11-01T12:38:37Z</time>
      </trkpt>
      <trkpt lat="43.88052" lon="7.33187">
        <ele>833.450432</ele>
        <time>2011-11-01T12:38:44Z</time>
      </trkpt>
      <trkpt lat="43.88063" lon="7.3319">
        <ele>833.450455</ele>
        <time>2011-11-01T12:38:49Z</time>
      </trkpt>
      <trkpt lat="43.88074" lon="7.33195">
        <ele>833.450485</ele>
        <time>2011-11-01T12:38:54Z</time>
      </trkpt>
      <trkpt lat="43.88083" lon="7.33202">
        <ele>834.450508</ele>
        <time>2011-11-01T12:38:59Z</time>
      </trkpt>
      <trkpt lat="43.88092" lon="7.33207">
        <ele>835.450527</ele>
        <time>2011-11-01T12:39:03Z</time>
      </trkpt>
      <trkpt lat="43.881" lon="7.33212">
        <ele>836.450546</ele>
        <time>2011-11-01T12:39:07Z</time>
      </trkpt>
      <trkpt lat="43.8811" lon="7.33219">
        <ele>836.450577</ele>
        <time>2011-11-01T12:39:11Z</time>
      </trkpt>
      <trkpt lat="43.88122" lon="7.33229">
        <ele>836.450611</ele>
        <time>2011-11-01T12:39:21Z</time>
      </trkpt>
      <trkpt lat="43.88124" lon="7.33242">
        <ele>832.450645</ele>
        <time>2011-11-01T12:39:42Z</time>
      </trkpt>
      <trkpt lat="43.88124" lon="7.33263">
        <ele>826.450684</ele>
        <time>2011-11-01T12:39:58Z</time>
      </trkpt>
      <trkpt lat="43.8812" lon="7.33278">
        <ele>826.450714</ele>
        <time>2011-11-01T12:40:01Z</time>
      </trkpt>
      <trkpt lat="43.88113" lon="7.33295">
        <ele>827.450737</ele>
        <time>2011-11-01T12:40:03Z</time>
      </trkpt>
      <trkpt lat="43.88104" lon="7.33316">
        <ele>827.450768</ele>
        <time>2011-11-01T12:40:05Z</time>
      </trkpt>
      <trkpt lat="43.88099" lon="7.33326">
        <ele>827.450783</ele>
        <time>2011-11-01T12:40:06Z</time>
      </trkpt>
      <trkpt lat="43.88093" lon="7.33337">
        <ele>826.450802</ele>
        <time>2011-11-01T12:40:07Z</time>
      </trkpt>
      <trkpt lat="43.88087" lon="7.33348">
        <ele>826.450813</ele>
        <time>2011-11-01T12:40:08Z</time>
      </trkpt>
      <trkpt lat="43.88081" lon="7.33358">
        <ele>826.450825</ele>
        <time>2011-11-01T12:40:09Z</time>
      </trkpt>
      <trkpt lat="43.88076" lon="7.33369">
        <ele>825.450844</ele>
        <time>2011-11-01T12:40:10Z</time>
      </trkpt>
      <trkpt lat="43.88072" lon="7.3338">
        <ele>825.450859</ele>
        <time>2011-11-01T12:40:11Z</time>
      </trkpt>
      <trkpt lat="43.88063" lon="7.33399">
        <ele>824.450882</ele>
        <time>2011-11-01T12:40:13Z</time>
      </trkpt>
      <trkpt lat="43.88056" lon="7.33418">
        <ele>821.450916</ele>
        <time>2011-11-01T12:40:15Z</time>
      </trkpt>
      <trkpt lat="43.88052" lon="7.33435">
        <ele>819.450943</ele>
        <time>2011-11-01T12:40:17Z</time>
      </trkpt>
      <trkpt lat="43.8805" lon="7.33449">
        <ele>817.450974</ele>
        <time>2011-11-01T12:40:19Z</time>
      </trkpt>
      <trkpt lat="43.88048" lon="7.33461">
        <ele>815.450996</ele>
        <time>2011-11-01T12:40:21Z</time>
      </trkpt>
      <trkpt lat="43.88044" lon="7.33477">
        <ele>812.451019</ele>
        <time>2011-11-01T12:40:24Z</time>
      </trkpt>
      <trkpt lat="43.88041" lon="7.33492">
        <ele>811.45105</ele>
        <time>2011-11-01T12:40:27Z</time>
      </trkpt>
      <trkpt lat="43.88038" lon="7.33507">
        <ele>810.451073</ele>
        <time>2011-11-01T12:40:30Z</time>
      </trkpt>
      <trkpt lat="43.88035" lon="7.33521">
        <ele>810.451099</ele>
        <time>2011-11-01T12:40:33Z</time>
      </trkpt>
      <trkpt lat="43.8803" lon="7.33535">
        <ele>809.451118</ele>
        <time>2011-11-01T12:40:36Z</time>
      </trkpt>
      <trkpt lat="43.88023" lon="7.33548">
        <ele>808.451138</ele>
        <time>2011-11-01T12:40:39Z</time>
      </trkpt>
      <trkpt lat="43.8802" lon="7.33552">
        <ele>808.451149</ele>
        <time>2011-11-01T12:40:40Z</time>
      </trkpt>
      <trkpt lat="43.88011" lon="7.33564">
        <ele>807.451157</ele>
        <time>2011-11-01T12:40:43Z</time>
      </trkpt>
      <trkpt lat="43.88008" lon="7.33568">
        <ele>806.45116</ele>
        <time>2011-11-01T12:40:44Z</time>
      </trkpt>
      <trkpt lat="43.88" lon="7.33575">
        <ele>806.451168</ele>
        <time>2011-11-01T12:40:46Z</time>
      </trkpt>
      <trkpt lat="43.87992" lon="7.33583">
        <ele>805.451172</ele>
        <time>2011-11-01T12:40:48Z</time>
      </trkpt>
      <trkpt lat="43.87983" lon="7.33591">
        <ele>804.45118</ele>
        <time>2011-11-01T12:40:50Z</time>
      </trkpt>
      <trkpt lat="43.87973" lon="7.33599">
        <ele>803.451176</ele>
        <time>2011-11-01T12:40:52Z</time>
      </trkpt>
      <trkpt lat="43.87962" lon="7.33609">
        <ele>802.45118</ele>
        <time>2011-11-01T12:40:54Z</time>
      </trkpt>
      <trkpt lat="43.87952" lon="7.33621">
        <ele>803.451195</ele>
        <time>2011-11-01T12:40:56Z</time>
      </trkpt>
      <trkpt lat="43.87941" lon="7.33633">
        <ele>803.451202</ele>
        <time>2011-11-01T12:40:58Z</time>
      </trkpt>
      <trkpt lat="43.8793" lon="7.33646">
        <ele>804.451218</ele>
        <time>2011-11-01T12:41:00Z</time>
      </trkpt>
      <trkpt lat="43.8792" lon="7.33658">
        <ele>804.451225</ele>
        <time>2011-11-01T12:41:02Z</time>
      </trkpt>
      <trkpt lat="43.87911" lon="7.33667">
        <ele>804.451233</ele>
        <time>2011-11-01T12:41:04Z</time>
      </trkpt>
      <trkpt lat="43.87929" lon="7.33664">
        <ele>804.451252</ele>
        <time>2011-11-01T12:41:27Z</time>
      </trkpt>
      <trkpt lat="43.87945" lon="7.33659">
        <ele>807.451263</ele>
        <time>2011-11-01T12:41:43Z</time>
      </trkpt>
      <trkpt lat="43.87953" lon="7.33649">
        <ele>807.451256</ele>
        <time>2011-11-01T12:41:52Z</time>
      </trkpt>
      <trkpt lat="43.87962" lon="7.3364">
        <ele>809.451248</ele>
        <time>2011-11-01T12:41:58Z</time>
      </trkpt>
      <trkpt lat="43.8797" lon="7.33631">
        <ele>809.451241</ele>
        <time>2011-11-01T12:42:03Z</time>
      </trkpt>
      <trkpt lat="43.87979" lon="7.33622">
        <ele>810.451233</ele>
        <time>2011-11-01T12:42:08Z</time>
      </trkpt>
      <trkpt lat="43.87987" lon="7.33613">
        <ele>811.451229</ele>
        <time>2011-11-01T12:42:13Z</time>
      </trkpt>
      <trkpt lat="43.87995" lon="7.33604">
        <ele>813.451218</ele>
        <time>2011-11-01T12:42:18Z</time>
      </trkpt>
      <trkpt lat="43.88002" lon="7.33594">
        <ele>814.451202</ele>
        <time>2011-11-01T12:42:23Z</time>
      </trkpt>
      <trkpt lat="43.88011" lon="7.33584">
        <ele>815.451195</ele>
        <time>2011-11-01T12:42:28Z</time>
      </trkpt>
      <trkpt lat="43.88018" lon="7.33576">
        <ele>816.451187</ele>
        <time>2011-11-01T12:42:33Z</time>
      </trkpt>
      <trkpt lat="43.88026" lon="7.33567">
        <ele>816.45118</ele>
        <time>2011-11-01T12:42:38Z</time>
      </trkpt>
      <trkpt lat="43.88034" lon="7.33557">
        <ele>817.451172</ele>
        <time>2011-11-01T12:42:44Z</time>
      </trkpt>
      <trkpt lat="43.88042" lon="7.33548">
        <ele>819.451168</ele>
        <time>2011-11-01T12:42:51Z</time>
      </trkpt>
      <trkpt lat="43.88051" lon="7.33542">
        <ele>819.451164</ele>
        <time>2011-11-01T12:42:57Z</time>
      </trkpt>
      <trkpt lat="43.8806" lon="7.33534">
        <ele>820.451157</ele>
        <time>2011-11-01T12:43:03Z</time>
      </trkpt>
      <trkpt lat="43.88069" lon="7.33529">
        <ele>820.451157</ele>
        <time>2011-11-01T12:43:09Z</time>
      </trkpt>
      <trkpt lat="43.88077" lon="7.3352">
        <ele>823.451157</ele>
        <time>2011-11-01T12:43:17Z</time>
      </trkpt>
      <trkpt lat="43.88083" lon="7.3351">
        <ele>825.451141</ele>
        <time>2011-11-01T12:43:24Z</time>
      </trkpt>
      <trkpt lat="43.88089" lon="7.33499">
        <ele>826.451126</ele>
        <time>2011-11-01T12:43:30Z</time>
      </trkpt>
      <trkpt lat="43.88096" lon="7.33489">
        <ele>827.451118</ele>
        <time>2011-11-01T12:43:35Z</time>
      </trkpt>
      <trkpt lat="43.88104" lon="7.33479">
        <ele>828.451103</ele>
        <time>2011-11-01T12:43:41Z</time>
      </trkpt>
      <trkpt lat="43.88111" lon="7.33469">
        <ele>829.451096</ele>
        <time>2011-11-01T12:43:47Z</time>
      </trkpt>
      <trkpt lat="43.88118" lon="7.3346">
        <ele>829.45108</ele>
        <time>2011-11-01T12:43:53Z</time>
      </trkpt>
      <trkpt lat="43.88125" lon="7.33451">
        <ele>831.451077</ele>
        <time>2011-11-01T12:43:59Z</time>
      </trkpt>
      <trkpt lat="43.88132" lon="7.3344">
        <ele>833.451065</ele>
        <time>2011-11-01T12:44:06Z</time>
      </trkpt>
      <trkpt lat="43.88137" lon="7.33427">
        <ele>833.451042</ele>
        <time>2011-11-01T12:44:12Z</time>
      </trkpt>
      <trkpt lat="43.88144" lon="7.33409">
        <ele>836.451019</ele>
        <time>2011-11-01T12:44:21Z</time>
      </trkpt>
      <trkpt lat="43.88148" lon="7.33396">
        <ele>837.450996</ele>
        <time>2011-11-01T12:44:28Z</time>
      </trkpt>
      <trkpt lat="43.88153" lon="7.33386">
        <ele>837.450977</ele>
        <time>2011-11-01T12:44:35Z</time>
      </trkpt>
      <trkpt lat="43.88163" lon="7.33372">
        <ele>837.450966</ele>
        <time>2011-11-01T12:44:47Z</time>
      </trkpt>
      <trkpt lat="43.8817" lon="7.33363">
        <ele>836.450954</ele>
        <time>2011-11-01T12:44:55Z</time>
      </trkpt>
      <trkpt lat="43.88176" lon="7.33352">
        <ele>838.450943</ele>
        <time>2011-11-01T12:45:03Z</time>
      </trkpt>
      <trkpt lat="43.88184" lon="7.33334">
        <ele>839.450912</ele>
        <time>2011-11-01T12:45:16Z</time>
      </trkpt>
      <trkpt lat="43.88188" lon="7.33322">
        <ele>842.450893</ele>
        <time>2011-11-01T12:45:27Z</time>
      </trkpt>
      <trkpt lat="43.88194" lon="7.33312">
        <ele>842.450882</ele>
        <time>2011-11-01T12:45:37Z</time>
      </trkpt>
      <trkpt lat="43.88204" lon="7.33308">
        <ele>846.450882</ele>
        <time>2011-11-01T12:45:49Z</time>
      </trkpt>
      <trkpt lat="43.88214" lon="7.33309">
        <ele>848.450897</ele>
        <time>2011-11-01T12:45:59Z</time>
      </trkpt>
      <trkpt lat="43.88224" lon="7.33305">
        <ele>848.450909</ele>
        <time>2011-11-01T12:46:06Z</time>
      </trkpt>
      <trkpt lat="43.88224" lon="7.33305">
        <ele>848.450909</ele>
        <time>2011-11-01T12:46:07Z</time>
      </trkpt>
      <trkpt lat="43.88233" lon="7.33302">
        <ele>851.450912</ele>
        <time>2011-11-01T12:46:13Z</time>
      </trkpt>
      <trkpt lat="43.88243" lon="7.33301">
        <ele>853.450928</ele>
        <time>2011-11-01T12:46:20Z</time>
      </trkpt>
      <trkpt lat="43.88253" lon="7.33301">
        <ele>855.450935</ele>
        <time>2011-11-01T12:46:27Z</time>
      </trkpt>
      <trkpt lat="43.88262" lon="7.33301">
        <ele>857.450951</ele>
        <time>2011-11-01T12:46:34Z</time>
      </trkpt>
      <trkpt lat="43.88274" lon="7.33301">
        <ele>858.450966</ele>
        <time>2011-11-01T12:46:45Z</time>
      </trkpt>
      <trkpt lat="43.88283" lon="7.33298">
        <ele>861.450974</ele>
        <time>2011-11-01T12:46:56Z</time>
      </trkpt>
      <trkpt lat="43.88284" lon="7.33298">
        <ele>861.450974</ele>
        <time>2011-11-01T12:46:57Z</time>
      </trkpt>
      <trkpt lat="43.88294" lon="7.33293">
        <ele>860.450981</ele>
        <time>2011-11-01T12:47:05Z</time>
      </trkpt>
      <trkpt lat="43.88303" lon="7.33289">
        <ele>860.450981</ele>
        <time>2011-11-01T12:47:11Z</time>
      </trkpt>
      <trkpt lat="43.88312" lon="7.33284">
        <ele>860.450981</ele>
        <time>2011-11-01T12:47:18Z</time>
      </trkpt>
      <trkpt lat="43.8832" lon="7.33279">
        <ele>862.450981</ele>
        <time>2011-11-01T12:47:26Z</time>
      </trkpt>
      <trkpt lat="43.88329" lon="7.33274">
        <ele>862.450981</ele>
        <time>2011-11-01T12:47:35Z</time>
      </trkpt>
      <trkpt lat="43.88338" lon="7.33268">
        <ele>862.450981</ele>
        <time>2011-11-01T12:47:43Z</time>
      </trkpt>
      <trkpt lat="43.88348" lon="7.33266">
        <ele>862.450989</ele>
        <time>2011-11-01T12:47:51Z</time>
      </trkpt>
      <trkpt lat="43.88357" lon="7.33265">
        <ele>862.451004</ele>
        <time>2011-11-01T12:47:59Z</time>
      </trkpt>
      <trkpt lat="43.8836" lon="7.33263">
        <ele>863.451004</ele>
        <time>2011-11-01T12:48:02Z</time>
      </trkpt>
      <trkpt lat="43.88352" lon="7.33255">
        <ele>863.450974</ele>
        <time>2011-11-01T12:48:13Z</time>
      </trkpt>
      <trkpt lat="43.88343" lon="7.33257">
        <ele>864.450966</ele>
        <time>2011-11-01T12:48:17Z</time>
      </trkpt>
      <trkpt lat="43.88331" lon="7.33259">
        <ele>864.450958</ele>
        <time>2011-11-01T12:48:22Z</time>
      </trkpt>
      <trkpt lat="43.88322" lon="7.33259">
        <ele>865.450943</ele>
        <time>2011-11-01T12:48:26Z</time>
      </trkpt>
      <trkpt lat="43.88312" lon="7.33257">
        <ele>865.450928</ele>
        <time>2011-11-01T12:48:30Z</time>
      </trkpt>
      <trkpt lat="43.88298" lon="7.3325">
        <ele>870.45089</ele>
        <time>2011-11-01T12:48:40Z</time>
      </trkpt>
      <trkpt lat="43.88292" lon="7.3324">
        <ele>872.450867</ele>
        <time>2011-11-01T12:48:47Z</time>
      </trkpt>
      <trkpt lat="43.8829" lon="7.33235">
        <ele>872.450851</ele>
        <time>2011-11-01T12:48:50Z</time>
      </trkpt>
      <trkpt lat="43.88286" lon="7.33223">
        <ele>874.450821</ele>
        <time>2011-11-01T12:48:59Z</time>
      </trkpt>
      <trkpt lat="43.88286" lon="7.3321">
        <ele>876.450794</ele>
        <time>2011-11-01T12:49:07Z</time>
      </trkpt>
      <trkpt lat="43.88287" lon="7.33197">
        <ele>877.450771</ele>
        <time>2011-11-01T12:49:14Z</time>
      </trkpt>
      <trkpt lat="43.8829" lon="7.33185">
        <ele>877.450745</ele>
        <time>2011-11-01T12:49:22Z</time>
      </trkpt>
      <trkpt lat="43.88293" lon="7.33172">
        <ele>878.450722</ele>
        <time>2011-11-01T12:49:30Z</time>
      </trkpt>
      <trkpt lat="43.88297" lon="7.33161">
        <ele>880.450706</ele>
        <time>2011-11-01T12:49:37Z</time>
      </trkpt>
      <trkpt lat="43.88301" lon="7.33149">
        <ele>881.450684</ele>
        <time>2011-11-01T12:49:44Z</time>
      </trkpt>
      <trkpt lat="43.88304" lon="7.33136">
        <ele>882.450665</ele>
        <time>2011-11-01T12:49:51Z</time>
      </trkpt>
      <trkpt lat="43.88309" lon="7.33125">
        <ele>882.450653</ele>
        <time>2011-11-01T12:50:03Z</time>
      </trkpt>
      <trkpt lat="43.88309" lon="7.33125">
        <ele>882.450653</ele>
        <time>2011-11-01T12:50:04Z</time>
      </trkpt>
      <trkpt lat="43.8831" lon="7.3314">
        <ele>890.450684</ele>
        <time>2011-11-01T12:50:22Z</time>
      </trkpt>
      <trkpt lat="43.88311" lon="7.33144">
        <ele>890.450691</ele>
        <time>2011-11-01T12:50:24Z</time>
      </trkpt>
      <trkpt lat="43.88319" lon="7.33162">
        <ele>893.450737</ele>
        <time>2011-11-01T12:50:33Z</time>
      </trkpt>
      <trkpt lat="43.88325" lon="7.33173">
        <ele>897.450768</ele>
        <time>2011-11-01T12:50:39Z</time>
      </trkpt>
      <trkpt lat="43.88336" lon="7.33182">
        <ele>899.450806</ele>
        <time>2011-11-01T12:50:48Z</time>
      </trkpt>
      <trkpt lat="43.88345" lon="7.33185">
        <ele>898.450821</ele>
        <time>2011-11-01T12:50:55Z</time>
      </trkpt>
      <trkpt lat="43.88354" lon="7.33181">
        <ele>899.450829</ele>
        <time>2011-11-01T12:51:03Z</time>
      </trkpt>
      <trkpt lat="43.88365" lon="7.3317">
        <ele>898.450813</ele>
        <time>2011-11-01T12:51:13Z</time>
      </trkpt>
      <trkpt lat="43.88373" lon="7.33163">
        <ele>900.450809</ele>
        <time>2011-11-01T12:51:22Z</time>
      </trkpt>
      <trkpt lat="43.88385" lon="7.33158">
        <ele>902.450821</ele>
        <time>2011-11-01T12:51:39Z</time>
      </trkpt>
      <trkpt lat="43.88386" lon="7.33158">
        <ele>903.450821</ele>
        <time>2011-11-01T12:51:40Z</time>
      </trkpt>
      <trkpt lat="43.88394" lon="7.33142">
        <ele>905.450794</ele>
        <time>2011-11-01T12:51:54Z</time>
      </trkpt>
      <trkpt lat="43.88385" lon="7.33133">
        <ele>905.450768</ele>
        <time>2011-11-01T12:52:04Z</time>
      </trkpt>
      <trkpt lat="43.88384" lon="7.33132">
        <ele>905.45076</ele>
        <time>2011-11-01T12:52:05Z</time>
      </trkpt>
      <trkpt lat="43.88378" lon="7.3312">
        <ele>908.450729</ele>
        <time>2011-11-01T12:52:14Z</time>
      </trkpt>
      <trkpt lat="43.88375" lon="7.33105">
        <ele>910.450699</ele>
        <time>2011-11-01T12:52:23Z</time>
      </trkpt>
      <trkpt lat="43.88374" lon="7.3309">
        <ele>911.450665</ele>
        <time>2011-11-01T12:52:32Z</time>
      </trkpt>
      <trkpt lat="43.88377" lon="7.33077">
        <ele>913.450642</ele>
        <time>2011-11-01T12:52:40Z</time>
      </trkpt>
      <trkpt lat="43.88386" lon="7.33078">
        <ele>913.450653</ele>
        <time>2011-11-01T12:52:51Z</time>
      </trkpt>
      <trkpt lat="43.88391" lon="7.3309">
        <ele>915.450687</ele>
        <time>2011-11-01T12:53:00Z</time>
      </trkpt>
      <trkpt lat="43.88393" lon="7.33092">
        <ele>917.450691</ele>
        <time>2011-11-01T12:53:02Z</time>
      </trkpt>
      <trkpt lat="43.88397" lon="7.3308">
        <ele>922.450676</ele>
        <time>2011-11-01T12:53:20Z</time>
      </trkpt>
      <trkpt lat="43.88397" lon="7.33079">
        <ele>922.450668</ele>
        <time>2011-11-01T12:53:21Z</time>
      </trkpt>
      <trkpt lat="43.88399" lon="7.33066">
        <ele>923.450653</ele>
        <time>2011-11-01T12:53:29Z</time>
      </trkpt>
      <trkpt lat="43.88401" lon="7.33061">
        <ele>922.450642</ele>
        <time>2011-11-01T12:53:32Z</time>
      </trkpt>
      <trkpt lat="43.88405" lon="7.3305">
        <ele>922.450623</ele>
        <time>2011-11-01T12:53:39Z</time>
      </trkpt>
      <trkpt lat="43.88407" lon="7.33036">
        <ele>923.4506</ele>
        <time>2011-11-01T12:53:47Z</time>
      </trkpt>
      <trkpt lat="43.88404" lon="7.33023">
        <ele>924.450565</ele>
        <time>2011-11-01T12:53:59Z</time>
      </trkpt>
      <trkpt lat="43.88395" lon="7.33021">
        <ele>926.45055</ele>
        <time>2011-11-01T12:54:05Z</time>
      </trkpt>
      <trkpt lat="43.88386" lon="7.33019">
        <ele>927.450535</ele>
        <time>2011-11-01T12:54:11Z</time>
      </trkpt>
      <trkpt lat="43.88377" lon="7.33014">
        <ele>926.450508</ele>
        <time>2011-11-01T12:54:20Z</time>
      </trkpt>
      <trkpt lat="43.88385" lon="7.33004">
        <ele>930.4505</ele>
        <time>2011-11-01T12:54:40Z</time>
      </trkpt>
      <trkpt lat="43.88399" lon="7.33">
        <ele>930.450512</ele>
        <time>2011-11-01T12:54:51Z</time>
      </trkpt>
      <trkpt lat="43.88415" lon="7.32991">
        <ele>931.450516</ele>
        <time>2011-11-01T12:55:07Z</time>
      </trkpt>
      <trkpt lat="43.88424" lon="7.32981">
        <ele>930.450508</ele>
        <time>2011-11-01T12:55:18Z</time>
      </trkpt>
      <trkpt lat="43.88425" lon="7.3298">
        <ele>930.450508</ele>
        <time>2011-11-01T12:55:19Z</time>
      </trkpt>
      <trkpt lat="43.88432" lon="7.32971">
        <ele>930.450497</ele>
        <time>2011-11-01T12:55:27Z</time>
      </trkpt>
      <trkpt lat="43.88439" lon="7.32961">
        <ele>931.450485</ele>
        <time>2011-11-01T12:55:36Z</time>
      </trkpt>
      <trkpt lat="43.88447" lon="7.32951">
        <ele>931.450478</ele>
        <time>2011-11-01T12:55:44Z</time>
      </trkpt>
      <trkpt lat="43.88454" lon="7.32942">
        <ele>933.450462</ele>
        <time>2011-11-01T12:55:51Z</time>
      </trkpt>
      <trkpt lat="43.88462" lon="7.32934">
        <ele>934.450462</ele>
        <time>2011-11-01T12:55:58Z</time>
      </trkpt>
      <trkpt lat="43.88473" lon="7.32928">
        <ele>936.450462</ele>
        <time>2011-11-01T12:56:08Z</time>
      </trkpt>
      <trkpt lat="43.88487" lon="7.3293">
        <ele>936.450485</ele>
        <time>2011-11-01T12:56:19Z</time>
      </trkpt>
      <trkpt lat="43.88497" lon="7.32941">
        <ele>935.450523</ele>
        <time>2011-11-01T12:56:34Z</time>
      </trkpt>
      <trkpt lat="43.88505" lon="7.32949">
        <ele>936.450546</ele>
        <time>2011-11-01T12:56:47Z</time>
      </trkpt>
      <trkpt lat="43.88505" lon="7.3295">
        <ele>936.450554</ele>
        <time>2011-11-01T12:56:48Z</time>
      </trkpt>
      <trkpt lat="43.88513" lon="7.32967">
        <ele>938.4506</ele>
        <time>2011-11-01T12:57:07Z</time>
      </trkpt>
      <trkpt lat="43.8852" lon="7.32976">
        <ele>941.45063</ele>
        <time>2011-11-01T12:57:13Z</time>
      </trkpt>
      <trkpt lat="43.88526" lon="7.32985">
        <ele>943.450649</ele>
        <time>2011-11-01T12:57:18Z</time>
      </trkpt>
      <trkpt lat="43.88534" lon="7.32994">
        <ele>947.450684</ele>
        <time>2011-11-01T12:57:24Z</time>
      </trkpt>
      <trkpt lat="43.88543" lon="7.33001">
        <ele>948.450706</ele>
        <time>2011-11-01T12:57:31Z</time>
      </trkpt>
      <trkpt lat="43.88553" lon="7.33009">
        <ele>950.450737</ele>
        <time>2011-11-01T12:57:40Z</time>
      </trkpt>
      <trkpt lat="43.88553" lon="7.3301">
        <ele>950.450737</ele>
        <time>2011-11-01T12:57:41Z</time>
      </trkpt>
      <trkpt lat="43.8856" lon="7.3302">
        <ele>950.450768</ele>
        <time>2011-11-01T12:57:49Z</time>
      </trkpt>
      <trkpt lat="43.88566" lon="7.33029">
        <ele>955.450798</ele>
        <time>2011-11-01T12:57:56Z</time>
      </trkpt>
      <trkpt lat="43.88567" lon="7.33031">
        <ele>956.450798</ele>
        <time>2011-11-01T12:57:57Z</time>
      </trkpt>
      <trkpt lat="43.88577" lon="7.33039">
        <ele>957.450829</ele>
        <time>2011-11-01T12:58:04Z</time>
      </trkpt>
      <trkpt lat="43.88586" lon="7.33044">
        <ele>958.450851</ele>
        <time>2011-11-01T12:58:10Z</time>
      </trkpt>
      <trkpt lat="43.88596" lon="7.33047">
        <ele>959.450874</ele>
        <time>2011-11-01T12:58:16Z</time>
      </trkpt>
      <trkpt lat="43.8861" lon="7.33055">
        <ele>961.450905</ele>
        <time>2011-11-01T13:00:03Z</time>
      </trkpt>
      <trkpt lat="43.8862" lon="7.33059">
        <ele>962.450928</ele>
        <time>2011-11-01T13:00:09Z</time>
      </trkpt>
      <trkpt lat="43.8863" lon="7.3306">
        <ele>963.450943</ele>
        <time>2011-11-01T13:00:15Z</time>
      </trkpt>
      <trkpt lat="43.88644" lon="7.33059">
        <ele>963.450958</ele>
        <time>2011-11-01T13:00:23Z</time>
      </trkpt>
      <trkpt lat="43.88654" lon="7.33049">
        <ele>961.450954</ele>
        <time>2011-11-01T13:00:34Z</time>
      </trkpt>
      <trkpt lat="43.88646" lon="7.33043">
        <ele>961.450935</ele>
        <time>2011-11-01T13:00:39Z</time>
      </trkpt>
      <trkpt lat="43.88637" lon="7.33039">
        <ele>961.450912</ele>
        <time>2011-11-01T13:00:42Z</time>
      </trkpt>
      <trkpt lat="43.88632" lon="7.33037">
        <ele>961.450905</ele>
        <time>2011-11-01T13:00:44Z</time>
      </trkpt>
      <trkpt lat="43.88624" lon="7.33034">
        <ele>962.450882</ele>
        <time>2011-11-01T13:00:49Z</time>
      </trkpt>
      <trkpt lat="43.88615" lon="7.33027">
        <ele>962.450851</ele>
        <time>2011-11-01T13:00:55Z</time>
      </trkpt>
      <trkpt lat="43.88608" lon="7.3302">
        <ele>963.450832</ele>
        <time>2011-11-01T13:01:02Z</time>
      </trkpt>
      <trkpt lat="43.88601" lon="7.33009">
        <ele>965.450798</ele>
        <time>2011-11-01T13:01:14Z</time>
      </trkpt>
      <trkpt lat="43.88591" lon="7.32993">
        <ele>969.450752</ele>
        <time>2011-11-01T13:01:27Z</time>
      </trkpt>
      <trkpt lat="43.88586" lon="7.32981">
        <ele>969.450722</ele>
        <time>2011-11-01T13:01:36Z</time>
      </trkpt>
      <trkpt lat="43.88581" lon="7.3297">
        <ele>970.450691</ele>
        <time>2011-11-01T13:01:44Z</time>
      </trkpt>
      <trkpt lat="43.88576" lon="7.32959">
        <ele>972.450665</ele>
        <time>2011-11-01T13:01:50Z</time>
      </trkpt>
      <trkpt lat="43.88569" lon="7.3294">
        <ele>975.450615</ele>
        <time>2011-11-01T13:01:58Z</time>
      </trkpt>
      <trkpt lat="43.88576" lon="7.32948">
        <ele>978.450642</ele>
        <time>2011-11-01T13:02:21Z</time>
      </trkpt>
      <trkpt lat="43.88579" lon="7.3296">
        <ele>986.450672</ele>
        <time>2011-11-01T13:04:40Z</time>
      </trkpt>
      <trkpt lat="43.88587" lon="7.32968">
        <ele>986.450699</ele>
        <time>2011-11-01T13:04:45Z</time>
      </trkpt>
      <trkpt lat="43.88596" lon="7.32976">
        <ele>987.450729</ele>
        <time>2011-11-01T13:04:50Z</time>
      </trkpt>
      <trkpt lat="43.88605" lon="7.32983">
        <ele>987.450752</ele>
        <time>2011-11-01T13:04:55Z</time>
      </trkpt>
      <trkpt lat="43.88614" lon="7.32987">
        <ele>987.450771</ele>
        <time>2011-11-01T13:05:00Z</time>
      </trkpt>
      <trkpt lat="43.88624" lon="7.32992">
        <ele>986.450798</ele>
        <time>2011-11-01T13:05:05Z</time>
      </trkpt>
      <trkpt lat="43.88635" lon="7.32997">
        <ele>987.450821</ele>
        <time>2011-11-01T13:05:11Z</time>
      </trkpt>
      <trkpt lat="43.88644" lon="7.33001">
        <ele>987.45084</ele>
        <time>2011-11-01T13:05:16Z</time>
      </trkpt>
      <trkpt lat="43.88655" lon="7.33003">
        <ele>988.450859</ele>
        <time>2011-11-01T13:05:21Z</time>
      </trkpt>
      <trkpt lat="43.88665" lon="7.33005">
        <ele>990.450882</ele>
        <time>2011-11-01T13:05:26Z</time>
      </trkpt>
      <trkpt lat="43.88676" lon="7.33007">
        <ele>991.450897</ele>
        <time>2011-11-01T13:05:31Z</time>
      </trkpt>
      <trkpt lat="43.88685" lon="7.33008">
        <ele>991.450909</ele>
        <time>2011-11-01T13:05:35Z</time>
      </trkpt>
      <trkpt lat="43.88695" lon="7.33009">
        <ele>991.450924</ele>
        <time>2011-11-01T13:05:39Z</time>
      </trkpt>
      <trkpt lat="43.88705" lon="7.33011">
        <ele>991.450943</ele>
        <time>2011-11-01T13:05:43Z</time>
      </trkpt>
      <trkpt lat="43.88716" lon="7.33012">
        <ele>991.450958</ele>
        <time>2011-11-01T13:05:47Z</time>
      </trkpt>
      <trkpt lat="43.88726" lon="7.33014">
        <ele>992.450977</ele>
        <time>2011-11-01T13:05:51Z</time>
      </trkpt>
      <trkpt lat="43.88738" lon="7.33015">
        <ele>992.450996</ele>
        <time>2011-11-01T13:05:55Z</time>
      </trkpt>
      <trkpt lat="43.88749" lon="7.33015">
        <ele>993.451012</ele>
        <time>2011-11-01T13:05:59Z</time>
      </trkpt>
      <trkpt lat="43.8876" lon="7.33017">
        <ele>993.451031</ele>
        <time>2011-11-01T13:06:03Z</time>
      </trkpt>
      <trkpt lat="43.88772" lon="7.33017">
        <ele>995.451042</ele>
        <time>2011-11-01T13:06:07Z</time>
      </trkpt>
      <trkpt lat="43.88781" lon="7.33018">
        <ele>996.451057</ele>
        <time>2011-11-01T13:06:10Z</time>
      </trkpt>
      <trkpt lat="43.88787" lon="7.33018">
        <ele>996.451069</ele>
        <time>2011-11-01T13:06:12Z</time>
      </trkpt>
      <trkpt lat="43.88797" lon="7.33018">
        <ele>997.45108</ele>
        <time>2011-11-01T13:06:15Z</time>
      </trkpt>
      <trkpt lat="43.88806" lon="7.33018">
        <ele>997.451092</ele>
        <time>2011-11-01T13:06:18Z</time>
      </trkpt>
      <trkpt lat="43.88815" lon="7.33017">
        <ele>996.451103</ele>
        <time>2011-11-01T13:06:21Z</time>
      </trkpt>
      <trkpt lat="43.88824" lon="7.33018">
        <ele>996.451118</ele>
        <time>2011-11-01T13:06:24Z</time>
      </trkpt>
      <trkpt lat="43.88835" lon="7.3302">
        <ele>995.451138</ele>
        <time>2011-11-01T13:06:28Z</time>
      </trkpt>
      <trkpt lat="43.88846" lon="7.33024">
        <ele>995.451157</ele>
        <time>2011-11-01T13:06:32Z</time>
      </trkpt>
      <trkpt lat="43.88855" lon="7.33028">
        <ele>995.45118</ele>
        <time>2011-11-01T13:06:36Z</time>
      </trkpt>
      <trkpt lat="43.88864" lon="7.33032">
        <ele>997.451202</ele>
        <time>2011-11-01T13:06:40Z</time>
      </trkpt>
      <trkpt lat="43.88873" lon="7.33037">
        <ele>997.451218</ele>
        <time>2011-11-01T13:06:44Z</time>
      </trkpt>
      <trkpt lat="43.88882" lon="7.33043">
        <ele>997.451248</ele>
        <time>2011-11-01T13:06:48Z</time>
      </trkpt>
      <trkpt lat="43.88891" lon="7.33051">
        <ele>997.451275</ele>
        <time>2011-11-01T13:06:52Z</time>
      </trkpt>
      <trkpt lat="43.88899" lon="7.33063">
        <ele>998.451309</ele>
        <time>2011-11-01T13:06:56Z</time>
      </trkpt>
      <trkpt lat="43.88906" lon="7.33074">
        <ele>998.451344</ele>
        <time>2011-11-01T13:07:00Z</time>
      </trkpt>
      <trkpt lat="43.88912" lon="7.33084">
        <ele>999.45137</ele>
        <time>2011-11-01T13:07:03Z</time>
      </trkpt>
      <trkpt lat="43.88919" lon="7.33096">
        <ele>999.451405</ele>
        <time>2011-11-01T13:07:07Z</time>
      </trkpt>
      <trkpt lat="43.88926" lon="7.33109">
        <ele>1000.451439</ele>
        <time>2011-11-01T13:07:11Z</time>
      </trkpt>
      <trkpt lat="43.88932" lon="7.33119">
        <ele>1000.451469</ele>
        <time>2011-11-01T13:07:14Z</time>
      </trkpt>
      <trkpt lat="43.8894" lon="7.33127">
        <ele>1000.4515</ele>
        <time>2011-11-01T13:07:17Z</time>
      </trkpt>
      <trkpt lat="43.88947" lon="7.33136">
        <ele>1000.451523</ele>
        <time>2011-11-01T13:07:20Z</time>
      </trkpt>
      <trkpt lat="43.88954" lon="7.33145">
        <ele>1002.451553</ele>
        <time>2011-11-01T13:07:23Z</time>
      </trkpt>
      <trkpt lat="43.88964" lon="7.33154">
        <ele>1003.451584</ele>
        <time>2011-11-01T13:07:27Z</time>
      </trkpt>
      <trkpt lat="43.88973" lon="7.33164">
        <ele>1005.451618</ele>
        <time>2011-11-01T13:07:31Z</time>
      </trkpt>
      <trkpt lat="43.88983" lon="7.33172">
        <ele>1004.451645</ele>
        <time>2011-11-01T13:07:35Z</time>
      </trkpt>
      <trkpt lat="43.88993" lon="7.33178">
        <ele>1004.451675</ele>
        <time>2011-11-01T13:07:39Z</time>
      </trkpt>
      <trkpt lat="43.89002" lon="7.33185">
        <ele>1004.451698</ele>
        <time>2011-11-01T13:07:43Z</time>
      </trkpt>
      <trkpt lat="43.89012" lon="7.33192">
        <ele>1004.451725</ele>
        <time>2011-11-01T13:07:47Z</time>
      </trkpt>
      <trkpt lat="43.89021" lon="7.33201">
        <ele>1005.451759</ele>
        <time>2011-11-01T13:07:51Z</time>
      </trkpt>
      <trkpt lat="43.89028" lon="7.3321">
        <ele>1005.451782</ele>
        <time>2011-11-01T13:07:55Z</time>
      </trkpt>
      <trkpt lat="43.89039" lon="7.33221">
        <ele>1008.45182</ele>
        <time>2011-11-01T13:08:03Z</time>
      </trkpt>
      <trkpt lat="43.89049" lon="7.33232">
        <ele>1011.451855</ele>
        <time>2011-11-01T13:08:07Z</time>
      </trkpt>
      <trkpt lat="43.89052" lon="7.33235">
        <ele>1011.451866</ele>
        <time>2011-11-01T13:08:08Z</time>
      </trkpt>
      <trkpt lat="43.89061" lon="7.33246">
        <ele>1012.451897</ele>
        <time>2011-11-01T13:08:11Z</time>
      </trkpt>
      <trkpt lat="43.89069" lon="7.33256">
        <ele>1013.451935</ele>
        <time>2011-11-01T13:08:14Z</time>
      </trkpt>
      <trkpt lat="43.89075" lon="7.33267">
        <ele>1013.451965</ele>
        <time>2011-11-01T13:08:17Z</time>
      </trkpt>
      <trkpt lat="43.89081" lon="7.33277">
        <ele>1013.451992</ele>
        <time>2011-11-01T13:08:20Z</time>
      </trkpt>
      <trkpt lat="43.89088" lon="7.33288">
        <ele>1014.452026</ele>
        <time>2011-11-01T13:08:23Z</time>
      </trkpt>
      <trkpt lat="43.89093" lon="7.333">
        <ele>1013.452057</ele>
        <time>2011-11-01T13:08:26Z</time>
      </trkpt>
      <trkpt lat="43.89098" lon="7.33311">
        <ele>1013.452084</ele>
        <time>2011-11-01T13:08:29Z</time>
      </trkpt>
      <trkpt lat="43.891" lon="7.33314">
        <ele>1014.452095</ele>
        <time>2011-11-01T13:08:30Z</time>
      </trkpt>
      <trkpt lat="43.89105" lon="7.33325">
        <ele>1015.452126</ele>
        <time>2011-11-01T13:08:33Z</time>
      </trkpt>
      <trkpt lat="43.89109" lon="7.33337">
        <ele>1015.452152</ele>
        <time>2011-11-01T13:08:36Z</time>
      </trkpt>
      <trkpt lat="43.89114" lon="7.33349">
        <ele>1015.452187</ele>
        <time>2011-11-01T13:08:39Z</time>
      </trkpt>
      <trkpt lat="43.8912" lon="7.33361">
        <ele>1016.452217</ele>
        <time>2011-11-01T13:08:42Z</time>
      </trkpt>
      <trkpt lat="43.89122" lon="7.33365">
        <ele>1016.452225</ele>
        <time>2011-11-01T13:08:43Z</time>
      </trkpt>
      <trkpt lat="43.89128" lon="7.33378">
        <ele>1016.452263</ele>
        <time>2011-11-01T13:08:46Z</time>
      </trkpt>
      <trkpt lat="43.89134" lon="7.33391">
        <ele>1016.452293</ele>
        <time>2011-11-01T13:08:49Z</time>
      </trkpt>
      <trkpt lat="43.89139" lon="7.33404">
        <ele>1017.452332</ele>
        <time>2011-11-01T13:08:52Z</time>
      </trkpt>
      <trkpt lat="43.89145" lon="7.33418">
        <ele>1017.45237</ele>
        <time>2011-11-01T13:08:55Z</time>
      </trkpt>
      <trkpt lat="43.89147" lon="7.33423">
        <ele>1017.452377</ele>
        <time>2011-11-01T13:08:56Z</time>
      </trkpt>
      <trkpt lat="43.89155" lon="7.33438">
        <ele>1018.452423</ele>
        <time>2011-11-01T13:08:59Z</time>
      </trkpt>
      <trkpt lat="43.89162" lon="7.33453">
        <ele>1019.452461</ele>
        <time>2011-11-01T13:09:02Z</time>
      </trkpt>
      <trkpt lat="43.89169" lon="7.33468">
        <ele>1019.452503</ele>
        <time>2011-11-01T13:09:05Z</time>
      </trkpt>
      <trkpt lat="43.89175" lon="7.33483">
        <ele>1019.452538</ele>
        <time>2011-11-01T13:09:08Z</time>
      </trkpt>
      <trkpt lat="43.89181" lon="7.33493">
        <ele>1020.452568</ele>
        <time>2011-11-01T13:09:10Z</time>
      </trkpt>
      <trkpt lat="43.89187" lon="7.33504">
        <ele>1020.452599</ele>
        <time>2011-11-01T13:09:12Z</time>
      </trkpt>
      <trkpt lat="43.89195" lon="7.33511">
        <ele>1020.452621</ele>
        <time>2011-11-01T13:09:14Z</time>
      </trkpt>
      <trkpt lat="43.89204" lon="7.33517">
        <ele>1020.452648</ele>
        <time>2011-11-01T13:09:16Z</time>
      </trkpt>
      <trkpt lat="43.89213" lon="7.33521">
        <ele>1020.452667</ele>
        <time>2011-11-01T13:09:18Z</time>
      </trkpt>
      <trkpt lat="43.89222" lon="7.33525">
        <ele>1020.45269</ele>
        <time>2011-11-01T13:09:20Z</time>
      </trkpt>
      <trkpt lat="43.89231" lon="7.3353">
        <ele>1019.452713</ele>
        <time>2011-11-01T13:09:22Z</time>
      </trkpt>
      <trkpt lat="43.8924" lon="7.33536">
        <ele>1019.452736</ele>
        <time>2011-11-01T13:09:24Z</time>
      </trkpt>
      <trkpt lat="43.89243" lon="7.3354">
        <ele>1019.452751</ele>
        <time>2011-11-01T13:09:25Z</time>
      </trkpt>
      <trkpt lat="43.89249" lon="7.3355">
        <ele>1019.452774</ele>
        <time>2011-11-01T13:09:27Z</time>
      </trkpt>
      <trkpt lat="43.8925" lon="7.33563">
        <ele>1019.452805</ele>
        <time>2011-11-01T13:09:29Z</time>
      </trkpt>
      <trkpt lat="43.89251" lon="7.33574">
        <ele>1019.452827</ele>
        <time>2011-11-01T13:09:31Z</time>
      </trkpt>
      <trkpt lat="43.89253" lon="7.33591">
        <ele>1019.452866</ele>
        <time>2011-11-01T13:09:34Z</time>
      </trkpt>
      <trkpt lat="43.89256" lon="7.33609">
        <ele>1020.452904</ele>
        <time>2011-11-01T13:09:37Z</time>
      </trkpt>
      <trkpt lat="43.89259" lon="7.3362">
        <ele>1020.452934</ele>
        <time>2011-11-01T13:09:39Z</time>
      </trkpt>
      <trkpt lat="43.89266" lon="7.33629">
        <ele>1021.452965</ele>
        <time>2011-11-01T13:09:41Z</time>
      </trkpt>
      <trkpt lat="43.89276" lon="7.33635">
        <ele>1020.452988</ele>
        <time>2011-11-01T13:09:43Z</time>
      </trkpt>
      <trkpt lat="43.8928" lon="7.33638">
        <ele>1020.452995</ele>
        <time>2011-11-01T13:09:44Z</time>
      </trkpt>
      <trkpt lat="43.89289" lon="7.33644">
        <ele>1020.453018</ele>
        <time>2011-11-01T13:09:46Z</time>
      </trkpt>
      <trkpt lat="43.89297" lon="7.3365">
        <ele>1019.453045</ele>
        <time>2011-11-01T13:09:48Z</time>
      </trkpt>
      <trkpt lat="43.89306" lon="7.33655">
        <ele>1019.453064</ele>
        <time>2011-11-01T13:09:50Z</time>
      </trkpt>
      <trkpt lat="43.89315" lon="7.33656">
        <ele>1019.453079</ele>
        <time>2011-11-01T13:09:52Z</time>
      </trkpt>
      <trkpt lat="43.89325" lon="7.33658">
        <ele>1019.453098</ele>
        <time>2011-11-01T13:09:54Z</time>
      </trkpt>
      <trkpt lat="43.89334" lon="7.33657">
        <ele>1019.45311</ele>
        <time>2011-11-01T13:09:56Z</time>
      </trkpt>
      <trkpt lat="43.89343" lon="7.33656">
        <ele>1018.453117</ele>
        <time>2011-11-01T13:09:58Z</time>
      </trkpt>
      <trkpt lat="43.89348" lon="7.33656">
        <ele>1017.453125</ele>
        <time>2011-11-01T13:09:59Z</time>
      </trkpt>
      <trkpt lat="43.89357" lon="7.33654">
        <ele>1018.453133</ele>
        <time>2011-11-01T13:10:01Z</time>
      </trkpt>
      <trkpt lat="43.89362" lon="7.33653">
        <ele>1018.45314</ele>
        <time>2011-11-01T13:10:02Z</time>
      </trkpt>
      <trkpt lat="43.89372" lon="7.33653">
        <ele>1017.453148</ele>
        <time>2011-11-01T13:10:04Z</time>
      </trkpt>
      <trkpt lat="43.89382" lon="7.33655">
        <ele>1016.453171</ele>
        <time>2011-11-01T13:10:06Z</time>
      </trkpt>
      <trkpt lat="43.89392" lon="7.3366">
        <ele>1016.453194</ele>
        <time>2011-11-01T13:10:08Z</time>
      </trkpt>
      <trkpt lat="43.894" lon="7.33668">
        <ele>1016.453217</ele>
        <time>2011-11-01T13:10:10Z</time>
      </trkpt>
      <trkpt lat="43.89408" lon="7.33677">
        <ele>1016.453247</ele>
        <time>2011-11-01T13:10:12Z</time>
      </trkpt>
      <trkpt lat="43.89417" lon="7.33685">
        <ele>1015.453278</ele>
        <time>2011-11-01T13:10:14Z</time>
      </trkpt>
      <trkpt lat="43.89425" lon="7.33693">
        <ele>1016.4533</ele>
        <time>2011-11-01T13:10:16Z</time>
      </trkpt>
      <trkpt lat="43.89428" lon="7.33697">
        <ele>1017.453316</ele>
        <time>2011-11-01T13:10:17Z</time>
      </trkpt>
      <trkpt lat="43.89436" lon="7.33705">
        <ele>1017.453346</ele>
        <time>2011-11-01T13:10:19Z</time>
      </trkpt>
      <trkpt lat="43.89444" lon="7.33713">
        <ele>1017.453369</ele>
        <time>2011-11-01T13:10:21Z</time>
      </trkpt>
      <trkpt lat="43.89451" lon="7.3372">
        <ele>1017.453396</ele>
        <time>2011-11-01T13:10:23Z</time>
      </trkpt>
      <trkpt lat="43.89459" lon="7.33729">
        <ele>1017.453423</ele>
        <time>2011-11-01T13:10:25Z</time>
      </trkpt>
      <trkpt lat="43.89466" lon="7.33737">
        <ele>1015.453453</ele>
        <time>2011-11-01T13:10:27Z</time>
      </trkpt>
      <trkpt lat="43.89473" lon="7.33745">
        <ele>1014.453476</ele>
        <time>2011-11-01T13:10:29Z</time>
      </trkpt>
      <trkpt lat="43.8948" lon="7.33753">
        <ele>1012.453503</ele>
        <time>2011-11-01T13:10:31Z</time>
      </trkpt>
      <trkpt lat="43.89488" lon="7.33761">
        <ele>1010.453529</ele>
        <time>2011-11-01T13:10:33Z</time>
      </trkpt>
      <trkpt lat="43.89495" lon="7.33769">
        <ele>1007.453552</ele>
        <time>2011-11-01T13:10:35Z</time>
      </trkpt>
      <trkpt lat="43.89502" lon="7.33777">
        <ele>1004.453579</ele>
        <time>2011-11-01T13:10:37Z</time>
      </trkpt>
      <trkpt lat="43.89506" lon="7.3378">
        <ele>1003.45359</ele>
        <time>2011-11-01T13:10:38Z</time>
      </trkpt>
      <trkpt lat="43.89517" lon="7.33791">
        <ele>999.453629</ele>
        <time>2011-11-01T13:10:41Z</time>
      </trkpt>
      <trkpt lat="43.89525" lon="7.33798">
        <ele>996.453651</ele>
        <time>2011-11-01T13:10:43Z</time>
      </trkpt>
      <trkpt lat="43.89533" lon="7.33804">
        <ele>995.453674</ele>
        <time>2011-11-01T13:10:45Z</time>
      </trkpt>
      <trkpt lat="43.89544" lon="7.33812">
        <ele>994.453709</ele>
        <time>2011-11-01T13:10:48Z</time>
      </trkpt>
      <trkpt lat="43.89551" lon="7.33818">
        <ele>993.453728</ele>
        <time>2011-11-01T13:10:50Z</time>
      </trkpt>
      <trkpt lat="43.89562" lon="7.33825">
        <ele>992.453758</ele>
        <time>2011-11-01T13:10:53Z</time>
      </trkpt>
      <trkpt lat="43.89573" lon="7.33831">
        <ele>991.453781</ele>
        <time>2011-11-01T13:10:56Z</time>
      </trkpt>
      <trkpt lat="43.89584" lon="7.33836">
        <ele>991.453812</ele>
        <time>2011-11-01T13:10:59Z</time>
      </trkpt>
      <trkpt lat="43.89588" lon="7.33838">
        <ele>991.453819</ele>
        <time>2011-11-01T13:11:00Z</time>
      </trkpt>
      <trkpt lat="43.89601" lon="7.33839">
        <ele>991.453838</ele>
        <time>2011-11-01T13:11:03Z</time>
      </trkpt>
      <trkpt lat="43.89611" lon="7.33831">
        <ele>993.453835</ele>
        <time>2011-11-01T13:11:07Z</time>
      </trkpt>
      <trkpt lat="43.89615" lon="7.33824">
        <ele>994.453827</ele>
        <time>2011-11-01T13:11:09Z</time>
      </trkpt>
      <trkpt lat="43.89612" lon="7.33807">
        <ele>994.453789</ele>
        <time>2011-11-01T13:11:14Z</time>
      </trkpt>
      <trkpt lat="43.8962" lon="7.33818">
        <ele>991.453819</ele>
        <time>2011-11-01T13:11:20Z</time>
      </trkpt>
      <trkpt lat="43.89621" lon="7.33831">
        <ele>991.45385</ele>
        <time>2011-11-01T13:11:23Z</time>
      </trkpt>
      <trkpt lat="43.89608" lon="7.33848">
        <ele>990.453869</ele>
        <time>2011-11-01T13:11:29Z</time>
      </trkpt>
      <trkpt lat="43.89601" lon="7.33863">
        <ele>993.453888</ele>
        <time>2011-11-01T13:11:34Z</time>
      </trkpt>
      <trkpt lat="43.89597" lon="7.33875">
        <ele>995.453907</ele>
        <time>2011-11-01T13:11:37Z</time>
      </trkpt>
      <trkpt lat="43.89593" lon="7.33887">
        <ele>997.453926</ele>
        <time>2011-11-01T13:11:41Z</time>
      </trkpt>
      <trkpt lat="43.89592" lon="7.339">
        <ele>999.453957</ele>
        <time>2011-11-01T13:11:45Z</time>
      </trkpt>
      <trkpt lat="43.89591" lon="7.33914">
        <ele>1001.453979</ele>
        <time>2011-11-01T13:11:49Z</time>
      </trkpt>
      <trkpt lat="43.89591" lon="7.33928">
        <ele>1001.45401</ele>
        <time>2011-11-01T13:11:54Z</time>
      </trkpt>
      <trkpt lat="43.89596" lon="7.33939">
        <ele>1003.454041</ele>
        <time>2011-11-01T13:12:00Z</time>
      </trkpt>
      <trkpt lat="43.89607" lon="7.33945">
        <ele>1011.454067</ele>
        <time>2011-11-01T13:13:52Z</time>
      </trkpt>
      <trkpt lat="43.89598" lon="7.33938">
        <ele>1015.454041</ele>
        <time>2011-11-01T13:15:19Z</time>
      </trkpt>
      <trkpt lat="43.89597" lon="7.3394">
        <ele>1009.454041</ele>
        <time>2011-11-01T13:15:32Z</time>
      </trkpt>
      <trkpt lat="43.89602" lon="7.33952">
        <ele>1007.454071</ele>
        <time>2011-11-01T13:15:37Z</time>
      </trkpt>
      <trkpt lat="43.89609" lon="7.33968">
        <ele>1007.454117</ele>
        <time>2011-11-01T13:15:44Z</time>
      </trkpt>
      <trkpt lat="43.89612" lon="7.33976">
        <ele>1006.454132</ele>
        <time>2011-11-01T13:15:47Z</time>
      </trkpt>
      <trkpt lat="43.89619" lon="7.33985">
        <ele>1006.454163</ele>
        <time>2011-11-01T13:15:51Z</time>
      </trkpt>
      <trkpt lat="43.89628" lon="7.33991">
        <ele>1006.454193</ele>
        <time>2011-11-01T13:15:55Z</time>
      </trkpt>
      <trkpt lat="43.89631" lon="7.33992">
        <ele>1006.454193</ele>
        <time>2011-11-01T13:15:56Z</time>
      </trkpt>
      <trkpt lat="43.89642" lon="7.33994">
        <ele>1007.454208</ele>
        <time>2011-11-01T13:16:01Z</time>
      </trkpt>
      <trkpt lat="43.89644" lon="7.33995">
        <ele>1007.454216</ele>
        <time>2011-11-01T13:16:03Z</time>
      </trkpt>
      <trkpt lat="43.89654" lon="7.33993">
        <ele>1008.454227</ele>
        <time>2011-11-01T13:16:06Z</time>
      </trkpt>
      <trkpt lat="43.89664" lon="7.33987">
        <ele>1009.454227</ele>
        <time>2011-11-01T13:16:09Z</time>
      </trkpt>
      <trkpt lat="43.89671" lon="7.33979">
        <ele>1010.454216</ele>
        <time>2011-11-01T13:16:11Z</time>
      </trkpt>
      <trkpt lat="43.89677" lon="7.33969">
        <ele>1010.454208</ele>
        <time>2011-11-01T13:16:13Z</time>
      </trkpt>
      <trkpt lat="43.8968" lon="7.33964">
        <ele>1011.454197</ele>
        <time>2011-11-01T13:16:14Z</time>
      </trkpt>
      <trkpt lat="43.89689" lon="7.33952">
        <ele>1012.454185</ele>
        <time>2011-11-01T13:16:17Z</time>
      </trkpt>
      <trkpt lat="43.897" lon="7.33943">
        <ele>1013.454185</ele>
        <time>2011-11-01T13:16:20Z</time>
      </trkpt>
      <trkpt lat="43.89711" lon="7.33937">
        <ele>1013.454185</ele>
        <time>2011-11-01T13:16:23Z</time>
      </trkpt>
      <trkpt lat="43.89724" lon="7.33938">
        <ele>1013.454208</ele>
        <time>2011-11-01T13:16:26Z</time>
      </trkpt>
      <trkpt lat="43.89734" lon="7.33945">
        <ele>1013.454235</ele>
        <time>2011-11-01T13:16:29Z</time>
      </trkpt>
      <trkpt lat="43.89738" lon="7.33959">
        <ele>1014.454269</ele>
        <time>2011-11-01T13:16:32Z</time>
      </trkpt>
      <trkpt lat="43.89736" lon="7.33975">
        <ele>1015.454296</ele>
        <time>2011-11-01T13:16:35Z</time>
      </trkpt>
      <trkpt lat="43.89734" lon="7.33993">
        <ele>1017.45433</ele>
        <time>2011-11-01T13:16:38Z</time>
      </trkpt>
      <trkpt lat="43.89736" lon="7.34005">
        <ele>1018.454361</ele>
        <time>2011-11-01T13:16:40Z</time>
      </trkpt>
      <trkpt lat="43.89739" lon="7.34017">
        <ele>1018.454388</ele>
        <time>2011-11-01T13:16:42Z</time>
      </trkpt>
      <trkpt lat="43.89742" lon="7.34029">
        <ele>1018.454418</ele>
        <time>2011-11-01T13:16:44Z</time>
      </trkpt>
      <trkpt lat="43.89745" lon="7.34041">
        <ele>1019.454445</ele>
        <time>2011-11-01T13:16:46Z</time>
      </trkpt>
      <trkpt lat="43.89754" lon="7.34055">
        <ele>1019.454483</ele>
        <time>2011-11-01T13:16:49Z</time>
      </trkpt>
      <trkpt lat="43.89762" lon="7.34061">
        <ele>1021.454514</ele>
        <time>2011-11-01T13:16:51Z</time>
      </trkpt>
      <trkpt lat="43.89772" lon="7.34058">
        <ele>1021.454517</ele>
        <time>2011-11-01T13:16:54Z</time>
      </trkpt>
      <trkpt lat="43.89784" lon="7.34048">
        <ele>1021.45451</ele>
        <time>2011-11-01T13:16:57Z</time>
      </trkpt>
      <trkpt lat="43.89792" lon="7.34041">
        <ele>1022.454506</ele>
        <time>2011-11-01T13:16:59Z</time>
      </trkpt>
      <trkpt lat="43.89801" lon="7.34036">
        <ele>1022.454506</ele>
        <time>2011-11-01T13:17:01Z</time>
      </trkpt>
      <trkpt lat="43.89811" lon="7.34039">
        <ele>1023.454529</ele>
        <time>2011-11-01T13:17:03Z</time>
      </trkpt>
      <trkpt lat="43.89819" lon="7.34043">
        <ele>1022.454552</ele>
        <time>2011-11-01T13:17:05Z</time>
      </trkpt>
      <trkpt lat="43.89828" lon="7.34053">
        <ele>1022.454578</ele>
        <time>2011-11-01T13:17:07Z</time>
      </trkpt>
      <trkpt lat="43.89837" lon="7.34062">
        <ele>1023.454609</ele>
        <time>2011-11-01T13:17:09Z</time>
      </trkpt>
      <trkpt lat="43.89847" lon="7.3407">
        <ele>1023.454639</ele>
        <time>2011-11-01T13:17:11Z</time>
      </trkpt>
      <trkpt lat="43.89851" lon="7.34073">
        <ele>1023.454651</ele>
        <time>2011-11-01T13:17:12Z</time>
      </trkpt>
      <trkpt lat="43.89862" lon="7.34078">
        <ele>1022.454674</ele>
        <time>2011-11-01T13:17:14Z</time>
      </trkpt>
      <trkpt lat="43.89867" lon="7.34081">
        <ele>1022.454689</ele>
        <time>2011-11-01T13:17:15Z</time>
      </trkpt>
      <trkpt lat="43.89878" lon="7.34087">
        <ele>1022.454716</ele>
        <time>2011-11-01T13:17:17Z</time>
      </trkpt>
      <trkpt lat="43.89883" lon="7.3409">
        <ele>1021.454727</ele>
        <time>2011-11-01T13:17:18Z</time>
      </trkpt>
      <trkpt lat="43.89893" lon="7.34096">
        <ele>1020.454758</ele>
        <time>2011-11-01T13:17:20Z</time>
      </trkpt>
      <trkpt lat="43.89901" lon="7.34102">
        <ele>1019.454781</ele>
        <time>2011-11-01T13:17:22Z</time>
      </trkpt>
      <trkpt lat="43.89905" lon="7.34105">
        <ele>1018.454788</ele>
        <time>2011-11-01T13:17:23Z</time>
      </trkpt>
      <trkpt lat="43.89916" lon="7.34111">
        <ele>1017.454819</ele>
        <time>2011-11-01T13:17:26Z</time>
      </trkpt>
      <trkpt lat="43.89925" lon="7.34119">
        <ele>1017.454842</ele>
        <time>2011-11-01T13:17:29Z</time>
      </trkpt>
      <trkpt lat="43.89935" lon="7.34126">
        <ele>1017.454872</ele>
        <time>2011-11-01T13:17:32Z</time>
      </trkpt>
      <trkpt lat="43.89945" lon="7.34132">
        <ele>1017.454895</ele>
        <time>2011-11-01T13:17:36Z</time>
      </trkpt>
      <trkpt lat="43.89964" lon="7.34137">
        <ele>1018.454933</ele>
        <time>2011-11-01T13:17:49Z</time>
      </trkpt>
      <trkpt lat="43.89972" lon="7.34142">
        <ele>1019.454956</ele>
        <time>2011-11-01T13:17:54Z</time>
      </trkpt>
      <trkpt lat="43.89982" lon="7.34146">
        <ele>1018.454975</ele>
        <time>2011-11-01T13:18:00Z</time>
      </trkpt>
      <trkpt lat="43.89992" lon="7.3415">
        <ele>1020.454994</ele>
        <time>2011-11-01T13:18:06Z</time>
      </trkpt>
      <trkpt lat="43.90004" lon="7.34157">
        <ele>1020.455025</ele>
        <time>2011-11-01T13:18:13Z</time>
      </trkpt>
      <trkpt lat="43.90013" lon="7.34164">
        <ele>1021.455055</ele>
        <time>2011-11-01T13:18:18Z</time>
      </trkpt>
      <trkpt lat="43.90021" lon="7.34171">
        <ele>1022.455078</ele>
        <time>2011-11-01T13:18:22Z</time>
      </trkpt>
      <trkpt lat="43.90029" lon="7.34179">
        <ele>1022.455105</ele>
        <time>2011-11-01T13:18:26Z</time>
      </trkpt>
      <trkpt lat="43.90037" lon="7.34186">
        <ele>1023.455132</ele>
        <time>2011-11-01T13:18:30Z</time>
      </trkpt>
      <trkpt lat="43.90047" lon="7.34186">
        <ele>1025.455147</ele>
        <time>2011-11-01T13:18:35Z</time>
      </trkpt>
      <trkpt lat="43.90057" lon="7.34182">
        <ele>1026.455147</ele>
        <time>2011-11-01T13:18:39Z</time>
      </trkpt>
      <trkpt lat="43.90082" lon="7.3416">
        <ele>1030.455135</ele>
        <time>2011-11-01T13:18:50Z</time>
      </trkpt>
      <trkpt lat="43.90089" lon="7.34148">
        <ele>1031.455124</ele>
        <time>2011-11-01T13:18:53Z</time>
      </trkpt>
      <trkpt lat="43.90094" lon="7.34136">
        <ele>1032.455101</ele>
        <time>2011-11-01T13:18:56Z</time>
      </trkpt>
      <trkpt lat="43.90099" lon="7.34122">
        <ele>1033.455086</ele>
        <time>2011-11-01T13:18:59Z</time>
      </trkpt>
      <trkpt lat="43.90102" lon="7.3411">
        <ele>1034.455063</ele>
        <time>2011-11-01T13:19:02Z</time>
      </trkpt>
      <trkpt lat="43.90103" lon="7.34091">
        <ele>1034.455025</ele>
        <time>2011-11-01T13:19:06Z</time>
      </trkpt>
      <trkpt lat="43.90104" lon="7.34061">
        <ele>1036.454964</ele>
        <time>2011-11-01T13:19:13Z</time>
      </trkpt>
      <trkpt lat="43.90104" lon="7.34045">
        <ele>1036.454933</ele>
        <time>2011-11-01T13:19:17Z</time>
      </trkpt>
      <trkpt lat="43.90105" lon="7.3403">
        <ele>1038.454903</ele>
        <time>2011-11-01T13:19:21Z</time>
      </trkpt>
      <trkpt lat="43.90106" lon="7.34015">
        <ele>1039.454872</ele>
        <time>2011-11-01T13:19:25Z</time>
      </trkpt>
      <trkpt lat="43.90105" lon="7.34">
        <ele>1040.454838</ele>
        <time>2011-11-01T13:19:29Z</time>
      </trkpt>
      <trkpt lat="43.90106" lon="7.33987">
        <ele>1042.454815</ele>
        <time>2011-11-01T13:19:33Z</time>
      </trkpt>
      <trkpt lat="43.90102" lon="7.33973">
        <ele>1044.454781</ele>
        <time>2011-11-01T13:19:38Z</time>
      </trkpt>
      <trkpt lat="43.90101" lon="7.33958">
        <ele>1045.45475</ele>
        <time>2011-11-01T13:19:43Z</time>
      </trkpt>
      <trkpt lat="43.90104" lon="7.33944">
        <ele>1047.454723</ele>
        <time>2011-11-01T13:19:49Z</time>
      </trkpt>
      <trkpt lat="43.90107" lon="7.33931">
        <ele>1048.454704</ele>
        <time>2011-11-01T13:19:54Z</time>
      </trkpt>
      <trkpt lat="43.90112" lon="7.33916">
        <ele>1048.454678</ele>
        <time>2011-11-01T13:19:58Z</time>
      </trkpt>
      <trkpt lat="43.90119" lon="7.33896">
        <ele>1048.454643</ele>
        <time>2011-11-01T13:20:03Z</time>
      </trkpt>
      <trkpt lat="43.90123" lon="7.33883">
        <ele>1049.45462</ele>
        <time>2011-11-01T13:20:06Z</time>
      </trkpt>
      <trkpt lat="43.90126" lon="7.33871">
        <ele>1051.454605</ele>
        <time>2011-11-01T13:20:09Z</time>
      </trkpt>
      <trkpt lat="43.90131" lon="7.33851">
        <ele>1053.454567</ele>
        <time>2011-11-01T13:20:16Z</time>
      </trkpt>
      <trkpt lat="43.90136" lon="7.33838">
        <ele>1056.454544</ele>
        <time>2011-11-01T13:20:24Z</time>
      </trkpt>
      <trkpt lat="43.90144" lon="7.33829">
        <ele>1056.45454</ele>
        <time>2011-11-01T13:20:30Z</time>
      </trkpt>
      <trkpt lat="43.90154" lon="7.33822">
        <ele>1056.454544</ele>
        <time>2011-11-01T13:20:35Z</time>
      </trkpt>
      <trkpt lat="43.90164" lon="7.3382">
        <ele>1058.454552</ele>
        <time>2011-11-01T13:20:42Z</time>
      </trkpt>
      <trkpt lat="43.90173" lon="7.33813">
        <ele>1057.454552</ele>
        <time>2011-11-01T13:20:48Z</time>
      </trkpt>
      <trkpt lat="43.9018" lon="7.33807">
        <ele>1056.454544</ele>
        <time>2011-11-01T13:20:57Z</time>
      </trkpt>
      <trkpt lat="43.9018" lon="7.33805">
        <ele>1056.45454</ele>
        <time>2011-11-01T13:21:04Z</time>
      </trkpt>
      <trkpt lat="43.90193" lon="7.33809">
        <ele>1045.454567</ele>
        <time>2011-11-01T13:24:16Z</time>
      </trkpt>
      <trkpt lat="43.90202" lon="7.33811">
        <ele>1045.454578</ele>
        <time>2011-11-01T13:24:21Z</time>
      </trkpt>
      <trkpt lat="43.90213" lon="7.33814">
        <ele>1047.454605</ele>
        <time>2011-11-01T13:24:24Z</time>
      </trkpt>
      <trkpt lat="43.90224" lon="7.33817">
        <ele>1049.45462</ele>
        <time>2011-11-01T13:24:27Z</time>
      </trkpt>
      <trkpt lat="43.90236" lon="7.3382">
        <ele>1050.454647</ele>
        <time>2011-11-01T13:24:30Z</time>
      </trkpt>
      <trkpt lat="43.90246" lon="7.33822">
        <ele>1050.454662</ele>
        <time>2011-11-01T13:24:33Z</time>
      </trkpt>
      <trkpt lat="43.90258" lon="7.33823">
        <ele>1051.454681</ele>
        <time>2011-11-01T13:24:37Z</time>
      </trkpt>
      <trkpt lat="43.90268" lon="7.33824">
        <ele>1050.454697</ele>
        <time>2011-11-01T13:24:41Z</time>
      </trkpt>
      <trkpt lat="43.90279" lon="7.33824">
        <ele>1050.454712</ele>
        <time>2011-11-01T13:24:45Z</time>
      </trkpt>
      <trkpt lat="43.9029" lon="7.33826">
        <ele>1051.454727</ele>
        <time>2011-11-01T13:24:49Z</time>
      </trkpt>
      <trkpt lat="43.90299" lon="7.33835">
        <ele>1053.454758</ele>
        <time>2011-11-01T13:24:53Z</time>
      </trkpt>
      <trkpt lat="43.903" lon="7.33837">
        <ele>1054.454765</ele>
        <time>2011-11-01T13:24:54Z</time>
      </trkpt>
      <trkpt lat="43.90304" lon="7.33853">
        <ele>1055.454803</ele>
        <time>2011-11-01T13:25:01Z</time>
      </trkpt>
      <trkpt lat="43.90306" lon="7.3387">
        <ele>1056.454842</ele>
        <time>2011-11-01T13:25:05Z</time>
      </trkpt>
      <trkpt lat="43.90308" lon="7.33886">
        <ele>1056.454872</ele>
        <time>2011-11-01T13:25:08Z</time>
      </trkpt>
      <trkpt lat="43.9031" lon="7.33901">
        <ele>1055.45491</ele>
        <time>2011-11-01T13:25:11Z</time>
      </trkpt>
      <trkpt lat="43.90312" lon="7.33917">
        <ele>1054.454948</ele>
        <time>2011-11-01T13:25:14Z</time>
      </trkpt>
      <trkpt lat="43.90313" lon="7.33922">
        <ele>1053.454956</ele>
        <time>2011-11-01T13:25:15Z</time>
      </trkpt>
      <trkpt lat="43.90317" lon="7.33934">
        <ele>1054.454987</ele>
        <time>2011-11-01T13:25:18Z</time>
      </trkpt>
      <trkpt lat="43.90326" lon="7.33942">
        <ele>1055.455017</ele>
        <time>2011-11-01T13:25:21Z</time>
      </trkpt>
      <trkpt lat="43.90329" lon="7.33945">
        <ele>1055.455021</ele>
        <time>2011-11-01T13:25:22Z</time>
      </trkpt>
      <trkpt lat="43.90339" lon="7.33947">
        <ele>1057.455048</ele>
        <time>2011-11-01T13:25:25Z</time>
      </trkpt>
      <trkpt lat="43.90349" lon="7.33945">
        <ele>1058.455055</ele>
        <time>2011-11-01T13:25:28Z</time>
      </trkpt>
      <trkpt lat="43.90362" lon="7.33939">
        <ele>1060.455055</ele>
        <time>2011-11-01T13:25:31Z</time>
      </trkpt>
      <trkpt lat="43.90375" lon="7.33931">
        <ele>1060.455055</ele>
        <time>2011-11-01T13:25:34Z</time>
      </trkpt>
      <trkpt lat="43.90384" lon="7.33926">
        <ele>1061.455055</ele>
        <time>2011-11-01T13:25:36Z</time>
      </trkpt>
      <trkpt lat="43.90396" lon="7.3392">
        <ele>1060.455063</ele>
        <time>2011-11-01T13:25:39Z</time>
      </trkpt>
      <trkpt lat="43.90405" lon="7.33918">
        <ele>1060.45507</ele>
        <time>2011-11-01T13:25:41Z</time>
      </trkpt>
      <trkpt lat="43.90416" lon="7.33918">
        <ele>1061.455086</ele>
        <time>2011-11-01T13:25:43Z</time>
      </trkpt>
      <trkpt lat="43.90427" lon="7.33918">
        <ele>1060.455101</ele>
        <time>2011-11-01T13:25:45Z</time>
      </trkpt>
      <trkpt lat="43.90439" lon="7.33921">
        <ele>1061.455124</ele>
        <time>2011-11-01T13:25:47Z</time>
      </trkpt>
      <trkpt lat="43.9045" lon="7.33933">
        <ele>1061.455162</ele>
        <time>2011-11-01T13:25:49Z</time>
      </trkpt>
      <trkpt lat="43.9046" lon="7.33945">
        <ele>1061.455196</ele>
        <time>2011-11-01T13:25:51Z</time>
      </trkpt>
      <trkpt lat="43.90468" lon="7.33956">
        <ele>1060.455231</ele>
        <time>2011-11-01T13:25:53Z</time>
      </trkpt>
      <trkpt lat="43.90474" lon="7.33966">
        <ele>1060.455261</ele>
        <time>2011-11-01T13:25:55Z</time>
      </trkpt>
      <trkpt lat="43.90483" lon="7.33979">
        <ele>1059.455296</ele>
        <time>2011-11-01T13:25:58Z</time>
      </trkpt>
      <trkpt lat="43.9049" lon="7.33984">
        <ele>1059.455322</ele>
        <time>2011-11-01T13:26:00Z</time>
      </trkpt>
      <trkpt lat="43.90502" lon="7.33987">
        <ele>1059.455338</ele>
        <time>2011-11-01T13:26:03Z</time>
      </trkpt>
      <trkpt lat="43.90513" lon="7.33989">
        <ele>1060.45536</ele>
        <time>2011-11-01T13:26:06Z</time>
      </trkpt>
      <trkpt lat="43.90524" lon="7.3399">
        <ele>1060.455376</ele>
        <time>2011-11-01T13:26:09Z</time>
      </trkpt>
      <trkpt lat="43.90536" lon="7.3399">
        <ele>1061.455391</ele>
        <time>2011-11-01T13:26:12Z</time>
      </trkpt>
      <trkpt lat="43.90547" lon="7.33987">
        <ele>1061.455399</ele>
        <time>2011-11-01T13:26:14Z</time>
      </trkpt>
      <trkpt lat="43.90558" lon="7.33979">
        <ele>1064.455399</ele>
        <time>2011-11-01T13:26:16Z</time>
      </trkpt>
      <trkpt lat="43.90566" lon="7.33967">
        <ele>1066.455387</ele>
        <time>2011-11-01T13:26:18Z</time>
      </trkpt>
      <trkpt lat="43.90573" lon="7.33953">
        <ele>1068.455368</ele>
        <time>2011-11-01T13:26:20Z</time>
      </trkpt>
      <trkpt lat="43.90579" lon="7.33939">
        <ele>1068.455349</ele>
        <time>2011-11-01T13:26:22Z</time>
      </trkpt>
      <trkpt lat="43.90584" lon="7.33927">
        <ele>1068.455326</ele>
        <time>2011-11-01T13:26:24Z</time>
      </trkpt>
      <trkpt lat="43.90586" lon="7.33921">
        <ele>1068.455322</ele>
        <time>2011-11-01T13:26:25Z</time>
      </trkpt>
      <trkpt lat="43.90591" lon="7.33903">
        <ele>1068.455292</ele>
        <time>2011-11-01T13:26:30Z</time>
      </trkpt>
      <trkpt lat="43.90596" lon="7.33888">
        <ele>1068.455265</ele>
        <time>2011-11-01T13:26:33Z</time>
      </trkpt>
      <trkpt lat="43.90601" lon="7.33875">
        <ele>1067.455246</ele>
        <time>2011-11-01T13:26:36Z</time>
      </trkpt>
      <trkpt lat="43.90634" lon="7.33862">
        <ele>1074.455261</ele>
        <time>2011-11-01T13:26:59Z</time>
      </trkpt>
      <trkpt lat="43.90648" lon="7.33853">
        <ele>1077.455261</ele>
        <time>2011-11-01T13:27:06Z</time>
      </trkpt>
      <trkpt lat="43.90652" lon="7.33841">
        <ele>1079.455238</ele>
        <time>2011-11-01T13:27:09Z</time>
      </trkpt>
      <trkpt lat="43.90656" lon="7.33827">
        <ele>1080.455215</ele>
        <time>2011-11-01T13:27:12Z</time>
      </trkpt>
      <trkpt lat="43.90664" lon="7.33777">
        <ele>1081.455124</ele>
        <time>2011-11-01T13:27:25Z</time>
      </trkpt>
      <trkpt lat="43.90666" lon="7.33761">
        <ele>1081.455093</ele>
        <time>2011-11-01T13:27:28Z</time>
      </trkpt>
      <trkpt lat="43.90667" lon="7.33746">
        <ele>1081.45507</ele>
        <time>2011-11-01T13:27:31Z</time>
      </trkpt>
      <trkpt lat="43.90668" lon="7.33734">
        <ele>1081.455044</ele>
        <time>2011-11-01T13:27:34Z</time>
      </trkpt>
      <trkpt lat="43.9067" lon="7.33719">
        <ele>1080.455017</ele>
        <time>2011-11-01T13:27:38Z</time>
      </trkpt>
      <trkpt lat="43.90672" lon="7.33704">
        <ele>1079.454987</ele>
        <time>2011-11-01T13:27:42Z</time>
      </trkpt>
      <trkpt lat="43.90675" lon="7.33689">
        <ele>1078.454964</ele>
        <time>2011-11-01T13:27:46Z</time>
      </trkpt>
      <trkpt lat="43.90677" lon="7.33683">
        <ele>1078.454948</ele>
        <time>2011-11-01T13:27:48Z</time>
      </trkpt>
      <trkpt lat="43.90681" lon="7.33669">
        <ele>1078.454926</ele>
        <time>2011-11-01T13:27:52Z</time>
      </trkpt>
      <trkpt lat="43.90686" lon="7.33648">
        <ele>1078.454895</ele>
        <time>2011-11-01T13:28:04Z</time>
      </trkpt>
      <trkpt lat="43.90688" lon="7.33634">
        <ele>1079.454861</ele>
        <time>2011-11-01T13:28:09Z</time>
      </trkpt>
      <trkpt lat="43.90692" lon="7.33621">
        <ele>1080.454849</ele>
        <time>2011-11-01T13:28:15Z</time>
      </trkpt>
      <trkpt lat="43.90695" lon="7.33607">
        <ele>1080.454819</ele>
        <time>2011-11-01T13:28:18Z</time>
      </trkpt>
      <trkpt lat="43.90698" lon="7.33591">
        <ele>1080.454796</ele>
        <time>2011-11-01T13:28:20Z</time>
      </trkpt>
      <trkpt lat="43.907" lon="7.33577">
        <ele>1081.454765</ele>
        <time>2011-11-01T13:28:22Z</time>
      </trkpt>
      <trkpt lat="43.90696" lon="7.33565">
        <ele>1081.454739</ele>
        <time>2011-11-01T13:28:26Z</time>
      </trkpt>
      <trkpt lat="43.90692" lon="7.33539">
        <ele>1081.454681</ele>
        <time>2011-11-01T13:28:31Z</time>
      </trkpt>
      <trkpt lat="43.90693" lon="7.33524">
        <ele>1082.454651</ele>
        <time>2011-11-01T13:28:34Z</time>
      </trkpt>
      <trkpt lat="43.90694" lon="7.33513">
        <ele>1082.454628</ele>
        <time>2011-11-01T13:28:36Z</time>
      </trkpt>
      <trkpt lat="43.90696" lon="7.33496">
        <ele>1083.454594</ele>
        <time>2011-11-01T13:28:39Z</time>
      </trkpt>
      <trkpt lat="43.90695" lon="7.33479">
        <ele>1083.454556</ele>
        <time>2011-11-01T13:28:42Z</time>
      </trkpt>
      <trkpt lat="43.90694" lon="7.33463">
        <ele>1082.454525</ele>
        <time>2011-11-01T13:28:45Z</time>
      </trkpt>
      <trkpt lat="43.90694" lon="7.33452">
        <ele>1083.454498</ele>
        <time>2011-11-01T13:28:47Z</time>
      </trkpt>
      <trkpt lat="43.90694" lon="7.33435">
        <ele>1083.454464</ele>
        <time>2011-11-01T13:28:50Z</time>
      </trkpt>
      <trkpt lat="43.90697" lon="7.33418">
        <ele>1084.454433</ele>
        <time>2011-11-01T13:28:53Z</time>
      </trkpt>
      <trkpt lat="43.907" lon="7.33406">
        <ele>1085.454418</ele>
        <time>2011-11-01T13:28:55Z</time>
      </trkpt>
      <trkpt lat="43.90705" lon="7.33391">
        <ele>1086.454391</ele>
        <time>2011-11-01T13:28:58Z</time>
      </trkpt>
      <trkpt lat="43.90714" lon="7.33393">
        <ele>1086.454407</ele>
        <time>2011-11-01T13:29:00Z</time>
      </trkpt>
      <trkpt lat="43.90726" lon="7.33392">
        <ele>1086.454422</ele>
        <time>2011-11-01T13:29:03Z</time>
      </trkpt>
      <trkpt lat="43.90737" lon="7.33394">
        <ele>1086.454441</ele>
        <time>2011-11-01T13:29:06Z</time>
      </trkpt>
      <trkpt lat="43.90748" lon="7.334">
        <ele>1085.454468</ele>
        <time>2011-11-01T13:29:09Z</time>
      </trkpt>
      <trkpt lat="43.90759" lon="7.33391">
        <ele>1085.45446</ele>
        <time>2011-11-01T13:29:12Z</time>
      </trkpt>
      <trkpt lat="43.90766" lon="7.33378">
        <ele>1085.454445</ele>
        <time>2011-11-01T13:29:14Z</time>
      </trkpt>
      <trkpt lat="43.90771" lon="7.33366">
        <ele>1085.45443</ele>
        <time>2011-11-01T13:29:16Z</time>
      </trkpt>
      <trkpt lat="43.90776" lon="7.33353">
        <ele>1084.454407</ele>
        <time>2011-11-01T13:29:19Z</time>
      </trkpt>
      <trkpt lat="43.90776" lon="7.3334">
        <ele>1083.45438</ele>
        <time>2011-11-01T13:29:24Z</time>
      </trkpt>
      <trkpt lat="43.90766" lon="7.33342">
        <ele>1083.454369</ele>
        <time>2011-11-01T13:29:42Z</time>
      </trkpt>
      <trkpt lat="43.90765" lon="7.33329">
        <ele>1079.454346</ele>
        <time>2011-11-01T13:29:59Z</time>
      </trkpt>
      <trkpt lat="43.9077" lon="7.33316">
        <ele>1078.454323</ele>
        <time>2011-11-01T13:30:06Z</time>
      </trkpt>
      <trkpt lat="43.90775" lon="7.33304">
        <ele>1080.454308</ele>
        <time>2011-11-01T13:30:10Z</time>
      </trkpt>
      <trkpt lat="43.9079" lon="7.3329">
        <ele>1082.4543</ele>
        <time>2011-11-01T13:30:24Z</time>
      </trkpt>
      <trkpt lat="43.90798" lon="7.33285">
        <ele>1081.4543</ele>
        <time>2011-11-01T13:30:30Z</time>
      </trkpt>
      <trkpt lat="43.90821" lon="7.33268">
        <ele>1080.454296</ele>
        <time>2011-11-01T13:30:41Z</time>
      </trkpt>
      <trkpt lat="43.90832" lon="7.33263">
        <ele>1080.4543</ele>
        <time>2011-11-01T13:30:47Z</time>
      </trkpt>
      <trkpt lat="43.90845" lon="7.33258">
        <ele>1080.454308</ele>
        <time>2011-11-01T13:30:54Z</time>
      </trkpt>
      <trkpt lat="43.90853" lon="7.33251">
        <ele>1080.454304</ele>
        <time>2011-11-01T13:30:58Z</time>
      </trkpt>
      <trkpt lat="43.90875" lon="7.33228">
        <ele>1082.454281</ele>
        <time>2011-11-01T13:31:05Z</time>
      </trkpt>
      <trkpt lat="43.90875" lon="7.33228">
        <ele>1082.454281</ele>
        <time>2011-11-01T13:31:07Z</time>
      </trkpt>
      <trkpt lat="43.90882" lon="7.33214">
        <ele>1082.454262</ele>
        <time>2011-11-01T13:31:09Z</time>
      </trkpt>
      <trkpt lat="43.90887" lon="7.33202">
        <ele>1083.454247</ele>
        <time>2011-11-01T13:31:12Z</time>
      </trkpt>
      <trkpt lat="43.90894" lon="7.33189">
        <ele>1083.454231</ele>
        <time>2011-11-01T13:31:14Z</time>
      </trkpt>
      <trkpt lat="43.90902" lon="7.33179">
        <ele>1083.45422</ele>
        <time>2011-11-01T13:31:17Z</time>
      </trkpt>
      <trkpt lat="43.90912" lon="7.33169">
        <ele>1083.454208</ele>
        <time>2011-11-01T13:31:22Z</time>
      </trkpt>
      <trkpt lat="43.9092" lon="7.33157">
        <ele>1084.454201</ele>
        <time>2011-11-01T13:31:26Z</time>
      </trkpt>
      <trkpt lat="43.90925" lon="7.33148">
        <ele>1087.454185</ele>
        <time>2011-11-01T13:31:30Z</time>
      </trkpt>
      <trkpt lat="43.90932" lon="7.33136">
        <ele>1088.45417</ele>
        <time>2011-11-01T13:31:35Z</time>
      </trkpt>
      <trkpt lat="43.90938" lon="7.33125">
        <ele>1089.454159</ele>
        <time>2011-11-01T13:31:40Z</time>
      </trkpt>
      <trkpt lat="43.90944" lon="7.33115">
        <ele>1089.454144</ele>
        <time>2011-11-01T13:31:45Z</time>
      </trkpt>
      <trkpt lat="43.9095" lon="7.33102">
        <ele>1091.454124</ele>
        <time>2011-11-01T13:31:50Z</time>
      </trkpt>
      <trkpt lat="43.90956" lon="7.33092">
        <ele>1092.454113</ele>
        <time>2011-11-01T13:31:54Z</time>
      </trkpt>
      <trkpt lat="43.90962" lon="7.33082">
        <ele>1092.454102</ele>
        <time>2011-11-01T13:31:58Z</time>
      </trkpt>
      <trkpt lat="43.90971" lon="7.33075">
        <ele>1092.454102</ele>
        <time>2011-11-01T13:32:05Z</time>
      </trkpt>
      <trkpt lat="43.90978" lon="7.33085">
        <ele>1093.454128</ele>
        <time>2011-11-01T13:32:15Z</time>
      </trkpt>
      <trkpt lat="43.90979" lon="7.33086">
        <ele>1092.454132</ele>
        <time>2011-11-01T13:32:16Z</time>
      </trkpt>
      <trkpt lat="43.9099" lon="7.33088">
        <ele>1094.454147</ele>
        <time>2011-11-01T13:32:24Z</time>
      </trkpt>
      <trkpt lat="43.91" lon="7.33083">
        <ele>1095.454155</ele>
        <time>2011-11-01T13:32:30Z</time>
      </trkpt>
      <trkpt lat="43.91007" lon="7.33076">
        <ele>1096.454151</ele>
        <time>2011-11-01T13:32:35Z</time>
      </trkpt>
      <trkpt lat="43.91007" lon="7.33076">
        <ele>1096.454151</ele>
        <time>2011-11-01T13:32:38Z</time>
      </trkpt>
      <trkpt lat="43.91015" lon="7.33068">
        <ele>1093.454144</ele>
        <time>2011-11-01T13:32:43Z</time>
      </trkpt>
      <trkpt lat="43.91016" lon="7.33067">
        <ele>1093.454144</ele>
        <time>2011-11-01T13:32:44Z</time>
      </trkpt>
      <trkpt lat="43.91025" lon="7.33061">
        <ele>1095.45414</ele>
        <time>2011-11-01T13:32:52Z</time>
      </trkpt>
      <trkpt lat="43.91034" lon="7.33056">
        <ele>1097.454144</ele>
        <time>2011-11-01T13:32:59Z</time>
      </trkpt>
      <trkpt lat="43.91049" lon="7.33047">
        <ele>1101.454147</ele>
        <time>2011-11-01T13:33:11Z</time>
      </trkpt>
      <trkpt lat="43.91058" lon="7.33044">
        <ele>1103.454155</ele>
        <time>2011-11-01T13:33:18Z</time>
      </trkpt>
      <trkpt lat="43.91067" lon="7.3304">
        <ele>1105.454155</ele>
        <time>2011-11-01T13:33:24Z</time>
      </trkpt>
      <trkpt lat="43.91077" lon="7.33035">
        <ele>1107.454159</ele>
        <time>2011-11-01T13:33:34Z</time>
      </trkpt>
      <trkpt lat="43.91085" lon="7.33028">
        <ele>1107.454155</ele>
        <time>2011-11-01T13:33:42Z</time>
      </trkpt>
      <trkpt lat="43.91094" lon="7.33023">
        <ele>1106.454155</ele>
        <time>2011-11-01T13:33:48Z</time>
      </trkpt>
      <trkpt lat="43.91103" lon="7.33019">
        <ele>1106.454163</ele>
        <time>2011-11-01T13:33:54Z</time>
      </trkpt>
      <trkpt lat="43.91114" lon="7.33012">
        <ele>1107.454163</ele>
        <time>2011-11-01T13:34:03Z</time>
      </trkpt>
      <trkpt lat="43.91121" lon="7.33002">
        <ele>1110.454147</ele>
        <time>2011-11-01T13:34:09Z</time>
      </trkpt>
      <trkpt lat="43.91129" lon="7.32989">
        <ele>1110.454132</ele>
        <time>2011-11-01T13:34:16Z</time>
      </trkpt>
      <trkpt lat="43.91135" lon="7.32976">
        <ele>1110.454121</ele>
        <time>2011-11-01T13:34:22Z</time>
      </trkpt>
      <trkpt lat="43.91141" lon="7.32965">
        <ele>1111.454102</ele>
        <time>2011-11-01T13:34:28Z</time>
      </trkpt>
      <trkpt lat="43.91149" lon="7.32952">
        <ele>1111.454086</ele>
        <time>2011-11-01T13:34:36Z</time>
      </trkpt>
      <trkpt lat="43.91155" lon="7.32941">
        <ele>1113.454071</ele>
        <time>2011-11-01T13:34:43Z</time>
      </trkpt>
      <trkpt lat="43.9116" lon="7.32931">
        <ele>1113.454056</ele>
        <time>2011-11-01T13:34:49Z</time>
      </trkpt>
      <trkpt lat="43.91167" lon="7.32919">
        <ele>1115.454044</ele>
        <time>2011-11-01T13:34:57Z</time>
      </trkpt>
      <trkpt lat="43.91175" lon="7.32911">
        <ele>1115.454033</ele>
        <time>2011-11-01T13:35:02Z</time>
      </trkpt>
      <trkpt lat="43.91186" lon="7.32903">
        <ele>1115.454033</ele>
        <time>2011-11-01T13:35:11Z</time>
      </trkpt>
      <trkpt lat="43.91195" lon="7.329">
        <ele>1115.454041</ele>
        <time>2011-11-01T13:35:19Z</time>
      </trkpt>
      <trkpt lat="43.91197" lon="7.329">
        <ele>1115.454041</ele>
        <time>2011-11-01T13:35:20Z</time>
      </trkpt>
      <trkpt lat="43.91207" lon="7.32895">
        <ele>1118.454044</ele>
        <time>2011-11-01T13:35:25Z</time>
      </trkpt>
      <trkpt lat="43.91216" lon="7.32889">
        <ele>1118.454048</ele>
        <time>2011-11-01T13:35:29Z</time>
      </trkpt>
      <trkpt lat="43.91226" lon="7.32875">
        <ele>1118.454033</ele>
        <time>2011-11-01T13:35:33Z</time>
      </trkpt>
      <trkpt lat="43.91236" lon="7.32867">
        <ele>1117.454025</ele>
        <time>2011-11-01T13:35:37Z</time>
      </trkpt>
      <trkpt lat="43.91253" lon="7.32859">
        <ele>1117.454033</ele>
        <time>2011-11-01T13:35:41Z</time>
      </trkpt>
      <trkpt lat="43.91256" lon="7.32856">
        <ele>1118.454033</ele>
        <time>2011-11-01T13:35:42Z</time>
      </trkpt>
      <trkpt lat="43.9127" lon="7.32843">
        <ele>1119.454025</ele>
        <time>2011-11-01T13:35:46Z</time>
      </trkpt>
      <trkpt lat="43.9128" lon="7.32834">
        <ele>1118.454018</ele>
        <time>2011-11-01T13:35:48Z</time>
      </trkpt>
      <trkpt lat="43.91289" lon="7.32826">
        <ele>1118.454018</ele>
        <time>2011-11-01T13:35:50Z</time>
      </trkpt>
      <trkpt lat="43.91299" lon="7.32819">
        <ele>1118.454014</ele>
        <time>2011-11-01T13:35:54Z</time>
      </trkpt>
      <trkpt lat="43.91314" lon="7.32806">
        <ele>1118.454006</ele>
        <time>2011-11-01T13:36:01Z</time>
      </trkpt>
      <trkpt lat="43.91326" lon="7.32798">
        <ele>1118.454006</ele>
        <time>2011-11-01T13:36:05Z</time>
      </trkpt>
      <trkpt lat="43.91335" lon="7.32792">
        <ele>1119.45401</ele>
        <time>2011-11-01T13:36:07Z</time>
      </trkpt>
      <trkpt lat="43.91356" lon="7.32779">
        <ele>1119.45401</ele>
        <time>2011-11-01T13:36:13Z</time>
      </trkpt>
      <trkpt lat="43.91366" lon="7.32774">
        <ele>1120.45401</ele>
        <time>2011-11-01T13:36:19Z</time>
      </trkpt>
      <trkpt lat="43.91372" lon="7.32771">
        <ele>1121.45401</ele>
        <time>2011-11-01T13:36:22Z</time>
      </trkpt>
      <trkpt lat="43.91388" lon="7.32762">
        <ele>1125.454018</ele>
        <time>2011-11-01T13:36:30Z</time>
      </trkpt>
      <trkpt lat="43.91394" lon="7.32759">
        <ele>1125.454021</ele>
        <time>2011-11-01T13:36:33Z</time>
      </trkpt>
      <trkpt lat="43.91403" lon="7.32752">
        <ele>1125.454018</ele>
        <time>2011-11-01T13:36:37Z</time>
      </trkpt>
      <trkpt lat="43.91411" lon="7.32746">
        <ele>1124.454014</ele>
        <time>2011-11-01T13:36:42Z</time>
      </trkpt>
      <trkpt lat="43.91425" lon="7.32738">
        <ele>1123.454018</ele>
        <time>2011-11-01T13:36:49Z</time>
      </trkpt>
      <trkpt lat="43.91427" lon="7.32736">
        <ele>1123.454018</ele>
        <time>2011-11-01T13:36:50Z</time>
      </trkpt>
      <trkpt lat="43.91435" lon="7.3273">
        <ele>1124.454014</ele>
        <time>2011-11-01T13:36:53Z</time>
      </trkpt>
      <trkpt lat="43.91445" lon="7.32719">
        <ele>1125.454006</ele>
        <time>2011-11-01T13:36:56Z</time>
      </trkpt>
      <trkpt lat="43.91455" lon="7.32702">
        <ele>1125.453987</ele>
        <time>2011-11-01T13:37:00Z</time>
      </trkpt>
      <trkpt lat="43.9146" lon="7.32689">
        <ele>1125.453964</ele>
        <time>2011-11-01T13:37:03Z</time>
      </trkpt>
      <trkpt lat="43.91464" lon="7.32676">
        <ele>1124.453941</ele>
        <time>2011-11-01T13:37:06Z</time>
      </trkpt>
      <trkpt lat="43.91468" lon="7.32665">
        <ele>1124.453922</ele>
        <time>2011-11-01T13:37:09Z</time>
      </trkpt>
      <trkpt lat="43.91472" lon="7.32652">
        <ele>1124.453903</ele>
        <time>2011-11-01T13:37:13Z</time>
      </trkpt>
      <trkpt lat="43.91476" lon="7.32628">
        <ele>1126.453861</ele>
        <time>2011-11-01T13:37:25Z</time>
      </trkpt>
      <trkpt lat="43.91474" lon="7.32608">
        <ele>1127.453812</ele>
        <time>2011-11-01T13:37:30Z</time>
      </trkpt>
      <trkpt lat="43.91472" lon="7.32594">
        <ele>1127.453785</ele>
        <time>2011-11-01T13:37:33Z</time>
      </trkpt>
      <trkpt lat="43.91471" lon="7.32576">
        <ele>1128.453751</ele>
        <time>2011-11-01T13:37:39Z</time>
      </trkpt>
      <trkpt lat="43.91469" lon="7.32563">
        <ele>1128.453716</ele>
        <time>2011-11-01T13:37:44Z</time>
      </trkpt>
      <trkpt lat="43.91465" lon="7.32547">
        <ele>1128.453674</ele>
        <time>2011-11-01T13:37:49Z</time>
      </trkpt>
      <trkpt lat="43.9146" lon="7.32532">
        <ele>1127.453644</ele>
        <time>2011-11-01T13:37:52Z</time>
      </trkpt>
      <trkpt lat="43.91457" lon="7.3252">
        <ele>1127.453609</ele>
        <time>2011-11-01T13:37:54Z</time>
      </trkpt>
      <trkpt lat="43.91455" lon="7.32508">
        <ele>1127.45359</ele>
        <time>2011-11-01T13:37:56Z</time>
      </trkpt>
      <trkpt lat="43.91453" lon="7.32495">
        <ele>1126.45356</ele>
        <time>2011-11-01T13:37:58Z</time>
      </trkpt>
      <trkpt lat="43.91449" lon="7.3248">
        <ele>1127.453522</ele>
        <time>2011-11-01T13:38:01Z</time>
      </trkpt>
      <trkpt lat="43.91444" lon="7.32463">
        <ele>1128.453484</ele>
        <time>2011-11-01T13:38:04Z</time>
      </trkpt>
      <trkpt lat="43.91442" lon="7.32447">
        <ele>1129.453445</ele>
        <time>2011-11-01T13:38:07Z</time>
      </trkpt>
      <trkpt lat="43.91443" lon="7.32434">
        <ele>1130.453419</ele>
        <time>2011-11-01T13:38:09Z</time>
      </trkpt>
      <trkpt lat="43.91443" lon="7.32421">
        <ele>1130.453392</ele>
        <time>2011-11-01T13:38:11Z</time>
      </trkpt>
      <trkpt lat="43.91444" lon="7.32407">
        <ele>1130.453365</ele>
        <time>2011-11-01T13:38:13Z</time>
      </trkpt>
      <trkpt lat="43.91445" lon="7.32394">
        <ele>1130.453339</ele>
        <time>2011-11-01T13:38:15Z</time>
      </trkpt>
      <trkpt lat="43.91445" lon="7.32388">
        <ele>1130.453331</ele>
        <time>2011-11-01T13:38:16Z</time>
      </trkpt>
      <trkpt lat="43.91446" lon="7.32372">
        <ele>1131.453297</ele>
        <time>2011-11-01T13:38:19Z</time>
      </trkpt>
      <trkpt lat="43.91446" lon="7.32365">
        <ele>1131.453285</ele>
        <time>2011-11-01T13:38:21Z</time>
      </trkpt>
      <trkpt lat="43.91447" lon="7.32341">
        <ele>1132.453232</ele>
        <time>2011-11-01T13:38:35Z</time>
      </trkpt>
      <trkpt lat="43.91446" lon="7.32328">
        <ele>1133.453209</ele>
        <time>2011-11-01T13:38:43Z</time>
      </trkpt>
      <trkpt lat="43.91446" lon="7.32327">
        <ele>1133.453201</ele>
        <time>2011-11-01T13:38:44Z</time>
      </trkpt>
      <trkpt lat="43.91452" lon="7.32317">
        <ele>1123.453194</ele>
        <time>2011-11-01T13:39:28Z</time>
      </trkpt>
      <trkpt lat="43.91442" lon="7.32306">
        <ele>1124.453156</ele>
        <time>2011-11-01T14:08:17Z</time>
      </trkpt>
      <trkpt lat="43.91442" lon="7.32307">
        <ele>1123.453163</ele>
        <time>2011-11-01T14:08:18Z</time>
      </trkpt>
      <trkpt lat="43.91444" lon="7.32294">
        <ele>1117.45314</ele>
        <time>2011-11-01T14:09:57Z</time>
      </trkpt>
      <trkpt lat="43.91447" lon="7.32282">
        <ele>1115.453117</ele>
        <time>2011-11-01T14:10:07Z</time>
      </trkpt>
      <trkpt lat="43.91449" lon="7.32279">
        <ele>1115.45311</ele>
        <time>2011-11-01T14:10:10Z</time>
      </trkpt>
      <trkpt lat="43.91457" lon="7.32258">
        <ele>1119.453079</ele>
        <time>2011-11-01T14:10:22Z</time>
      </trkpt>
      <trkpt lat="43.9146" lon="7.32244">
        <ele>1120.453056</ele>
        <time>2011-11-01T14:10:26Z</time>
      </trkpt>
      <trkpt lat="43.91462" lon="7.32231">
        <ele>1120.45303</ele>
        <time>2011-11-01T14:10:30Z</time>
      </trkpt>
      <trkpt lat="43.91466" lon="7.32219">
        <ele>1120.453011</ele>
        <time>2011-11-01T14:10:34Z</time>
      </trkpt>
      <trkpt lat="43.91472" lon="7.32205">
        <ele>1120.452988</ele>
        <time>2011-11-01T14:10:38Z</time>
      </trkpt>
      <trkpt lat="43.91478" lon="7.32193">
        <ele>1120.452976</ele>
        <time>2011-11-01T14:10:41Z</time>
      </trkpt>
      <trkpt lat="43.91485" lon="7.3218">
        <ele>1121.452957</ele>
        <time>2011-11-01T14:10:44Z</time>
      </trkpt>
      <trkpt lat="43.9149" lon="7.32169">
        <ele>1123.452942</ele>
        <time>2011-11-01T14:10:47Z</time>
      </trkpt>
      <trkpt lat="43.91494" lon="7.32155">
        <ele>1123.452919</ele>
        <time>2011-11-01T14:10:51Z</time>
      </trkpt>
      <trkpt lat="43.91496" lon="7.32141">
        <ele>1123.452892</ele>
        <time>2011-11-01T14:10:56Z</time>
      </trkpt>
      <trkpt lat="43.91499" lon="7.32128">
        <ele>1124.452869</ele>
        <time>2011-11-01T14:11:01Z</time>
      </trkpt>
      <trkpt lat="43.91504" lon="7.32114">
        <ele>1124.452843</ele>
        <time>2011-11-01T14:11:06Z</time>
      </trkpt>
      <trkpt lat="43.91509" lon="7.32102">
        <ele>1125.452831</ele>
        <time>2011-11-01T14:11:10Z</time>
      </trkpt>
      <trkpt lat="43.91515" lon="7.32091">
        <ele>1126.452816</ele>
        <time>2011-11-01T14:11:14Z</time>
      </trkpt>
      <trkpt lat="43.9152" lon="7.32079">
        <ele>1127.452797</ele>
        <time>2011-11-01T14:11:18Z</time>
      </trkpt>
      <trkpt lat="43.91526" lon="7.32068">
        <ele>1127.452782</ele>
        <time>2011-11-01T14:11:22Z</time>
      </trkpt>
      <trkpt lat="43.91532" lon="7.32058">
        <ele>1127.45277</ele>
        <time>2011-11-01T14:11:26Z</time>
      </trkpt>
      <trkpt lat="43.91536" lon="7.32045">
        <ele>1128.452755</ele>
        <time>2011-11-01T14:11:37Z</time>
      </trkpt>
      <trkpt lat="43.91542" lon="7.32033">
        <ele>1128.452732</ele>
        <time>2011-11-01T14:11:42Z</time>
      </trkpt>
      <trkpt lat="43.91549" lon="7.32024">
        <ele>1128.452721</ele>
        <time>2011-11-01T14:11:47Z</time>
      </trkpt>
      <trkpt lat="43.91553" lon="7.32013">
        <ele>1129.452705</ele>
        <time>2011-11-01T14:11:52Z</time>
      </trkpt>
      <trkpt lat="43.91556" lon="7.31999">
        <ele>1130.452682</ele>
        <time>2011-11-01T14:11:58Z</time>
      </trkpt>
      <trkpt lat="43.9156" lon="7.31987">
        <ele>1130.452663</ele>
        <time>2011-11-01T14:12:05Z</time>
      </trkpt>
      <trkpt lat="43.91564" lon="7.31974">
        <ele>1132.452644</ele>
        <time>2011-11-01T14:12:12Z</time>
      </trkpt>
      <trkpt lat="43.91571" lon="7.31964">
        <ele>1132.452629</ele>
        <time>2011-11-01T14:12:19Z</time>
      </trkpt>
      <trkpt lat="43.91578" lon="7.31955">
        <ele>1135.452621</ele>
        <time>2011-11-01T14:12:28Z</time>
      </trkpt>
      <trkpt lat="43.91585" lon="7.31944">
        <ele>1137.452606</ele>
        <time>2011-11-01T14:12:36Z</time>
      </trkpt>
      <trkpt lat="43.9159" lon="7.31933">
        <ele>1139.452595</ele>
        <time>2011-11-01T14:12:44Z</time>
      </trkpt>
      <trkpt lat="43.91595" lon="7.31922">
        <ele>1139.452579</ele>
        <time>2011-11-01T14:12:53Z</time>
      </trkpt>
      <trkpt lat="43.91603" lon="7.31916">
        <ele>1140.452576</ele>
        <time>2011-11-01T14:13:01Z</time>
      </trkpt>
      <trkpt lat="43.91612" lon="7.3191">
        <ele>1143.452576</ele>
        <time>2011-11-01T14:13:10Z</time>
      </trkpt>
      <trkpt lat="43.91617" lon="7.319">
        <ele>1145.45256</ele>
        <time>2011-11-01T14:13:18Z</time>
      </trkpt>
      <trkpt lat="43.91621" lon="7.31889">
        <ele>1147.452545</ele>
        <time>2011-11-01T14:13:27Z</time>
      </trkpt>
      <trkpt lat="43.91627" lon="7.31879">
        <ele>1148.45253</ele>
        <time>2011-11-01T14:13:34Z</time>
      </trkpt>
      <trkpt lat="43.91635" lon="7.3187">
        <ele>1149.452526</ele>
        <time>2011-11-01T14:13:42Z</time>
      </trkpt>
      <trkpt lat="43.91642" lon="7.31861">
        <ele>1150.452515</ele>
        <time>2011-11-01T14:13:51Z</time>
      </trkpt>
      <trkpt lat="43.9165" lon="7.31853">
        <ele>1152.452511</ele>
        <time>2011-11-01T14:13:58Z</time>
      </trkpt>
      <trkpt lat="43.91658" lon="7.31848">
        <ele>1152.452511</ele>
        <time>2011-11-01T14:14:03Z</time>
      </trkpt>
      <trkpt lat="43.91667" lon="7.31843">
        <ele>1154.452515</ele>
        <time>2011-11-01T14:14:08Z</time>
      </trkpt>
      <trkpt lat="43.91676" lon="7.31837">
        <ele>1155.452515</ele>
        <time>2011-11-01T14:14:14Z</time>
      </trkpt>
      <trkpt lat="43.91686" lon="7.31829">
        <ele>1156.452507</ele>
        <time>2011-11-01T14:14:20Z</time>
      </trkpt>
      <trkpt lat="43.91694" lon="7.31822">
        <ele>1157.452507</ele>
        <time>2011-11-01T14:14:25Z</time>
      </trkpt>
      <trkpt lat="43.91702" lon="7.31815">
        <ele>1158.452507</ele>
        <time>2011-11-01T14:14:29Z</time>
      </trkpt>
      <trkpt lat="43.9171" lon="7.31808">
        <ele>1159.452499</ele>
        <time>2011-11-01T14:14:33Z</time>
      </trkpt>
      <trkpt lat="43.91717" lon="7.31799">
        <ele>1159.452492</ele>
        <time>2011-11-01T14:14:37Z</time>
      </trkpt>
      <trkpt lat="43.91724" lon="7.3179">
        <ele>1160.452477</ele>
        <time>2011-11-01T14:14:41Z</time>
      </trkpt>
      <trkpt lat="43.91731" lon="7.31781">
        <ele>1160.452473</ele>
        <time>2011-11-01T14:14:45Z</time>
      </trkpt>
      <trkpt lat="43.91737" lon="7.31772">
        <ele>1160.452461</ele>
        <time>2011-11-01T14:14:50Z</time>
      </trkpt>
      <trkpt lat="43.91744" lon="7.31763">
        <ele>1160.452454</ele>
        <time>2011-11-01T14:14:55Z</time>
      </trkpt>
      <trkpt lat="43.9175" lon="7.31753">
        <ele>1161.452438</ele>
        <time>2011-11-01T14:15:00Z</time>
      </trkpt>
      <trkpt lat="43.91756" lon="7.31742">
        <ele>1162.452427</ele>
        <time>2011-11-01T14:15:05Z</time>
      </trkpt>
      <trkpt lat="43.91762" lon="7.31731">
        <ele>1162.452415</ele>
        <time>2011-11-01T14:15:11Z</time>
      </trkpt>
      <trkpt lat="43.91767" lon="7.3172">
        <ele>1163.452396</ele>
        <time>2011-11-01T14:15:16Z</time>
      </trkpt>
      <trkpt lat="43.91774" lon="7.31706">
        <ele>1164.452377</ele>
        <time>2011-11-01T14:15:24Z</time>
      </trkpt>
      <trkpt lat="43.91779" lon="7.31695">
        <ele>1163.452362</ele>
        <time>2011-11-01T14:15:30Z</time>
      </trkpt>
      <trkpt lat="43.91783" lon="7.31682">
        <ele>1163.452339</ele>
        <time>2011-11-01T14:15:36Z</time>
      </trkpt>
      <trkpt lat="43.91786" lon="7.31669">
        <ele>1164.452316</ele>
        <time>2011-11-01T14:15:42Z</time>
      </trkpt>
      <trkpt lat="43.91786" lon="7.31682">
        <ele>1164.452343</ele>
        <time>2011-11-01T14:16:35Z</time>
      </trkpt>
      <trkpt lat="43.91781" lon="7.317">
        <ele>1164.452374</ele>
        <time>2011-11-01T14:16:38Z</time>
      </trkpt>
      <trkpt lat="43.91775" lon="7.31715">
        <ele>1164.4524</ele>
        <time>2011-11-01T14:16:41Z</time>
      </trkpt>
      <trkpt lat="43.91769" lon="7.31726">
        <ele>1165.452408</ele>
        <time>2011-11-01T14:16:43Z</time>
      </trkpt>
      <trkpt lat="43.91762" lon="7.31736">
        <ele>1165.452419</ele>
        <time>2011-11-01T14:16:45Z</time>
      </trkpt>
      <trkpt lat="43.91755" lon="7.31746">
        <ele>1166.452435</ele>
        <time>2011-11-01T14:16:47Z</time>
      </trkpt>
      <trkpt lat="43.91747" lon="7.31756">
        <ele>1167.452442</ele>
        <time>2011-11-01T14:16:49Z</time>
      </trkpt>
      <trkpt lat="43.9174" lon="7.31766">
        <ele>1168.452454</ele>
        <time>2011-11-01T14:16:51Z</time>
      </trkpt>
      <trkpt lat="43.91734" lon="7.31775">
        <ele>1168.452461</ele>
        <time>2011-11-01T14:16:53Z</time>
      </trkpt>
      <trkpt lat="43.91725" lon="7.31787">
        <ele>1169.452477</ele>
        <time>2011-11-01T14:16:56Z</time>
      </trkpt>
      <trkpt lat="43.91718" lon="7.31795">
        <ele>1169.452484</ele>
        <time>2011-11-01T14:16:59Z</time>
      </trkpt>
      <trkpt lat="43.9171" lon="7.31806">
        <ele>1170.452496</ele>
        <time>2011-11-01T14:17:02Z</time>
      </trkpt>
      <trkpt lat="43.91701" lon="7.31817">
        <ele>1170.452507</ele>
        <time>2011-11-01T14:17:05Z</time>
      </trkpt>
      <trkpt lat="43.91694" lon="7.31825">
        <ele>1171.452511</ele>
        <time>2011-11-01T14:17:07Z</time>
      </trkpt>
      <trkpt lat="43.91686" lon="7.31833">
        <ele>1171.452518</ele>
        <time>2011-11-01T14:17:09Z</time>
      </trkpt>
      <trkpt lat="43.91678" lon="7.31842">
        <ele>1171.452526</ele>
        <time>2011-11-01T14:17:11Z</time>
      </trkpt>
      <trkpt lat="43.91668" lon="7.3185">
        <ele>1171.45253</ele>
        <time>2011-11-01T14:17:13Z</time>
      </trkpt>
      <trkpt lat="43.91663" lon="7.31854">
        <ele>1171.45253</ele>
        <time>2011-11-01T14:17:14Z</time>
      </trkpt>
      <trkpt lat="43.91654" lon="7.31861">
        <ele>1171.45253</ele>
        <time>2011-11-01T14:17:16Z</time>
      </trkpt>
      <trkpt lat="43.91645" lon="7.31871">
        <ele>1171.452538</ele>
        <time>2011-11-01T14:17:18Z</time>
      </trkpt>
      <trkpt lat="43.91641" lon="7.31876">
        <ele>1171.452545</ele>
        <time>2011-11-01T14:17:19Z</time>
      </trkpt>
      <trkpt lat="43.91632" lon="7.31885">
        <ele>1172.452553</ele>
        <time>2011-11-01T14:17:21Z</time>
      </trkpt>
      <trkpt lat="43.91623" lon="7.31895">
        <ele>1171.45256</ele>
        <time>2011-11-01T14:17:24Z</time>
      </trkpt>
      <trkpt lat="43.9162" lon="7.31898">
        <ele>1172.45256</ele>
        <time>2011-11-01T14:17:25Z</time>
      </trkpt>
      <trkpt lat="43.91614" lon="7.31907">
        <ele>1172.452576</ele>
        <time>2011-11-01T14:17:29Z</time>
      </trkpt>
      <trkpt lat="43.91601" lon="7.31924">
        <ele>1169.452591</ele>
        <time>2011-11-01T14:17:37Z</time>
      </trkpt>
      <trkpt lat="43.91598" lon="7.31928">
        <ele>1169.452595</ele>
        <time>2011-11-01T14:17:38Z</time>
      </trkpt>
      <trkpt lat="43.91592" lon="7.31938">
        <ele>1168.452606</ele>
        <time>2011-11-01T14:17:40Z</time>
      </trkpt>
      <trkpt lat="43.91583" lon="7.31951">
        <ele>1166.452621</ele>
        <time>2011-11-01T14:17:43Z</time>
      </trkpt>
      <trkpt lat="43.91576" lon="7.31963">
        <ele>1163.452637</ele>
        <time>2011-11-01T14:17:46Z</time>
      </trkpt>
      <trkpt lat="43.91568" lon="7.31976">
        <ele>1162.452652</ele>
        <time>2011-11-01T14:17:49Z</time>
      </trkpt>
      <trkpt lat="43.9156" lon="7.31983">
        <ele>1158.452656</ele>
        <time>2011-11-01T14:17:52Z</time>
      </trkpt>
      <trkpt lat="43.91555" lon="7.31984">
        <ele>1154.452652</ele>
        <time>2011-11-01T14:18:00Z</time>
      </trkpt>
      <trkpt lat="43.91565" lon="7.31981">
        <ele>1131.45266</ele>
        <time>2011-11-01T14:19:11Z</time>
      </trkpt>
      <trkpt lat="43.91571" lon="7.31972">
        <ele>1130.452644</ele>
        <time>2011-11-01T14:19:15Z</time>
      </trkpt>
      <trkpt lat="43.91578" lon="7.31961">
        <ele>1131.452633</ele>
        <time>2011-11-01T14:19:20Z</time>
      </trkpt>
      <trkpt lat="43.91583" lon="7.3195">
        <ele>1132.452621</ele>
        <time>2011-11-01T14:19:27Z</time>
      </trkpt>
      <trkpt lat="43.91588" lon="7.31939">
        <ele>1135.452602</ele>
        <time>2011-11-01T14:19:35Z</time>
      </trkpt>
      <trkpt lat="43.91592" lon="7.31926">
        <ele>1135.452579</ele>
        <time>2011-11-01T14:19:43Z</time>
      </trkpt>
      <trkpt lat="43.91598" lon="7.31916">
        <ele>1139.452568</ele>
        <time>2011-11-01T14:19:53Z</time>
      </trkpt>
      <trkpt lat="43.91606" lon="7.31911">
        <ele>1140.452568</ele>
        <time>2011-11-01T14:20:04Z</time>
      </trkpt>
      <trkpt lat="43.91613" lon="7.31901">
        <ele>1142.45256</ele>
        <time>2011-11-01T14:20:16Z</time>
      </trkpt>
      <trkpt lat="43.91619" lon="7.31892">
        <ele>1145.452545</ele>
        <time>2011-11-01T14:20:28Z</time>
      </trkpt>
      <trkpt lat="43.91625" lon="7.31882">
        <ele>1146.452538</ele>
        <time>2011-11-01T14:20:38Z</time>
      </trkpt>
      <trkpt lat="43.91631" lon="7.31872">
        <ele>1152.452526</ele>
        <time>2011-11-01T14:21:02Z</time>
      </trkpt>
      <trkpt lat="43.9163" lon="7.31859">
        <ele>1153.452496</ele>
        <time>2011-11-01T14:21:25Z</time>
      </trkpt>
      <trkpt lat="43.91628" lon="7.31846">
        <ele>1156.452465</ele>
        <time>2011-11-01T14:21:48Z</time>
      </trkpt>
      <trkpt lat="43.91628" lon="7.31832">
        <ele>1165.452435</ele>
        <time>2011-11-01T14:22:20Z</time>
      </trkpt>
      <trkpt lat="43.91628" lon="7.31831">
        <ele>1165.452435</ele>
        <time>2011-11-01T14:22:21Z</time>
      </trkpt>
      <trkpt lat="43.91634" lon="7.31821">
        <ele>1166.452423</ele>
        <time>2011-11-01T14:22:34Z</time>
      </trkpt>
      <trkpt lat="43.91626" lon="7.31815">
        <ele>1171.4524</ele>
        <time>2011-11-01T14:23:11Z</time>
      </trkpt>
      <trkpt lat="43.91616" lon="7.31815">
        <ele>1171.452393</ele>
        <time>2011-11-01T14:23:22Z</time>
      </trkpt>
      <trkpt lat="43.91608" lon="7.3181">
        <ele>1175.452366</ele>
        <time>2011-11-01T14:23:36Z</time>
      </trkpt>
      <trkpt lat="43.91602" lon="7.31799">
        <ele>1180.452335</ele>
        <time>2011-11-01T14:23:49Z</time>
      </trkpt>
      <trkpt lat="43.91595" lon="7.31789">
        <ele>1180.452309</ele>
        <time>2011-11-01T14:24:03Z</time>
      </trkpt>
      <trkpt lat="43.91595" lon="7.31789">
        <ele>1180.452305</ele>
        <time>2011-11-01T14:24:04Z</time>
      </trkpt>
      <trkpt lat="43.91584" lon="7.31781">
        <ele>1186.452274</ele>
        <time>2011-11-01T14:24:21Z</time>
      </trkpt>
      <trkpt lat="43.91576" lon="7.31776">
        <ele>1191.452255</ele>
        <time>2011-11-01T14:24:41Z</time>
      </trkpt>
      <trkpt lat="43.91568" lon="7.31769">
        <ele>1193.452229</ele>
        <time>2011-11-01T14:24:52Z</time>
      </trkpt>
      <trkpt lat="43.91559" lon="7.31764">
        <ele>1195.452209</ele>
        <time>2011-11-01T14:25:04Z</time>
      </trkpt>
      <trkpt lat="43.91547" lon="7.31759">
        <ele>1200.452183</ele>
        <time>2011-11-01T14:25:21Z</time>
      </trkpt>
      <trkpt lat="43.91539" lon="7.31753">
        <ele>1204.452156</ele>
        <time>2011-11-01T14:25:37Z</time>
      </trkpt>
      <trkpt lat="43.91538" lon="7.31753">
        <ele>1204.452156</ele>
        <time>2011-11-01T14:25:38Z</time>
      </trkpt>
      <trkpt lat="43.91529" lon="7.31748">
        <ele>1207.452133</ele>
        <time>2011-11-01T14:25:49Z</time>
      </trkpt>
      <trkpt lat="43.9152" lon="7.31744">
        <ele>1208.452114</ele>
        <time>2011-11-01T14:25:59Z</time>
      </trkpt>
      <trkpt lat="43.91509" lon="7.31741">
        <ele>1208.452095</ele>
        <time>2011-11-01T14:26:09Z</time>
      </trkpt>
      <trkpt lat="43.915" lon="7.31738">
        <ele>1210.452072</ele>
        <time>2011-11-01T14:26:18Z</time>
      </trkpt>
      <trkpt lat="43.91492" lon="7.31732">
        <ele>1214.452049</ele>
        <time>2011-11-01T14:26:30Z</time>
      </trkpt>
      <trkpt lat="43.91491" lon="7.31731">
        <ele>1214.452049</ele>
        <time>2011-11-01T14:26:31Z</time>
      </trkpt>
      <trkpt lat="43.91481" lon="7.31729">
        <ele>1216.452034</ele>
        <time>2011-11-01T14:26:40Z</time>
      </trkpt>
      <trkpt lat="43.91469" lon="7.31725">
        <ele>1219.452003</ele>
        <time>2011-11-01T14:26:49Z</time>
      </trkpt>
      <trkpt lat="43.9146" lon="7.31719">
        <ele>1220.451984</ele>
        <time>2011-11-01T14:26:57Z</time>
      </trkpt>
      <trkpt lat="43.91451" lon="7.31717">
        <ele>1221.451965</ele>
        <time>2011-11-01T14:27:05Z</time>
      </trkpt>
      <trkpt lat="43.91441" lon="7.31715">
        <ele>1221.45195</ele>
        <time>2011-11-01T14:27:14Z</time>
      </trkpt>
      <trkpt lat="43.91441" lon="7.31715">
        <ele>1221.45195</ele>
        <time>2011-11-01T14:27:15Z</time>
      </trkpt>
      <trkpt lat="43.91432" lon="7.31709">
        <ele>1222.451927</ele>
        <time>2011-11-01T14:27:22Z</time>
      </trkpt>
      <trkpt lat="43.91425" lon="7.31701">
        <ele>1222.451897</ele>
        <time>2011-11-01T14:27:31Z</time>
      </trkpt>
      <trkpt lat="43.91416" lon="7.31698">
        <ele>1224.451881</ele>
        <time>2011-11-01T14:27:42Z</time>
      </trkpt>
      <trkpt lat="43.91408" lon="7.31691">
        <ele>1224.451859</ele>
        <time>2011-11-01T14:27:51Z</time>
      </trkpt>
      <trkpt lat="43.914" lon="7.31685">
        <ele>1224.451836</ele>
        <time>2011-11-01T14:27:58Z</time>
      </trkpt>
      <trkpt lat="43.91391" lon="7.3168">
        <ele>1224.451813</ele>
        <time>2011-11-01T14:28:05Z</time>
      </trkpt>
      <trkpt lat="43.91384" lon="7.31672">
        <ele>1226.451782</ele>
        <time>2011-11-01T14:28:20Z</time>
      </trkpt>
      <trkpt lat="43.91373" lon="7.31664">
        <ele>1229.451756</ele>
        <time>2011-11-01T14:28:40Z</time>
      </trkpt>
      <trkpt lat="43.91365" lon="7.31657">
        <ele>1230.451729</ele>
        <time>2011-11-01T14:28:52Z</time>
      </trkpt>
      <trkpt lat="43.91356" lon="7.31649">
        <ele>1232.451698</ele>
        <time>2011-11-01T14:29:07Z</time>
      </trkpt>
      <trkpt lat="43.91345" lon="7.3164">
        <ele>1236.451668</ele>
        <time>2011-11-01T14:29:21Z</time>
      </trkpt>
      <trkpt lat="43.91336" lon="7.31632">
        <ele>1238.451637</ele>
        <time>2011-11-01T14:29:34Z</time>
      </trkpt>
      <trkpt lat="43.91328" lon="7.31624">
        <ele>1239.451611</ele>
        <time>2011-11-01T14:29:46Z</time>
      </trkpt>
      <trkpt lat="43.91319" lon="7.3162">
        <ele>1240.451591</ele>
        <time>2011-11-01T14:29:56Z</time>
      </trkpt>
      <trkpt lat="43.91309" lon="7.31609">
        <ele>1241.451553</ele>
        <time>2011-11-01T14:30:10Z</time>
      </trkpt>
      <trkpt lat="43.91309" lon="7.31608">
        <ele>1242.45155</ele>
        <time>2011-11-01T14:30:11Z</time>
      </trkpt>
      <trkpt lat="43.91303" lon="7.31598">
        <ele>1242.451523</ele>
        <time>2011-11-01T14:30:22Z</time>
      </trkpt>
      <trkpt lat="43.91297" lon="7.31587">
        <ele>1245.451492</ele>
        <time>2011-11-01T14:30:44Z</time>
      </trkpt>
      <trkpt lat="43.91292" lon="7.31576">
        <ele>1244.451462</ele>
        <time>2011-11-01T14:30:54Z</time>
      </trkpt>
      <trkpt lat="43.91289" lon="7.31563">
        <ele>1247.451431</ele>
        <time>2011-11-01T14:31:05Z</time>
      </trkpt>
      <trkpt lat="43.9129" lon="7.31549">
        <ele>1247.451405</ele>
        <time>2011-11-01T14:31:18Z</time>
      </trkpt>
      <trkpt lat="43.91289" lon="7.31536">
        <ele>1247.451378</ele>
        <time>2011-11-01T14:31:24Z</time>
      </trkpt>
      <trkpt lat="43.91288" lon="7.31522">
        <ele>1246.451347</ele>
        <time>2011-11-01T14:31:31Z</time>
      </trkpt>
      <trkpt lat="43.9129" lon="7.31507">
        <ele>1248.451324</ele>
        <time>2011-11-01T14:31:38Z</time>
      </trkpt>
      <trkpt lat="43.91291" lon="7.31503">
        <ele>1249.451317</ele>
        <time>2011-11-01T14:31:40Z</time>
      </trkpt>
      <trkpt lat="43.91294" lon="7.31491">
        <ele>1249.451294</ele>
        <time>2011-11-01T14:31:48Z</time>
      </trkpt>
      <trkpt lat="43.91295" lon="7.31488">
        <ele>1249.451286</ele>
        <time>2011-11-01T14:31:50Z</time>
      </trkpt>
      <trkpt lat="43.91303" lon="7.31479">
        <ele>1252.451283</ele>
        <time>2011-11-01T14:31:58Z</time>
      </trkpt>
      <trkpt lat="43.91303" lon="7.31479">
        <ele>1252.451283</ele>
        <time>2011-11-01T14:32:00Z</time>
      </trkpt>
      <trkpt lat="43.91311" lon="7.31474">
        <ele>1253.451283</ele>
        <time>2011-11-01T14:32:09Z</time>
      </trkpt>
      <trkpt lat="43.91316" lon="7.31463">
        <ele>1256.451263</ele>
        <time>2011-11-01T14:32:19Z</time>
      </trkpt>
      <trkpt lat="43.91322" lon="7.31451">
        <ele>1258.451248</ele>
        <time>2011-11-01T14:32:25Z</time>
      </trkpt>
      <trkpt lat="43.91328" lon="7.31441">
        <ele>1259.451233</ele>
        <time>2011-11-01T14:32:29Z</time>
      </trkpt>
      <trkpt lat="43.91337" lon="7.31427">
        <ele>1260.451218</ele>
        <time>2011-11-01T14:32:34Z</time>
      </trkpt>
      <trkpt lat="43.91343" lon="7.31416">
        <ele>1262.45121</ele>
        <time>2011-11-01T14:32:38Z</time>
      </trkpt>
      <trkpt lat="43.91347" lon="7.3141">
        <ele>1262.451199</ele>
        <time>2011-11-01T14:32:40Z</time>
      </trkpt>
      <trkpt lat="43.91355" lon="7.31397">
        <ele>1264.451187</ele>
        <time>2011-11-01T14:32:44Z</time>
      </trkpt>
      <trkpt lat="43.91364" lon="7.31389">
        <ele>1265.45118</ele>
        <time>2011-11-01T14:32:47Z</time>
      </trkpt>
      <trkpt lat="43.91377" lon="7.31379">
        <ele>1268.451176</ele>
        <time>2011-11-01T14:32:51Z</time>
      </trkpt>
      <trkpt lat="43.91391" lon="7.31367">
        <ele>1270.451172</ele>
        <time>2011-11-01T14:32:55Z</time>
      </trkpt>
      <trkpt lat="43.91394" lon="7.31364">
        <ele>1270.451172</ele>
        <time>2011-11-01T14:32:57Z</time>
      </trkpt>
      <trkpt lat="43.91414" lon="7.31351">
        <ele>1272.451164</ele>
        <time>2011-11-01T14:33:02Z</time>
      </trkpt>
      <trkpt lat="43.91423" lon="7.31338">
        <ele>1273.451157</ele>
        <time>2011-11-01T14:33:05Z</time>
      </trkpt>
      <trkpt lat="43.91429" lon="7.31328">
        <ele>1273.451141</ele>
        <time>2011-11-01T14:33:07Z</time>
      </trkpt>
      <trkpt lat="43.91434" lon="7.31315">
        <ele>1273.451122</ele>
        <time>2011-11-01T14:33:09Z</time>
      </trkpt>
      <trkpt lat="43.91439" lon="7.31302">
        <ele>1272.451103</ele>
        <time>2011-11-01T14:33:11Z</time>
      </trkpt>
      <trkpt lat="43.91443" lon="7.31284">
        <ele>1271.451073</ele>
        <time>2011-11-01T14:33:13Z</time>
      </trkpt>
      <trkpt lat="43.91446" lon="7.31263">
        <ele>1270.451031</ele>
        <time>2011-11-01T14:33:15Z</time>
      </trkpt>
      <trkpt lat="43.9145" lon="7.31242">
        <ele>1269.450993</ele>
        <time>2011-11-01T14:33:17Z</time>
      </trkpt>
      <trkpt lat="43.91453" lon="7.31223">
        <ele>1267.450958</ele>
        <time>2011-11-01T14:33:19Z</time>
      </trkpt>
      <trkpt lat="43.91454" lon="7.31215">
        <ele>1265.450943</ele>
        <time>2011-11-01T14:33:20Z</time>
      </trkpt>
      <trkpt lat="43.91454" lon="7.31198">
        <ele>1263.450912</ele>
        <time>2011-11-01T14:33:22Z</time>
      </trkpt>
      <trkpt lat="43.91453" lon="7.31182">
        <ele>1263.450874</ele>
        <time>2011-11-01T14:33:24Z</time>
      </trkpt>
      <trkpt lat="43.91453" lon="7.31166">
        <ele>1262.450844</ele>
        <time>2011-11-01T14:33:26Z</time>
      </trkpt>
      <trkpt lat="43.91453" lon="7.31149">
        <ele>1260.450809</ele>
        <time>2011-11-01T14:33:28Z</time>
      </trkpt>
      <trkpt lat="43.91454" lon="7.31142">
        <ele>1259.450798</ele>
        <time>2011-11-01T14:33:29Z</time>
      </trkpt>
      <trkpt lat="43.91457" lon="7.31128">
        <ele>1257.450768</ele>
        <time>2011-11-01T14:33:31Z</time>
      </trkpt>
      <trkpt lat="43.91461" lon="7.31114">
        <ele>1256.450752</ele>
        <time>2011-11-01T14:33:33Z</time>
      </trkpt>
      <trkpt lat="43.91464" lon="7.31108">
        <ele>1255.450737</ele>
        <time>2011-11-01T14:33:34Z</time>
      </trkpt>
      <trkpt lat="43.91468" lon="7.31097">
        <ele>1253.450726</ele>
        <time>2011-11-01T14:33:36Z</time>
      </trkpt>
      <trkpt lat="43.9147" lon="7.31093">
        <ele>1253.450714</ele>
        <time>2011-11-01T14:33:37Z</time>
      </trkpt>
      <trkpt lat="43.91476" lon="7.31081">
        <ele>1251.450703</ele>
        <time>2011-11-01T14:33:41Z</time>
      </trkpt>
      <trkpt lat="43.91483" lon="7.31072">
        <ele>1249.450691</ele>
        <time>2011-11-01T14:33:46Z</time>
      </trkpt>
      <trkpt lat="43.91493" lon="7.31053">
        <ele>1249.450665</ele>
        <time>2011-11-01T14:33:54Z</time>
      </trkpt>
      <trkpt lat="43.915" lon="7.31032">
        <ele>1249.45063</ele>
        <time>2011-11-01T14:33:59Z</time>
      </trkpt>
      <trkpt lat="43.91509" lon="7.30996">
        <ele>1249.450569</ele>
        <time>2011-11-01T14:34:06Z</time>
      </trkpt>
      <trkpt lat="43.91509" lon="7.30996">
        <ele>1249.450569</ele>
        <time>2011-11-01T14:34:07Z</time>
      </trkpt>
      <trkpt lat="43.91511" lon="7.30977">
        <ele>1248.450531</ele>
        <time>2011-11-01T14:34:17Z</time>
      </trkpt>
      <trkpt lat="43.91507" lon="7.30963">
        <ele>1226.450504</ele>
        <time>2011-11-01T14:37:16Z</time>
      </trkpt>
      <trkpt lat="43.91507" lon="7.30957">
        <ele>1226.450485</ele>
        <time>2011-11-01T14:37:20Z</time>
      </trkpt>
      <trkpt lat="43.91509" lon="7.30944">
        <ele>1228.450466</ele>
        <time>2011-11-01T14:37:28Z</time>
      </trkpt>
      <trkpt lat="43.91512" lon="7.30932">
        <ele>1228.450447</ele>
        <time>2011-11-01T14:37:38Z</time>
      </trkpt>
      <trkpt lat="43.91515" lon="7.3092">
        <ele>1229.450424</ele>
        <time>2011-11-01T14:37:48Z</time>
      </trkpt>
      <trkpt lat="43.91512" lon="7.30906">
        <ele>1231.45039</ele>
        <time>2011-11-01T14:38:08Z</time>
      </trkpt>
      <trkpt lat="43.91512" lon="7.30903">
        <ele>1232.450386</ele>
        <time>2011-11-01T14:38:10Z</time>
      </trkpt>
      <trkpt lat="43.91512" lon="7.3089">
        <ele>1235.450359</ele>
        <time>2011-11-01T14:38:21Z</time>
      </trkpt>
      <trkpt lat="43.91514" lon="7.30887">
        <ele>1235.450356</ele>
        <time>2011-11-01T14:38:25Z</time>
      </trkpt>
      <trkpt lat="43.91513" lon="7.30874">
        <ele>1238.450329</ele>
        <time>2011-11-01T14:38:40Z</time>
      </trkpt>
      <trkpt lat="43.91515" lon="7.30861">
        <ele>1238.45031</ele>
        <time>2011-11-01T14:39:09Z</time>
      </trkpt>
      <trkpt lat="43.91515" lon="7.30859">
        <ele>1238.450302</ele>
        <time>2011-11-01T14:39:13Z</time>
      </trkpt>
      <trkpt lat="43.91514" lon="7.30846">
        <ele>1237.450272</ele>
        <time>2011-11-01T14:39:23Z</time>
      </trkpt>
      <trkpt lat="43.91514" lon="7.30845">
        <ele>1238.450264</ele>
        <time>2011-11-01T14:39:24Z</time>
      </trkpt>
      <trkpt lat="43.91513" lon="7.30827">
        <ele>1249.450233</ele>
        <time>2011-11-01T14:39:58Z</time>
      </trkpt>
      <trkpt lat="43.91511" lon="7.30826">
        <ele>1249.450226</ele>
        <time>2011-11-01T14:40:01Z</time>
      </trkpt>
      <trkpt lat="43.91502" lon="7.30817">
        <ele>1254.450195</ele>
        <time>2011-11-01T14:40:33Z</time>
      </trkpt>
      <trkpt lat="43.91502" lon="7.30816">
        <ele>1255.450191</ele>
        <time>2011-11-01T14:40:34Z</time>
      </trkpt>
      <trkpt lat="43.91492" lon="7.30812">
        <ele>1265.450172</ele>
        <time>2011-11-01T14:40:54Z</time>
      </trkpt>
      <trkpt lat="43.91482" lon="7.30808">
        <ele>1269.450153</ele>
        <time>2011-11-01T14:41:14Z</time>
      </trkpt>
      <trkpt lat="43.91472" lon="7.30803">
        <ele>1273.450127</ele>
        <time>2011-11-01T14:41:38Z</time>
      </trkpt>
      <trkpt lat="43.91467" lon="7.3079">
        <ele>1273.450092</ele>
        <time>2011-11-01T14:41:50Z</time>
      </trkpt>
      <trkpt lat="43.91469" lon="7.30781">
        <ele>1272.450081</ele>
        <time>2011-11-01T14:42:17Z</time>
      </trkpt>
      <trkpt lat="43.9147" lon="7.30769">
        <ele>1282.450054</ele>
        <time>2011-11-01T14:42:50Z</time>
      </trkpt>
      <trkpt lat="43.91469" lon="7.30762">
        <ele>1285.450043</ele>
        <time>2011-11-01T14:43:01Z</time>
      </trkpt>
      <trkpt lat="43.91469" lon="7.30748">
        <ele>1298.450012</ele>
        <time>2011-11-01T14:43:47Z</time>
      </trkpt>
      <trkpt lat="43.91469" lon="7.30737">
        <ele>1301.449989</ele>
        <time>2011-11-01T14:44:04Z</time>
      </trkpt>
      <trkpt lat="43.9147" lon="7.30725">
        <ele>1297.449963</ele>
        <time>2011-11-01T14:44:42Z</time>
      </trkpt>
      <trkpt lat="43.9147" lon="7.30724">
        <ele>1298.449963</ele>
        <time>2011-11-01T14:44:43Z</time>
      </trkpt>
      <trkpt lat="43.9147" lon="7.30723">
        <ele>1298.449959</ele>
        <time>2011-11-01T14:44:49Z</time>
      </trkpt>
      <trkpt lat="43.91475" lon="7.30712">
        <ele>1322.449947</ele>
        <time>2011-11-01T14:47:41Z</time>
      </trkpt>
      <trkpt lat="43.91475" lon="7.30712">
        <ele>1322.449947</ele>
        <time>2011-11-01T14:47:42Z</time>
      </trkpt>
      <trkpt lat="43.91468" lon="7.30703">
        <ele>1322.449921</ele>
        <time>2011-11-01T14:48:01Z</time>
      </trkpt>
      <trkpt lat="43.9146" lon="7.30699">
        <ele>1331.449898</ele>
        <time>2011-11-01T14:48:30Z</time>
      </trkpt>
      <trkpt lat="43.91451" lon="7.30696">
        <ele>1334.449879</ele>
        <time>2011-11-01T14:48:55Z</time>
      </trkpt>
      <trkpt lat="43.91446" lon="7.30696">
        <ele>1335.449871</ele>
        <time>2011-11-01T14:49:04Z</time>
      </trkpt>
      <trkpt lat="43.91444" lon="7.30683">
        <ele>1338.449844</ele>
        <time>2011-11-01T14:50:04Z</time>
      </trkpt>
      <trkpt lat="43.91446" lon="7.30679">
        <ele>1337.449837</ele>
        <time>2011-11-01T14:50:17Z</time>
      </trkpt>
      <trkpt lat="43.91446" lon="7.30665">
        <ele>1339.449814</ele>
        <time>2011-11-01T14:50:52Z</time>
      </trkpt>
      <trkpt lat="43.91448" lon="7.30653">
        <ele>1354.449791</ele>
        <time>2011-11-01T14:51:27Z</time>
      </trkpt>
      <trkpt lat="43.91439" lon="7.30651">
        <ele>1361.449768</ele>
        <time>2011-11-01T14:51:58Z</time>
      </trkpt>
      <trkpt lat="43.91432" lon="7.30652">
        <ele>1365.449764</ele>
        <time>2011-11-01T14:52:09Z</time>
      </trkpt>
      <trkpt lat="43.91422" lon="7.30648">
        <ele>1369.449745</ele>
        <time>2011-11-01T14:52:38Z</time>
      </trkpt>
      <trkpt lat="43.91421" lon="7.30647">
        <ele>1369.449745</ele>
        <time>2011-11-01T14:52:39Z</time>
      </trkpt>
      <trkpt lat="43.91415" lon="7.30639">
        <ele>1375.449715</ele>
        <time>2011-11-01T14:53:03Z</time>
      </trkpt>
      <trkpt lat="43.91413" lon="7.30626">
        <ele>1378.449684</ele>
        <time>2011-11-01T14:53:48Z</time>
      </trkpt>
      <trkpt lat="43.91413" lon="7.30626">
        <ele>1378.449684</ele>
        <time>2011-11-01T14:53:49Z</time>
      </trkpt>
      <trkpt lat="43.91414" lon="7.30612">
        <ele>1384.449657</ele>
        <time>2011-11-01T14:54:17Z</time>
      </trkpt>
      <trkpt lat="43.91412" lon="7.306">
        <ele>1386.449631</ele>
        <time>2011-11-01T14:54:47Z</time>
      </trkpt>
      <trkpt lat="43.91412" lon="7.30599">
        <ele>1386.449627</ele>
        <time>2011-11-01T14:54:49Z</time>
      </trkpt>
      <trkpt lat="43.91403" lon="7.3059">
        <ele>1389.4496</ele>
        <time>2011-11-01T14:55:19Z</time>
      </trkpt>
      <trkpt lat="43.91397" lon="7.3058">
        <ele>1393.44957</ele>
        <time>2011-11-01T14:56:04Z</time>
      </trkpt>
      <trkpt lat="43.91398" lon="7.30567">
        <ele>1400.449547</ele>
        <time>2011-11-01T14:56:28Z</time>
      </trkpt>
      <trkpt lat="43.91402" lon="7.30556">
        <ele>1408.449532</ele>
        <time>2011-11-01T14:57:26Z</time>
      </trkpt>
      <trkpt lat="43.914" lon="7.30555">
        <ele>1408.449524</ele>
        <time>2011-11-01T14:57:34Z</time>
      </trkpt>
      <trkpt lat="43.91395" lon="7.30545">
        <ele>1415.449493</ele>
        <time>2011-11-01T14:57:56Z</time>
      </trkpt>
      <trkpt lat="43.91395" lon="7.30544">
        <ele>1415.449493</ele>
        <time>2011-11-01T14:57:57Z</time>
      </trkpt>
      <trkpt lat="43.9139" lon="7.30533">
        <ele>1421.449463</ele>
        <time>2011-11-01T14:58:39Z</time>
      </trkpt>
      <trkpt lat="43.91386" lon="7.30521">
        <ele>1430.449432</ele>
        <time>2011-11-01T14:59:17Z</time>
      </trkpt>
      <trkpt lat="43.91386" lon="7.3052">
        <ele>1430.449432</ele>
        <time>2011-11-01T14:59:18Z</time>
      </trkpt>
      <trkpt lat="43.91386" lon="7.30505">
        <ele>1433.449402</ele>
        <time>2011-11-01T14:59:39Z</time>
      </trkpt>
      <trkpt lat="43.91381" lon="7.30494">
        <ele>1437.449371</ele>
        <time>2011-11-01T15:00:38Z</time>
      </trkpt>
      <trkpt lat="43.91381" lon="7.30481">
        <ele>1441.449348</ele>
        <time>2011-11-01T15:01:23Z</time>
      </trkpt>
      <trkpt lat="43.91387" lon="7.30472">
        <ele>1441.449341</ele>
        <time>2011-11-01T15:02:08Z</time>
      </trkpt>
      <trkpt lat="43.9139" lon="7.3046">
        <ele>1448.449314</ele>
        <time>2011-11-01T15:02:27Z</time>
      </trkpt>
      <trkpt lat="43.91393" lon="7.30448">
        <ele>1451.449295</ele>
        <time>2011-11-01T15:02:43Z</time>
      </trkpt>
      <trkpt lat="43.91396" lon="7.30435">
        <ele>1456.449276</ele>
        <time>2011-11-01T15:02:57Z</time>
      </trkpt>
      <trkpt lat="43.91396" lon="7.30417">
        <ele>1457.449234</ele>
        <time>2011-11-01T15:04:27Z</time>
      </trkpt>
      <trkpt lat="43.91386" lon="7.30412">
        <ele>1460.449211</ele>
        <time>2011-11-01T15:04:52Z</time>
      </trkpt>
      <trkpt lat="43.91372" lon="7.30418">
        <ele>1465.449203</ele>
        <time>2011-11-01T15:05:18Z</time>
      </trkpt>
      <trkpt lat="43.91358" lon="7.30411">
        <ele>1467.449173</ele>
        <time>2011-11-01T15:05:41Z</time>
      </trkpt>
      <trkpt lat="43.91349" lon="7.30402">
        <ele>1468.449142</ele>
        <time>2011-11-01T15:05:49Z</time>
      </trkpt>
      <trkpt lat="43.91336" lon="7.30392">
        <ele>1467.449104</ele>
        <time>2011-11-01T15:06:00Z</time>
      </trkpt>
      <trkpt lat="43.91325" lon="7.30386">
        <ele>1468.449074</ele>
        <time>2011-11-01T15:06:09Z</time>
      </trkpt>
      <trkpt lat="43.91315" lon="7.30382">
        <ele>1467.449051</ele>
        <time>2011-11-01T15:06:20Z</time>
      </trkpt>
      <trkpt lat="43.91314" lon="7.30381">
        <ele>1467.449051</ele>
        <time>2011-11-01T15:06:21Z</time>
      </trkpt>
      <trkpt lat="43.91308" lon="7.30372">
        <ele>1469.449024</ele>
        <time>2011-11-01T15:06:48Z</time>
      </trkpt>
      <trkpt lat="43.91298" lon="7.30369">
        <ele>1471.449005</ele>
        <time>2011-11-01T15:26:05Z</time>
      </trkpt>
      <trkpt lat="43.9129" lon="7.30363">
        <ele>1472.448982</ele>
        <time>2011-11-01T15:26:27Z</time>
      </trkpt>
      <trkpt lat="43.91282" lon="7.30357">
        <ele>1477.448963</ele>
        <time>2011-11-01T15:26:42Z</time>
      </trkpt>
      <trkpt lat="43.91273" lon="7.30355">
        <ele>1481.448944</ele>
        <time>2011-11-01T15:27:08Z</time>
      </trkpt>
      <trkpt lat="43.91263" lon="7.30354">
        <ele>1481.448929</ele>
        <time>2011-11-01T15:27:22Z</time>
      </trkpt>
      <trkpt lat="43.91256" lon="7.30346">
        <ele>1480.448906</ele>
        <time>2011-11-01T15:27:46Z</time>
      </trkpt>
      <trkpt lat="43.91247" lon="7.30349">
        <ele>1483.448898</ele>
        <time>2011-11-01T15:28:03Z</time>
      </trkpt>
      <trkpt lat="43.91238" lon="7.3035">
        <ele>1484.448883</ele>
        <time>2011-11-01T15:28:16Z</time>
      </trkpt>
      <trkpt lat="43.91228" lon="7.30349">
        <ele>1486.448868</ele>
        <time>2011-11-01T15:28:30Z</time>
      </trkpt>
      <trkpt lat="43.9122" lon="7.30346">
        <ele>1491.448853</ele>
        <time>2011-11-01T15:28:44Z</time>
      </trkpt>
      <trkpt lat="43.91216" lon="7.30345">
        <ele>1493.448845</ele>
        <time>2011-11-01T15:28:48Z</time>
      </trkpt>
      <trkpt lat="43.91206" lon="7.30339">
        <ele>1492.448822</ele>
        <time>2011-11-01T15:28:59Z</time>
      </trkpt>
      <trkpt lat="43.91196" lon="7.3034">
        <ele>1494.448807</ele>
        <time>2011-11-01T15:30:01Z</time>
      </trkpt>
      <trkpt lat="43.91187" lon="7.30338">
        <ele>1495.448795</ele>
        <time>2011-11-01T15:30:19Z</time>
      </trkpt>
      <trkpt lat="43.91177" lon="7.30339">
        <ele>1492.44878</ele>
        <time>2011-11-01T15:30:49Z</time>
      </trkpt>
      <trkpt lat="43.91168" lon="7.30343">
        <ele>1494.448776</ele>
        <time>2011-11-01T15:30:58Z</time>
      </trkpt>
      <trkpt lat="43.91158" lon="7.30345">
        <ele>1494.448769</ele>
        <time>2011-11-01T15:31:12Z</time>
      </trkpt>
      <trkpt lat="43.91149" lon="7.30345">
        <ele>1496.448753</ele>
        <time>2011-11-01T15:31:24Z</time>
      </trkpt>
      <trkpt lat="43.91139" lon="7.30346">
        <ele>1499.448746</ele>
        <time>2011-11-01T15:31:36Z</time>
      </trkpt>
      <trkpt lat="43.9113" lon="7.30345">
        <ele>1500.44873</ele>
        <time>2011-11-01T15:31:49Z</time>
      </trkpt>
      <trkpt lat="43.91121" lon="7.30343">
        <ele>1503.448715</ele>
        <time>2011-11-01T15:32:00Z</time>
      </trkpt>
      <trkpt lat="43.91111" lon="7.30346">
        <ele>1505.448704</ele>
        <time>2011-11-01T15:32:09Z</time>
      </trkpt>
      <trkpt lat="43.91103" lon="7.30355">
        <ele>1503.448715</ele>
        <time>2011-11-01T15:32:20Z</time>
      </trkpt>
      <trkpt lat="43.91094" lon="7.30359">
        <ele>1502.448708</ele>
        <time>2011-11-01T15:32:34Z</time>
      </trkpt>
      <trkpt lat="43.91084" lon="7.30358">
        <ele>1502.4487</ele>
        <time>2011-11-01T15:32:45Z</time>
      </trkpt>
      <trkpt lat="43.91076" lon="7.30365">
        <ele>1503.4487</ele>
        <time>2011-11-01T15:33:46Z</time>
      </trkpt>
      <trkpt lat="43.91059" lon="7.30361">
        <ele>1505.448669</ele>
        <time>2011-11-01T15:34:15Z</time>
      </trkpt>
      <trkpt lat="43.91047" lon="7.30361">
        <ele>1508.44865</ele>
        <time>2011-11-01T15:34:25Z</time>
      </trkpt>
      <trkpt lat="43.91037" lon="7.30362">
        <ele>1508.448639</ele>
        <time>2011-11-01T15:34:36Z</time>
      </trkpt>
      <trkpt lat="43.91028" lon="7.3036">
        <ele>1508.448624</ele>
        <time>2011-11-01T15:35:22Z</time>
      </trkpt>
      <trkpt lat="43.91019" lon="7.30361">
        <ele>1503.448616</ele>
        <time>2011-11-01T15:36:07Z</time>
      </trkpt>
      <trkpt lat="43.91017" lon="7.30362">
        <ele>1503.448616</ele>
        <time>2011-11-01T15:36:09Z</time>
      </trkpt>
      <trkpt lat="43.91017" lon="7.30362">
        <ele>1503.448612</ele>
        <time>2011-11-01T15:36:10Z</time>
      </trkpt>
      <trkpt lat="43.91016" lon="7.30362">
        <ele>1502.448612</ele>
        <time>2011-11-01T15:36:11Z</time>
      </trkpt>
      <trkpt lat="43.91005" lon="7.30364">
        <ele>1503.448601</ele>
        <time>2011-11-01T15:36:29Z</time>
      </trkpt>
      <trkpt lat="43.90995" lon="7.30367">
        <ele>1503.448593</ele>
        <time>2011-11-01T15:36:53Z</time>
      </trkpt>
      <trkpt lat="43.90987" lon="7.30376">
        <ele>1504.448601</ele>
        <time>2011-11-01T15:37:13Z</time>
      </trkpt>
      <trkpt lat="43.90977" lon="7.30375">
        <ele>1503.448586</ele>
        <time>2011-11-01T15:37:30Z</time>
      </trkpt>
      <trkpt lat="43.90969" lon="7.30371">
        <ele>1501.448566</ele>
        <time>2011-11-01T15:37:44Z</time>
      </trkpt>
      <trkpt lat="43.90966" lon="7.3037">
        <ele>1501.448559</ele>
        <time>2011-11-01T15:37:48Z</time>
      </trkpt>
      <trkpt lat="43.90957" lon="7.30366">
        <ele>1503.44854</ele>
        <time>2011-11-01T15:38:52Z</time>
      </trkpt>
      <trkpt lat="43.9095" lon="7.30356">
        <ele>1498.448509</ele>
        <time>2011-11-01T15:39:10Z</time>
      </trkpt>
      <trkpt lat="43.9094" lon="7.30349">
        <ele>1497.448486</ele>
        <time>2011-11-01T15:39:32Z</time>
      </trkpt>
      <trkpt lat="43.90932" lon="7.30353">
        <ele>1498.448479</ele>
        <time>2011-11-01T15:39:48Z</time>
      </trkpt>
      <trkpt lat="43.90923" lon="7.30355">
        <ele>1497.448471</ele>
        <time>2011-11-01T15:40:14Z</time>
      </trkpt>
      <trkpt lat="43.90908" lon="7.3035">
        <ele>1498.448441</ele>
        <time>2011-11-01T15:40:28Z</time>
      </trkpt>
      <trkpt lat="43.90897" lon="7.30345">
        <ele>1500.448418</ele>
        <time>2011-11-01T15:40:45Z</time>
      </trkpt>
      <trkpt lat="43.90888" lon="7.30344">
        <ele>1502.448402</ele>
        <time>2011-11-01T15:41:06Z</time>
      </trkpt>
      <trkpt lat="43.90887" lon="7.30343">
        <ele>1502.448399</ele>
        <time>2011-11-01T15:41:08Z</time>
      </trkpt>
      <trkpt lat="43.90875" lon="7.30337">
        <ele>1504.448372</ele>
        <time>2011-11-01T15:41:26Z</time>
      </trkpt>
      <trkpt lat="43.90874" lon="7.30337">
        <ele>1503.448372</ele>
        <time>2011-11-01T15:41:29Z</time>
      </trkpt>
      <trkpt lat="43.9087" lon="7.30325">
        <ele>1491.448334</ele>
        <time>2011-11-01T15:42:51Z</time>
      </trkpt>
      <trkpt lat="43.90877" lon="7.30315">
        <ele>1488.448326</ele>
        <time>2011-11-01T15:43:19Z</time>
      </trkpt>
      <trkpt lat="43.90883" lon="7.30305">
        <ele>1484.448315</ele>
        <time>2011-11-01T15:43:42Z</time>
      </trkpt>
      <trkpt lat="43.90886" lon="7.30292">
        <ele>1484.448288</ele>
        <time>2011-11-01T15:44:00Z</time>
      </trkpt>
      <trkpt lat="43.90882" lon="7.30279">
        <ele>1481.448257</ele>
        <time>2011-11-01T15:44:15Z</time>
      </trkpt>
      <trkpt lat="43.90882" lon="7.30278">
        <ele>1481.448257</ele>
        <time>2011-11-01T15:44:16Z</time>
      </trkpt>
      <trkpt lat="43.90883" lon="7.30265">
        <ele>1464.448235</ele>
        <time>2011-11-01T15:45:00Z</time>
      </trkpt>
      <trkpt lat="43.90887" lon="7.30252">
        <ele>1454.448212</ele>
        <time>2011-11-01T15:45:35Z</time>
      </trkpt>
      <trkpt lat="43.90889" lon="7.3025">
        <ele>1453.448208</ele>
        <time>2011-11-01T15:45:38Z</time>
      </trkpt>
      <trkpt lat="43.90897" lon="7.30244">
        <ele>1452.448212</ele>
        <time>2011-11-01T15:45:55Z</time>
      </trkpt>
      <trkpt lat="43.90902" lon="7.30233">
        <ele>1450.448193</ele>
        <time>2011-11-01T15:46:17Z</time>
      </trkpt>
      <trkpt lat="43.909" lon="7.30221">
        <ele>1449.448166</ele>
        <time>2011-11-01T15:46:30Z</time>
      </trkpt>
      <trkpt lat="43.909" lon="7.3022">
        <ele>1449.448166</ele>
        <time>2011-11-01T15:46:31Z</time>
      </trkpt>
      <trkpt lat="43.90898" lon="7.30208">
        <ele>1440.448135</ele>
        <time>2011-11-01T15:46:59Z</time>
      </trkpt>
      <trkpt lat="43.90899" lon="7.30203">
        <ele>1437.448128</ele>
        <time>2011-11-01T15:47:09Z</time>
      </trkpt>
      <trkpt lat="43.90898" lon="7.3019">
        <ele>1434.448105</ele>
        <time>2011-11-01T15:47:30Z</time>
      </trkpt>
      <trkpt lat="43.90896" lon="7.30178">
        <ele>1431.448078</ele>
        <time>2011-11-01T15:47:55Z</time>
      </trkpt>
      <trkpt lat="43.90896" lon="7.30177">
        <ele>1431.448071</ele>
        <time>2011-11-01T15:47:57Z</time>
      </trkpt>
      <trkpt lat="43.90898" lon="7.30165">
        <ele>1428.448051</ele>
        <time>2011-11-01T15:48:19Z</time>
      </trkpt>
      <trkpt lat="43.90904" lon="7.30156">
        <ele>1421.448044</ele>
        <time>2011-11-01T15:48:44Z</time>
      </trkpt>
      <trkpt lat="43.90909" lon="7.30145">
        <ele>1417.448021</ele>
        <time>2011-11-01T15:49:09Z</time>
      </trkpt>
      <trkpt lat="43.90904" lon="7.30133">
        <ele>1414.447994</ele>
        <time>2011-11-01T15:49:21Z</time>
      </trkpt>
      <trkpt lat="43.90902" lon="7.30121">
        <ele>1410.44796</ele>
        <time>2011-11-01T15:49:37Z</time>
      </trkpt>
      <trkpt lat="43.90902" lon="7.3012">
        <ele>1409.44796</ele>
        <time>2011-11-01T15:49:38Z</time>
      </trkpt>
      <trkpt lat="43.90906" lon="7.30108">
        <ele>1400.447945</ele>
        <time>2011-11-01T15:50:10Z</time>
      </trkpt>
      <trkpt lat="43.90905" lon="7.30092">
        <ele>1392.44791</ele>
        <time>2011-11-01T15:50:40Z</time>
      </trkpt>
      <trkpt lat="43.90903" lon="7.3008">
        <ele>1392.447884</ele>
        <time>2011-11-01T15:50:43Z</time>
      </trkpt>
      <trkpt lat="43.90897" lon="7.30068">
        <ele>1392.447853</ele>
        <time>2011-11-01T15:50:46Z</time>
      </trkpt>
      <trkpt lat="43.9089" lon="7.30057">
        <ele>1390.447815</ele>
        <time>2011-11-01T15:50:49Z</time>
      </trkpt>
      <trkpt lat="43.90887" lon="7.30054">
        <ele>1390.447807</ele>
        <time>2011-11-01T15:50:50Z</time>
      </trkpt>
      <trkpt lat="43.90879" lon="7.30046">
        <ele>1390.447777</ele>
        <time>2011-11-01T15:50:53Z</time>
      </trkpt>
      <trkpt lat="43.90877" lon="7.30044">
        <ele>1390.447773</ele>
        <time>2011-11-01T15:50:54Z</time>
      </trkpt>
      <trkpt lat="43.9087" lon="7.30035">
        <ele>1391.447746</ele>
        <time>2011-11-01T15:50:59Z</time>
      </trkpt>
      <trkpt lat="43.90862" lon="7.30019">
        <ele>1381.447701</ele>
        <time>2011-11-01T15:51:49Z</time>
      </trkpt>
      <trkpt lat="43.90859" lon="7.30006">
        <ele>1381.44767</ele>
        <time>2011-11-01T15:51:52Z</time>
      </trkpt>
      <trkpt lat="43.90856" lon="7.29994">
        <ele>1380.447643</ele>
        <time>2011-11-01T15:51:54Z</time>
      </trkpt>
      <trkpt lat="43.90853" lon="7.2998">
        <ele>1380.447609</ele>
        <time>2011-11-01T15:51:56Z</time>
      </trkpt>
      <trkpt lat="43.90849" lon="7.29968">
        <ele>1378.447586</ele>
        <time>2011-11-01T15:51:58Z</time>
      </trkpt>
      <trkpt lat="43.90846" lon="7.29954">
        <ele>1376.447544</ele>
        <time>2011-11-01T15:52:01Z</time>
      </trkpt>
      <trkpt lat="43.90844" lon="7.2994">
        <ele>1376.447517</ele>
        <time>2011-11-01T15:52:06Z</time>
      </trkpt>
      <trkpt lat="43.90844" lon="7.2993">
        <ele>1376.447495</ele>
        <time>2011-11-01T15:52:14Z</time>
      </trkpt>
      <trkpt lat="43.9084" lon="7.29918">
        <ele>1379.447468</ele>
        <time>2011-11-01T15:52:21Z</time>
      </trkpt>
      <trkpt lat="43.90829" lon="7.29897">
        <ele>1382.447407</ele>
        <time>2011-11-01T15:52:31Z</time>
      </trkpt>
      <trkpt lat="43.90819" lon="7.29884">
        <ele>1381.447365</ele>
        <time>2011-11-01T15:52:34Z</time>
      </trkpt>
      <trkpt lat="43.90812" lon="7.29875">
        <ele>1380.447342</ele>
        <time>2011-11-01T15:52:36Z</time>
      </trkpt>
      <trkpt lat="43.90803" lon="7.29867">
        <ele>1380.447311</ele>
        <time>2011-11-01T15:52:38Z</time>
      </trkpt>
      <trkpt lat="43.90794" lon="7.29858">
        <ele>1379.447281</ele>
        <time>2011-11-01T15:52:40Z</time>
      </trkpt>
      <trkpt lat="43.90785" lon="7.29851">
        <ele>1379.44725</ele>
        <time>2011-11-01T15:52:42Z</time>
      </trkpt>
      <trkpt lat="43.90774" lon="7.29843">
        <ele>1378.447227</ele>
        <time>2011-11-01T15:52:45Z</time>
      </trkpt>
      <trkpt lat="43.90765" lon="7.29836">
        <ele>1377.447197</ele>
        <time>2011-11-01T15:52:48Z</time>
      </trkpt>
      <trkpt lat="43.90762" lon="7.29833">
        <ele>1377.447186</ele>
        <time>2011-11-01T15:52:49Z</time>
      </trkpt>
      <trkpt lat="43.90753" lon="7.29822">
        <ele>1376.447151</ele>
        <time>2011-11-01T15:52:52Z</time>
      </trkpt>
      <trkpt lat="43.90745" lon="7.29814">
        <ele>1375.447124</ele>
        <time>2011-11-01T15:52:54Z</time>
      </trkpt>
      <trkpt lat="43.90737" lon="7.29805">
        <ele>1375.447098</ele>
        <time>2011-11-01T15:52:56Z</time>
      </trkpt>
      <trkpt lat="43.90729" lon="7.29796">
        <ele>1375.447067</ele>
        <time>2011-11-01T15:52:58Z</time>
      </trkpt>
      <trkpt lat="43.90718" lon="7.29786">
        <ele>1374.447029</ele>
        <time>2011-11-01T15:53:01Z</time>
      </trkpt>
      <trkpt lat="43.90713" lon="7.29783">
        <ele>1372.447021</ele>
        <time>2011-11-01T15:53:03Z</time>
      </trkpt>
      <trkpt lat="43.90702" lon="7.29795">
        <ele>1363.447029</ele>
        <time>2011-11-01T15:53:15Z</time>
      </trkpt>
      <trkpt lat="43.90693" lon="7.29787">
        <ele>1359.446999</ele>
        <time>2011-11-01T15:53:21Z</time>
      </trkpt>
      <trkpt lat="43.90686" lon="7.29774">
        <ele>1356.446964</ele>
        <time>2011-11-01T15:53:25Z</time>
      </trkpt>
      <trkpt lat="43.90688" lon="7.2976">
        <ele>1355.446938</ele>
        <time>2011-11-01T15:53:30Z</time>
      </trkpt>
      <trkpt lat="43.90683" lon="7.29749">
        <ele>1355.446907</ele>
        <time>2011-11-01T15:53:33Z</time>
      </trkpt>
      <trkpt lat="43.90673" lon="7.29736">
        <ele>1354.446869</ele>
        <time>2011-11-01T15:53:36Z</time>
      </trkpt>
      <trkpt lat="43.9067" lon="7.29731">
        <ele>1354.446854</ele>
        <time>2011-11-01T15:53:37Z</time>
      </trkpt>
      <trkpt lat="43.9066" lon="7.2972">
        <ele>1354.446815</ele>
        <time>2011-11-01T15:53:40Z</time>
      </trkpt>
      <trkpt lat="43.90651" lon="7.29711">
        <ele>1352.446789</ele>
        <time>2011-11-01T15:53:43Z</time>
      </trkpt>
      <trkpt lat="43.90641" lon="7.29701">
        <ele>1350.446751</ele>
        <time>2011-11-01T15:53:46Z</time>
      </trkpt>
      <trkpt lat="43.90631" lon="7.29694">
        <ele>1349.446724</ele>
        <time>2011-11-01T15:53:48Z</time>
      </trkpt>
      <trkpt lat="43.90623" lon="7.29689">
        <ele>1347.446701</ele>
        <time>2011-11-01T15:53:50Z</time>
      </trkpt>
      <trkpt lat="43.90615" lon="7.29686">
        <ele>1344.446686</ele>
        <time>2011-11-01T15:53:53Z</time>
      </trkpt>
      <trkpt lat="43.90607" lon="7.29682">
        <ele>1341.446663</ele>
        <time>2011-11-01T15:53:57Z</time>
      </trkpt>
      <trkpt lat="43.90598" lon="7.29679">
        <ele>1338.446651</ele>
        <time>2011-11-01T15:54:03Z</time>
      </trkpt>
      <trkpt lat="43.90591" lon="7.29669">
        <ele>1336.446621</ele>
        <time>2011-11-01T15:54:08Z</time>
      </trkpt>
      <trkpt lat="43.90586" lon="7.29659">
        <ele>1336.446594</ele>
        <time>2011-11-01T15:54:11Z</time>
      </trkpt>
      <trkpt lat="43.90584" lon="7.29657">
        <ele>1336.446583</ele>
        <time>2011-11-01T15:54:12Z</time>
      </trkpt>
      <trkpt lat="43.90575" lon="7.29642">
        <ele>1333.446541</ele>
        <time>2011-11-01T15:54:22Z</time>
      </trkpt>
      <trkpt lat="43.90568" lon="7.2963">
        <ele>1329.44651</ele>
        <time>2011-11-01T15:54:29Z</time>
      </trkpt>
      <trkpt lat="43.90567" lon="7.29627">
        <ele>1328.446503</ele>
        <time>2011-11-01T15:54:30Z</time>
      </trkpt>
      <trkpt lat="43.90558" lon="7.29615">
        <ele>1325.446465</ele>
        <time>2011-11-01T15:54:34Z</time>
      </trkpt>
      <trkpt lat="43.9055" lon="7.29604">
        <ele>1324.446434</ele>
        <time>2011-11-01T15:54:37Z</time>
      </trkpt>
      <trkpt lat="43.90543" lon="7.29595">
        <ele>1323.446404</ele>
        <time>2011-11-01T15:54:40Z</time>
      </trkpt>
      <trkpt lat="43.90536" lon="7.29587">
        <ele>1323.446381</ele>
        <time>2011-11-01T15:54:42Z</time>
      </trkpt>
      <trkpt lat="43.90532" lon="7.29582">
        <ele>1323.446362</ele>
        <time>2011-11-01T15:54:43Z</time>
      </trkpt>
      <trkpt lat="43.90525" lon="7.29571">
        <ele>1321.446327</ele>
        <time>2011-11-01T15:54:46Z</time>
      </trkpt>
      <trkpt lat="43.90516" lon="7.29561">
        <ele>1319.446297</ele>
        <time>2011-11-01T15:54:50Z</time>
      </trkpt>
      <trkpt lat="43.90508" lon="7.29551">
        <ele>1317.446266</ele>
        <time>2011-11-01T15:54:54Z</time>
      </trkpt>
      <trkpt lat="43.90506" lon="7.29549">
        <ele>1317.446259</ele>
        <time>2011-11-01T15:54:55Z</time>
      </trkpt>
      <trkpt lat="43.90496" lon="7.2954">
        <ele>1315.446228</ele>
        <time>2011-11-01T15:54:59Z</time>
      </trkpt>
      <trkpt lat="43.90487" lon="7.29529">
        <ele>1315.44619</ele>
        <time>2011-11-01T15:55:03Z</time>
      </trkpt>
      <trkpt lat="43.90478" lon="7.2952">
        <ele>1315.446167</ele>
        <time>2011-11-01T15:55:07Z</time>
      </trkpt>
      <trkpt lat="43.90474" lon="7.29515">
        <ele>1315.446148</ele>
        <time>2011-11-01T15:55:09Z</time>
      </trkpt>
      <trkpt lat="43.90462" lon="7.29504">
        <ele>1315.446106</ele>
        <time>2011-11-01T15:55:16Z</time>
      </trkpt>
      <trkpt lat="43.90449" lon="7.2949">
        <ele>1316.44606</ele>
        <time>2011-11-01T15:55:24Z</time>
      </trkpt>
      <trkpt lat="43.90441" lon="7.29481">
        <ele>1317.44603</ele>
        <time>2011-11-01T15:55:28Z</time>
      </trkpt>
      <trkpt lat="43.9044" lon="7.29479">
        <ele>1317.446026</ele>
        <time>2011-11-01T15:55:29Z</time>
      </trkpt>
      <trkpt lat="43.90433" lon="7.2947">
        <ele>1315.445999</ele>
        <time>2011-11-01T15:55:39Z</time>
      </trkpt>
      <trkpt lat="43.90431" lon="7.29463">
        <ele>1312.445984</ele>
        <time>2011-11-01T15:55:44Z</time>
      </trkpt>
      <trkpt lat="43.90431" lon="7.29448">
        <ele>1310.44595</ele>
        <time>2011-11-01T15:55:57Z</time>
      </trkpt>
      <trkpt lat="43.90433" lon="7.29432">
        <ele>1310.445919</ele>
        <time>2011-11-01T15:56:01Z</time>
      </trkpt>
      <trkpt lat="43.90435" lon="7.29419">
        <ele>1310.4459</ele>
        <time>2011-11-01T15:56:04Z</time>
      </trkpt>
      <trkpt lat="43.90435" lon="7.29403">
        <ele>1310.445862</ele>
        <time>2011-11-01T15:56:07Z</time>
      </trkpt>
      <trkpt lat="43.90436" lon="7.29394">
        <ele>1311.445847</ele>
        <time>2011-11-01T15:56:09Z</time>
      </trkpt>
      <trkpt lat="43.90436" lon="7.29381">
        <ele>1311.44582</ele>
        <time>2011-11-01T15:56:11Z</time>
      </trkpt>
      <trkpt lat="43.90437" lon="7.29368">
        <ele>1312.445797</ele>
        <time>2011-11-01T15:56:13Z</time>
      </trkpt>
      <trkpt lat="43.90437" lon="7.29349">
        <ele>1312.445755</ele>
        <time>2011-11-01T15:56:16Z</time>
      </trkpt>
      <trkpt lat="43.90437" lon="7.29337">
        <ele>1313.445728</ele>
        <time>2011-11-01T15:56:18Z</time>
      </trkpt>
      <trkpt lat="43.90434" lon="7.29322">
        <ele>1314.445702</ele>
        <time>2011-11-01T15:56:21Z</time>
      </trkpt>
      <trkpt lat="43.90432" lon="7.29305">
        <ele>1315.445663</ele>
        <time>2011-11-01T15:56:24Z</time>
      </trkpt>
      <trkpt lat="43.90432" lon="7.29292">
        <ele>1317.445633</ele>
        <time>2011-11-01T15:56:27Z</time>
      </trkpt>
      <trkpt lat="43.90432" lon="7.29276">
        <ele>1319.445602</ele>
        <time>2011-11-01T15:56:31Z</time>
      </trkpt>
      <trkpt lat="43.90435" lon="7.29259">
        <ele>1320.445572</ele>
        <time>2011-11-01T15:56:35Z</time>
      </trkpt>
      <trkpt lat="43.90438" lon="7.29241">
        <ele>1321.445538</ele>
        <time>2011-11-01T15:56:39Z</time>
      </trkpt>
      <trkpt lat="43.90443" lon="7.2921">
        <ele>1323.44548</ele>
        <time>2011-11-01T15:56:47Z</time>
      </trkpt>
      <trkpt lat="43.90444" lon="7.29194">
        <ele>1323.44545</ele>
        <time>2011-11-01T15:56:52Z</time>
      </trkpt>
      <trkpt lat="43.90448" lon="7.29179">
        <ele>1322.445427</ele>
        <time>2011-11-01T15:56:55Z</time>
      </trkpt>
      <trkpt lat="43.90454" lon="7.29166">
        <ele>1322.445404</ele>
        <time>2011-11-01T15:56:57Z</time>
      </trkpt>
      <trkpt lat="43.9046" lon="7.29153">
        <ele>1322.445389</ele>
        <time>2011-11-01T15:56:59Z</time>
      </trkpt>
      <trkpt lat="43.90468" lon="7.29138">
        <ele>1322.44537</ele>
        <time>2011-11-01T15:57:01Z</time>
      </trkpt>
      <trkpt lat="43.90477" lon="7.29125">
        <ele>1322.445351</ele>
        <time>2011-11-01T15:57:03Z</time>
      </trkpt>
      <trkpt lat="43.90485" lon="7.29115">
        <ele>1322.445343</ele>
        <time>2011-11-01T15:57:05Z</time>
      </trkpt>
      <trkpt lat="43.90493" lon="7.29106">
        <ele>1322.445328</ele>
        <time>2011-11-01T15:57:07Z</time>
      </trkpt>
      <trkpt lat="43.90508" lon="7.29069">
        <ele>1328.445278</ele>
        <time>2011-11-01T15:57:17Z</time>
      </trkpt>
      <trkpt lat="43.90511" lon="7.29053">
        <ele>1330.445251</ele>
        <time>2011-11-01T15:57:20Z</time>
      </trkpt>
      <trkpt lat="43.90518" lon="7.29042">
        <ele>1330.445236</ele>
        <time>2011-11-01T15:57:23Z</time>
      </trkpt>
      <trkpt lat="43.90527" lon="7.29033">
        <ele>1329.445229</ele>
        <time>2011-11-01T15:57:26Z</time>
      </trkpt>
      <trkpt lat="43.90537" lon="7.28997">
        <ele>1315.445168</ele>
        <time>2011-11-01T15:57:42Z</time>
      </trkpt>
      <trkpt lat="43.90527" lon="7.28965">
        <ele>1310.445087</ele>
        <time>2011-11-01T15:57:51Z</time>
      </trkpt>
      <trkpt lat="43.90514" lon="7.28945">
        <ele>1302.44503</ele>
        <time>2011-11-01T15:58:07Z</time>
      </trkpt>
      <trkpt lat="43.90505" lon="7.28945">
        <ele>1284.445023</ele>
        <time>2011-11-01T15:58:44Z</time>
      </trkpt>
      <trkpt lat="43.90502" lon="7.28957">
        <ele>1278.445038</ele>
        <time>2011-11-01T15:58:51Z</time>
      </trkpt>
      <trkpt lat="43.90491" lon="7.28959">
        <ele>1279.44503</ele>
        <time>2011-11-01T15:59:02Z</time>
      </trkpt>
      <trkpt lat="43.90482" lon="7.28956">
        <ele>1279.445011</ele>
        <time>2011-11-01T15:59:05Z</time>
      </trkpt>
      <trkpt lat="43.90471" lon="7.28953">
        <ele>1280.444992</ele>
        <time>2011-11-01T15:59:07Z</time>
      </trkpt>
      <trkpt lat="43.90462" lon="7.28953">
        <ele>1281.444981</ele>
        <time>2011-11-01T15:59:09Z</time>
      </trkpt>
      <trkpt lat="43.90449" lon="7.28953">
        <ele>1280.444962</ele>
        <time>2011-11-01T15:59:12Z</time>
      </trkpt>
      <trkpt lat="43.90438" lon="7.28952">
        <ele>1281.444946</ele>
        <time>2011-11-01T15:59:15Z</time>
      </trkpt>
      <trkpt lat="43.90434" lon="7.28952">
        <ele>1281.444942</ele>
        <time>2011-11-01T15:59:16Z</time>
      </trkpt>
      <trkpt lat="43.90423" lon="7.28953">
        <ele>1282.444923</ele>
        <time>2011-11-01T15:59:19Z</time>
      </trkpt>
      <trkpt lat="43.90413" lon="7.28954">
        <ele>1283.444916</ele>
        <time>2011-11-01T15:59:22Z</time>
      </trkpt>
      <trkpt lat="43.9041" lon="7.28954">
        <ele>1283.444912</ele>
        <time>2011-11-01T15:59:23Z</time>
      </trkpt>
      <trkpt lat="43.90407" lon="7.28953">
        <ele>1283.444904</ele>
        <time>2011-11-01T15:59:24Z</time>
      </trkpt>
      <trkpt lat="43.90397" lon="7.28947">
        <ele>1284.444878</ele>
        <time>2011-11-01T15:59:28Z</time>
      </trkpt>
      <trkpt lat="43.90391" lon="7.28932">
        <ele>1285.444839</ele>
        <time>2011-11-01T15:59:32Z</time>
      </trkpt>
      <trkpt lat="43.90385" lon="7.28922">
        <ele>1286.444809</ele>
        <time>2011-11-01T15:59:35Z</time>
      </trkpt>
      <trkpt lat="43.90379" lon="7.28911">
        <ele>1286.444786</ele>
        <time>2011-11-01T15:59:38Z</time>
      </trkpt>
      <trkpt lat="43.90376" lon="7.28908">
        <ele>1286.444771</ele>
        <time>2011-11-01T15:59:39Z</time>
      </trkpt>
      <trkpt lat="43.90368" lon="7.28897">
        <ele>1286.44474</ele>
        <time>2011-11-01T15:59:42Z</time>
      </trkpt>
      <trkpt lat="43.90361" lon="7.28884">
        <ele>1285.444702</ele>
        <time>2011-11-01T15:59:45Z</time>
      </trkpt>
      <trkpt lat="43.90354" lon="7.28869">
        <ele>1284.44466</ele>
        <time>2011-11-01T15:59:48Z</time>
      </trkpt>
      <trkpt lat="43.90346" lon="7.28856">
        <ele>1284.444626</ele>
        <time>2011-11-01T15:59:51Z</time>
      </trkpt>
      <trkpt lat="43.90338" lon="7.28844">
        <ele>1284.444588</ele>
        <time>2011-11-01T15:59:54Z</time>
      </trkpt>
      <trkpt lat="43.90322" lon="7.28831">
        <ele>1284.444538</ele>
        <time>2011-11-01T16:00:05Z</time>
      </trkpt>
      <trkpt lat="43.90313" lon="7.28827">
        <ele>1283.444519</ele>
        <time>2011-11-01T16:00:14Z</time>
      </trkpt>
      <trkpt lat="43.90303" lon="7.28822">
        <ele>1283.444496</ele>
        <time>2011-11-01T16:00:32Z</time>
      </trkpt>
      <trkpt lat="43.90294" lon="7.2881">
        <ele>1283.444458</ele>
        <time>2011-11-01T16:00:34Z</time>
      </trkpt>
      <trkpt lat="43.90279" lon="7.28792">
        <ele>1284.444401</ele>
        <time>2011-11-01T16:00:37Z</time>
      </trkpt>
      <trkpt lat="43.90271" lon="7.28786">
        <ele>1285.444382</ele>
        <time>2011-11-01T16:00:39Z</time>
      </trkpt>
      <trkpt lat="43.90262" lon="7.28779">
        <ele>1285.444351</ele>
        <time>2011-11-01T16:00:42Z</time>
      </trkpt>
      <trkpt lat="43.90251" lon="7.28771">
        <ele>1284.444321</ele>
        <time>2011-11-01T16:00:46Z</time>
      </trkpt>
      <trkpt lat="43.90245" lon="7.28767">
        <ele>1285.444305</ele>
        <time>2011-11-01T16:00:48Z</time>
      </trkpt>
      <trkpt lat="43.90236" lon="7.2876">
        <ele>1284.444279</ele>
        <time>2011-11-01T16:00:51Z</time>
      </trkpt>
      <trkpt lat="43.90227" lon="7.28751">
        <ele>1283.444244</ele>
        <time>2011-11-01T16:00:54Z</time>
      </trkpt>
      <trkpt lat="43.90216" lon="7.28742">
        <ele>1282.444214</ele>
        <time>2011-11-01T16:00:57Z</time>
      </trkpt>
      <trkpt lat="43.90205" lon="7.28733">
        <ele>1282.444183</ele>
        <time>2011-11-01T16:01:00Z</time>
      </trkpt>
      <trkpt lat="43.90197" lon="7.28727">
        <ele>1280.444157</ele>
        <time>2011-11-01T16:01:04Z</time>
      </trkpt>
      <trkpt lat="43.90187" lon="7.28721">
        <ele>1279.444134</ele>
        <time>2011-11-01T16:01:09Z</time>
      </trkpt>
      <trkpt lat="43.90176" lon="7.2871">
        <ele>1275.444092</ele>
        <time>2011-11-01T16:01:21Z</time>
      </trkpt>
      <trkpt lat="43.9017" lon="7.287">
        <ele>1275.444065</ele>
        <time>2011-11-01T16:01:25Z</time>
      </trkpt>
      <trkpt lat="43.90172" lon="7.28713">
        <ele>1264.444092</ele>
        <time>2011-11-01T16:01:53Z</time>
      </trkpt>
      <trkpt lat="43.90163" lon="7.28713">
        <ele>1260.44408</ele>
        <time>2011-11-01T16:02:14Z</time>
      </trkpt>
      <trkpt lat="43.90152" lon="7.28711">
        <ele>1260.444065</ele>
        <time>2011-11-01T16:02:25Z</time>
      </trkpt>
      <trkpt lat="43.90139" lon="7.28709">
        <ele>1259.444038</ele>
        <time>2011-11-01T16:02:32Z</time>
      </trkpt>
      <trkpt lat="43.90134" lon="7.28707">
        <ele>1258.444031</ele>
        <time>2011-11-01T16:02:34Z</time>
      </trkpt>
      <trkpt lat="43.90125" lon="7.28702">
        <ele>1256.444008</ele>
        <time>2011-11-01T16:02:37Z</time>
      </trkpt>
      <trkpt lat="43.90116" lon="7.28695">
        <ele>1254.443977</ele>
        <time>2011-11-01T16:02:41Z</time>
      </trkpt>
      <trkpt lat="43.90107" lon="7.28686">
        <ele>1253.443954</ele>
        <time>2011-11-01T16:02:45Z</time>
      </trkpt>
      <trkpt lat="43.90101" lon="7.28676">
        <ele>1252.443924</ele>
        <time>2011-11-01T16:02:49Z</time>
      </trkpt>
      <trkpt lat="43.90094" lon="7.28665">
        <ele>1250.443893</ele>
        <time>2011-11-01T16:02:54Z</time>
      </trkpt>
      <trkpt lat="43.90088" lon="7.28655">
        <ele>1247.443863</ele>
        <time>2011-11-01T16:02:59Z</time>
      </trkpt>
      <trkpt lat="43.90079" lon="7.28647">
        <ele>1243.443836</ele>
        <time>2011-11-01T16:03:04Z</time>
      </trkpt>
      <trkpt lat="43.90068" lon="7.28644">
        <ele>1241.443813</ele>
        <time>2011-11-01T16:03:08Z</time>
      </trkpt>
      <trkpt lat="43.90059" lon="7.28641">
        <ele>1239.443794</ele>
        <time>2011-11-01T16:03:11Z</time>
      </trkpt>
      <trkpt lat="43.90056" lon="7.28641">
        <ele>1239.44379</ele>
        <time>2011-11-01T16:03:12Z</time>
      </trkpt>
      <trkpt lat="43.90045" lon="7.28641">
        <ele>1237.443779</ele>
        <time>2011-11-01T16:03:16Z</time>
      </trkpt>
      <trkpt lat="43.90043" lon="7.28641">
        <ele>1237.443771</ele>
        <time>2011-11-01T16:03:17Z</time>
      </trkpt>
      <trkpt lat="43.90034" lon="7.28645">
        <ele>1234.443771</ele>
        <time>2011-11-01T16:03:21Z</time>
      </trkpt>
      <trkpt lat="43.90031" lon="7.28647">
        <ele>1230.443768</ele>
        <time>2011-11-01T16:03:25Z</time>
      </trkpt>
      <trkpt lat="43.9004" lon="7.28648">
        <ele>1218.443779</ele>
        <time>2011-11-01T16:03:43Z</time>
      </trkpt>
      <trkpt lat="43.9004" lon="7.28648">
        <ele>1218.443779</ele>
        <time>2011-11-01T16:03:44Z</time>
      </trkpt>
      <trkpt lat="43.90031" lon="7.28649">
        <ele>1218.443771</ele>
        <time>2011-11-01T16:03:56Z</time>
      </trkpt>
      <trkpt lat="43.90019" lon="7.28648">
        <ele>1217.443756</ele>
        <time>2011-11-01T16:03:59Z</time>
      </trkpt>
      <trkpt lat="43.9001" lon="7.28644">
        <ele>1217.443733</ele>
        <time>2011-11-01T16:04:02Z</time>
      </trkpt>
      <trkpt lat="43.9" lon="7.2864">
        <ele>1216.44371</ele>
        <time>2011-11-01T16:04:06Z</time>
      </trkpt>
      <trkpt lat="43.89991" lon="7.28637">
        <ele>1216.443691</ele>
        <time>2011-11-01T16:04:10Z</time>
      </trkpt>
      <trkpt lat="43.8998" lon="7.28638">
        <ele>1215.44368</ele>
        <time>2011-11-01T16:04:14Z</time>
      </trkpt>
      <trkpt lat="43.89968" lon="7.28637">
        <ele>1215.443665</ele>
        <time>2011-11-01T16:04:17Z</time>
      </trkpt>
      <trkpt lat="43.89957" lon="7.28636">
        <ele>1214.443645</ele>
        <time>2011-11-01T16:04:19Z</time>
      </trkpt>
      <trkpt lat="43.89952" lon="7.28635">
        <ele>1214.443634</ele>
        <time>2011-11-01T16:04:20Z</time>
      </trkpt>
      <trkpt lat="43.89943" lon="7.28631">
        <ele>1214.443619</ele>
        <time>2011-11-01T16:04:22Z</time>
      </trkpt>
      <trkpt lat="43.89933" lon="7.28625">
        <ele>1213.443588</ele>
        <time>2011-11-01T16:04:24Z</time>
      </trkpt>
      <trkpt lat="43.89924" lon="7.28621">
        <ele>1213.443569</ele>
        <time>2011-11-01T16:04:26Z</time>
      </trkpt>
      <trkpt lat="43.89913" lon="7.2862">
        <ele>1214.44355</ele>
        <time>2011-11-01T16:04:29Z</time>
      </trkpt>
      <trkpt lat="43.899" lon="7.2862">
        <ele>1215.443535</ele>
        <time>2011-11-01T16:04:32Z</time>
      </trkpt>
      <trkpt lat="43.8989" lon="7.28621">
        <ele>1216.443523</ele>
        <time>2011-11-01T16:04:34Z</time>
      </trkpt>
      <trkpt lat="43.89885" lon="7.28621">
        <ele>1215.44352</ele>
        <time>2011-11-01T16:04:35Z</time>
      </trkpt>
      <trkpt lat="43.89875" lon="7.28622">
        <ele>1215.443504</ele>
        <time>2011-11-01T16:04:37Z</time>
      </trkpt>
      <trkpt lat="43.89865" lon="7.28623">
        <ele>1214.443493</ele>
        <time>2011-11-01T16:04:39Z</time>
      </trkpt>
      <trkpt lat="43.89856" lon="7.28622">
        <ele>1214.443481</ele>
        <time>2011-11-01T16:04:41Z</time>
      </trkpt>
      <trkpt lat="43.89847" lon="7.28621">
        <ele>1214.443466</ele>
        <time>2011-11-01T16:04:43Z</time>
      </trkpt>
      <trkpt lat="43.89837" lon="7.2862">
        <ele>1214.443451</ele>
        <time>2011-11-01T16:04:45Z</time>
      </trkpt>
      <trkpt lat="43.89825" lon="7.28618">
        <ele>1213.443432</ele>
        <time>2011-11-01T16:04:48Z</time>
      </trkpt>
      <trkpt lat="43.89815" lon="7.28618">
        <ele>1212.443417</ele>
        <time>2011-11-01T16:04:52Z</time>
      </trkpt>
      <trkpt lat="43.89805" lon="7.28617">
        <ele>1211.443398</ele>
        <time>2011-11-01T16:04:55Z</time>
      </trkpt>
      <trkpt lat="43.89802" lon="7.28616">
        <ele>1211.443394</ele>
        <time>2011-11-01T16:04:56Z</time>
      </trkpt>
      <trkpt lat="43.89789" lon="7.28614">
        <ele>1209.443375</ele>
        <time>2011-11-01T16:04:59Z</time>
      </trkpt>
      <trkpt lat="43.8978" lon="7.28614">
        <ele>1209.443363</ele>
        <time>2011-11-01T16:05:01Z</time>
      </trkpt>
      <trkpt lat="43.89771" lon="7.28615">
        <ele>1208.443352</ele>
        <time>2011-11-01T16:05:03Z</time>
      </trkpt>
      <trkpt lat="43.89758" lon="7.28621">
        <ele>1206.443344</ele>
        <time>2011-11-01T16:05:06Z</time>
      </trkpt>
      <trkpt lat="43.89745" lon="7.28625">
        <ele>1205.443336</ele>
        <time>2011-11-01T16:05:09Z</time>
      </trkpt>
      <trkpt lat="43.89736" lon="7.2863">
        <ele>1204.443333</ele>
        <time>2011-11-01T16:05:11Z</time>
      </trkpt>
      <trkpt lat="43.89727" lon="7.28635">
        <ele>1203.443329</ele>
        <time>2011-11-01T16:05:13Z</time>
      </trkpt>
      <trkpt lat="43.89717" lon="7.2864">
        <ele>1201.443329</ele>
        <time>2011-11-01T16:05:15Z</time>
      </trkpt>
      <trkpt lat="43.89708" lon="7.28645">
        <ele>1200.443329</ele>
        <time>2011-11-01T16:05:17Z</time>
      </trkpt>
      <trkpt lat="43.89704" lon="7.28647">
        <ele>1200.443325</ele>
        <time>2011-11-01T16:05:18Z</time>
      </trkpt>
      <trkpt lat="43.89691" lon="7.28653">
        <ele>1200.443321</ele>
        <time>2011-11-01T16:05:21Z</time>
      </trkpt>
      <trkpt lat="43.8968" lon="7.28657">
        <ele>1200.443314</ele>
        <time>2011-11-01T16:05:24Z</time>
      </trkpt>
      <trkpt lat="43.89671" lon="7.28662">
        <ele>1199.44331</ele>
        <time>2011-11-01T16:05:27Z</time>
      </trkpt>
      <trkpt lat="43.89664" lon="7.28665">
        <ele>1198.443306</ele>
        <time>2011-11-01T16:05:29Z</time>
      </trkpt>
      <trkpt lat="43.89654" lon="7.28669">
        <ele>1196.443306</ele>
        <time>2011-11-01T16:05:32Z</time>
      </trkpt>
      <trkpt lat="43.89646" lon="7.28674">
        <ele>1195.443298</ele>
        <time>2011-11-01T16:05:35Z</time>
      </trkpt>
      <trkpt lat="43.8963" lon="7.28679">
        <ele>1193.443291</ele>
        <time>2011-11-01T16:05:57Z</time>
      </trkpt>
      <trkpt lat="43.89616" lon="7.28684">
        <ele>1192.443279</ele>
        <time>2011-11-01T16:06:00Z</time>
      </trkpt>
      <trkpt lat="43.89612" lon="7.28685">
        <ele>1192.443279</ele>
        <time>2011-11-01T16:06:01Z</time>
      </trkpt>
      <trkpt lat="43.89601" lon="7.28685">
        <ele>1190.443264</ele>
        <time>2011-11-01T16:06:04Z</time>
      </trkpt>
      <trkpt lat="43.89593" lon="7.28685">
        <ele>1188.443253</ele>
        <time>2011-11-01T16:06:06Z</time>
      </trkpt>
      <trkpt lat="43.89582" lon="7.28682">
        <ele>1186.44323</ele>
        <time>2011-11-01T16:06:09Z</time>
      </trkpt>
      <trkpt lat="43.89573" lon="7.28676">
        <ele>1184.443207</ele>
        <time>2011-11-01T16:06:12Z</time>
      </trkpt>
      <trkpt lat="43.89559" lon="7.28663">
        <ele>1171.443161</ele>
        <time>2011-11-01T16:06:30Z</time>
      </trkpt>
      <trkpt lat="43.89539" lon="7.28668">
        <ele>1165.443146</ele>
        <time>2011-11-01T16:06:40Z</time>
      </trkpt>
      <trkpt lat="43.89524" lon="7.28673">
        <ele>1164.443134</ele>
        <time>2011-11-01T16:06:45Z</time>
      </trkpt>
      <trkpt lat="43.8952" lon="7.28674">
        <ele>1164.44313</ele>
        <time>2011-11-01T16:06:46Z</time>
      </trkpt>
      <trkpt lat="43.89507" lon="7.28678">
        <ele>1163.443123</ele>
        <time>2011-11-01T16:06:49Z</time>
      </trkpt>
      <trkpt lat="43.89494" lon="7.28683">
        <ele>1161.443115</ele>
        <time>2011-11-01T16:06:52Z</time>
      </trkpt>
      <trkpt lat="43.89485" lon="7.2869">
        <ele>1161.443115</ele>
        <time>2011-11-01T16:06:55Z</time>
      </trkpt>
      <trkpt lat="43.89476" lon="7.28697">
        <ele>1158.443119</ele>
        <time>2011-11-01T16:06:59Z</time>
      </trkpt>
      <trkpt lat="43.89465" lon="7.28699">
        <ele>1155.443108</ele>
        <time>2011-11-01T16:07:05Z</time>
      </trkpt>
      <trkpt lat="43.89455" lon="7.28702">
        <ele>1154.4431</ele>
        <time>2011-11-01T16:07:08Z</time>
      </trkpt>
      <trkpt lat="43.89446" lon="7.28706">
        <ele>1151.443096</ele>
        <time>2011-11-01T16:07:11Z</time>
      </trkpt>
      <trkpt lat="43.89443" lon="7.28708">
        <ele>1149.443096</ele>
        <time>2011-11-01T16:07:12Z</time>
      </trkpt>
      <trkpt lat="43.89435" lon="7.28713">
        <ele>1147.4431</ele>
        <time>2011-11-01T16:07:16Z</time>
      </trkpt>
      <trkpt lat="43.89432" lon="7.28715">
        <ele>1147.4431</ele>
        <time>2011-11-01T16:07:17Z</time>
      </trkpt>
      <trkpt lat="43.89421" lon="7.28725">
        <ele>1147.4431</ele>
        <time>2011-11-01T16:07:21Z</time>
      </trkpt>
      <trkpt lat="43.89418" lon="7.28729">
        <ele>1147.443108</ele>
        <time>2011-11-01T16:07:22Z</time>
      </trkpt>
      <trkpt lat="43.89408" lon="7.28737">
        <ele>1146.443108</ele>
        <time>2011-11-01T16:07:25Z</time>
      </trkpt>
      <trkpt lat="43.89403" lon="7.28742">
        <ele>1146.443115</ele>
        <time>2011-11-01T16:07:27Z</time>
      </trkpt>
      <trkpt lat="43.89394" lon="7.28752">
        <ele>1146.443123</ele>
        <time>2011-11-01T16:07:31Z</time>
      </trkpt>
      <trkpt lat="43.89392" lon="7.28755">
        <ele>1145.443123</ele>
        <time>2011-11-01T16:07:32Z</time>
      </trkpt>
      <trkpt lat="43.89385" lon="7.28763">
        <ele>1144.44313</ele>
        <time>2011-11-01T16:07:35Z</time>
      </trkpt>
      <trkpt lat="43.894" lon="7.28777">
        <ele>1137.443176</ele>
        <time>2011-11-01T16:07:51Z</time>
      </trkpt>
      <trkpt lat="43.89409" lon="7.28773">
        <ele>1120.443184</ele>
        <time>2011-11-01T16:08:22Z</time>
      </trkpt>
      <trkpt lat="43.89421" lon="7.28771">
        <ele>1118.443192</ele>
        <time>2011-11-01T16:08:25Z</time>
      </trkpt>
      <trkpt lat="43.89434" lon="7.28774">
        <ele>1116.443222</ele>
        <time>2011-11-01T16:08:28Z</time>
      </trkpt>
      <trkpt lat="43.89442" lon="7.28779">
        <ele>1115.443237</ele>
        <time>2011-11-01T16:08:31Z</time>
      </trkpt>
      <trkpt lat="43.89452" lon="7.28785">
        <ele>1114.443264</ele>
        <time>2011-11-01T16:08:34Z</time>
      </trkpt>
      <trkpt lat="43.89462" lon="7.28789">
        <ele>1112.443287</ele>
        <time>2011-11-01T16:08:37Z</time>
      </trkpt>
      <trkpt lat="43.89473" lon="7.28791">
        <ele>1111.44331</ele>
        <time>2011-11-01T16:08:40Z</time>
      </trkpt>
      <trkpt lat="43.89476" lon="7.28792">
        <ele>1111.443314</ele>
        <time>2011-11-01T16:08:41Z</time>
      </trkpt>
      <trkpt lat="43.89474" lon="7.28776">
        <ele>1104.443275</ele>
        <time>2011-11-01T16:09:19Z</time>
      </trkpt>
      <trkpt lat="43.89464" lon="7.28774">
        <ele>1103.443256</ele>
        <time>2011-11-01T16:09:25Z</time>
      </trkpt>
      <trkpt lat="43.89455" lon="7.2877">
        <ele>1104.443241</ele>
        <time>2011-11-01T16:09:32Z</time>
      </trkpt>
      <trkpt lat="43.89445" lon="7.28767">
        <ele>1104.443222</ele>
        <time>2011-11-01T16:09:40Z</time>
      </trkpt>
      <trkpt lat="43.89433" lon="7.28762">
        <ele>1107.443192</ele>
        <time>2011-11-01T16:09:59Z</time>
      </trkpt>
      <trkpt lat="43.89424" lon="7.28762">
        <ele>1109.44318</ele>
        <time>2011-11-01T16:10:11Z</time>
      </trkpt>
      <trkpt lat="43.89414" lon="7.28766">
        <ele>1111.443176</ele>
        <time>2011-11-01T16:10:19Z</time>
      </trkpt>
      <trkpt lat="43.89405" lon="7.28769">
        <ele>1113.443169</ele>
        <time>2011-11-01T16:10:28Z</time>
      </trkpt>
      <trkpt lat="43.89396" lon="7.28771">
        <ele>1113.443161</ele>
        <time>2011-11-01T16:10:36Z</time>
      </trkpt>
      <trkpt lat="43.89387" lon="7.28771">
        <ele>1118.44315</ele>
        <time>2011-11-01T16:10:56Z</time>
      </trkpt>
      <trkpt lat="43.89378" lon="7.28772">
        <ele>1117.443138</ele>
        <time>2011-11-01T16:11:12Z</time>
      </trkpt>
      <trkpt lat="43.89367" lon="7.28774">
        <ele>1117.443123</ele>
        <time>2011-11-01T16:11:23Z</time>
      </trkpt>
      <trkpt lat="43.89358" lon="7.28775">
        <ele>1117.443115</ele>
        <time>2011-11-01T16:11:35Z</time>
      </trkpt>
      <trkpt lat="43.89348" lon="7.28773">
        <ele>1116.4431</ele>
        <time>2011-11-01T16:11:50Z</time>
      </trkpt>
      <trkpt lat="43.89343" lon="7.28762">
        <ele>1115.443069</ele>
        <time>2011-11-01T16:12:37Z</time>
      </trkpt>
      <trkpt lat="43.89337" lon="7.28752">
        <ele>1116.443043</ele>
        <time>2011-11-01T16:12:55Z</time>
      </trkpt>
      <trkpt lat="43.89335" lon="7.2875">
        <ele>1116.443035</ele>
        <time>2011-11-01T16:12:57Z</time>
      </trkpt>
      <trkpt lat="43.89327" lon="7.28743">
        <ele>1115.443008</ele>
        <time>2011-11-01T16:13:07Z</time>
      </trkpt>
      <trkpt lat="43.89326" lon="7.28742">
        <ele>1115.443008</ele>
        <time>2011-11-01T16:13:08Z</time>
      </trkpt>
      <trkpt lat="43.89317" lon="7.28738">
        <ele>1114.442986</ele>
        <time>2011-11-01T16:13:20Z</time>
      </trkpt>
      <trkpt lat="43.89314" lon="7.28737">
        <ele>1113.442978</ele>
        <time>2011-11-01T16:13:23Z</time>
      </trkpt>
      <trkpt lat="43.89304" lon="7.28733">
        <ele>1112.442959</ele>
        <time>2011-11-01T16:13:35Z</time>
      </trkpt>
      <trkpt lat="43.89303" lon="7.28733">
        <ele>1111.442959</ele>
        <time>2011-11-01T16:13:36Z</time>
      </trkpt>
      <trkpt lat="43.89293" lon="7.28732">
        <ele>1109.44294</ele>
        <time>2011-11-01T16:13:48Z</time>
      </trkpt>
      <trkpt lat="43.89282" lon="7.28731">
        <ele>1110.442924</ele>
        <time>2011-11-01T16:14:04Z</time>
      </trkpt>
      <trkpt lat="43.89282" lon="7.28729">
        <ele>1111.442921</ele>
        <time>2011-11-01T16:14:07Z</time>
      </trkpt>
      <trkpt lat="43.89274" lon="7.28718">
        <ele>1110.442886</ele>
        <time>2011-11-01T16:14:22Z</time>
      </trkpt>
      <trkpt lat="43.89271" lon="7.28715">
        <ele>1109.442879</ele>
        <time>2011-11-01T16:14:29Z</time>
      </trkpt>
      <trkpt lat="43.89265" lon="7.28705">
        <ele>1107.442848</ele>
        <time>2011-11-01T16:14:38Z</time>
      </trkpt>
      <trkpt lat="43.89255" lon="7.28685">
        <ele>1105.442795</ele>
        <time>2011-11-01T16:14:48Z</time>
      </trkpt>
      <trkpt lat="43.89248" lon="7.28676">
        <ele>1105.442764</ele>
        <time>2011-11-01T16:14:52Z</time>
      </trkpt>
      <trkpt lat="43.89241" lon="7.28666">
        <ele>1104.442734</ele>
        <time>2011-11-01T16:14:58Z</time>
      </trkpt>
      <trkpt lat="43.89249" lon="7.28658">
        <ele>1095.442726</ele>
        <time>2011-11-01T16:15:23Z</time>
      </trkpt>
      <trkpt lat="43.89252" lon="7.28655">
        <ele>1095.442726</ele>
        <time>2011-11-01T16:15:25Z</time>
      </trkpt>
      <trkpt lat="43.8926" lon="7.28649">
        <ele>1095.442726</ele>
        <time>2011-11-01T16:15:31Z</time>
      </trkpt>
      <trkpt lat="43.89269" lon="7.28641">
        <ele>1094.442722</ele>
        <time>2011-11-01T16:15:43Z</time>
      </trkpt>
      <trkpt lat="43.89272" lon="7.2863">
        <ele>1091.442703</ele>
        <time>2011-11-01T16:15:58Z</time>
      </trkpt>
      <trkpt lat="43.8928" lon="7.28617">
        <ele>1087.442688</ele>
        <time>2011-11-01T16:16:51Z</time>
      </trkpt>
      <trkpt lat="43.89281" lon="7.28617">
        <ele>1086.442688</ele>
        <time>2011-11-01T16:16:53Z</time>
      </trkpt>
      <trkpt lat="43.89287" lon="7.28604">
        <ele>1083.442673</ele>
        <time>2011-11-01T16:17:11Z</time>
      </trkpt>
      <trkpt lat="43.89284" lon="7.28592">
        <ele>1081.442642</ele>
        <time>2011-11-01T16:17:24Z</time>
      </trkpt>
      <trkpt lat="43.89279" lon="7.28588">
        <ele>1082.442627</ele>
        <time>2011-11-01T16:17:27Z</time>
      </trkpt>
      <trkpt lat="43.8927" lon="7.28584">
        <ele>1083.442604</ele>
        <time>2011-11-01T16:17:30Z</time>
      </trkpt>
      <trkpt lat="43.89261" lon="7.28582">
        <ele>1081.442589</ele>
        <time>2011-11-01T16:17:37Z</time>
      </trkpt>
      <trkpt lat="43.89251" lon="7.28577">
        <ele>1077.442566</ele>
        <time>2011-11-01T16:17:50Z</time>
      </trkpt>
      <trkpt lat="43.89241" lon="7.28575">
        <ele>1075.442551</ele>
        <time>2011-11-01T16:18:04Z</time>
      </trkpt>
      <trkpt lat="43.89232" lon="7.28582">
        <ele>1070.442551</ele>
        <time>2011-11-01T16:18:16Z</time>
      </trkpt>
      <trkpt lat="43.89232" lon="7.28582">
        <ele>1070.442551</ele>
        <time>2011-11-01T16:18:17Z</time>
      </trkpt>
      <trkpt lat="43.89235" lon="7.28568">
        <ele>1068.442532</ele>
        <time>2011-11-01T16:18:33Z</time>
      </trkpt>
      <trkpt lat="43.89236" lon="7.28567">
        <ele>1068.442524</ele>
        <time>2011-11-01T16:18:34Z</time>
      </trkpt>
      <trkpt lat="43.89239" lon="7.28555">
        <ele>1068.442509</ele>
        <time>2011-11-01T16:18:43Z</time>
      </trkpt>
      <trkpt lat="43.89223" lon="7.28559">
        <ele>1060.442493</ele>
        <time>2011-11-01T16:19:04Z</time>
      </trkpt>
      <trkpt lat="43.89222" lon="7.2856">
        <ele>1060.44249</ele>
        <time>2011-11-01T16:19:05Z</time>
      </trkpt>
      <trkpt lat="43.89213" lon="7.28554">
        <ele>1058.442467</ele>
        <time>2011-11-01T16:19:35Z</time>
      </trkpt>
      <trkpt lat="43.89203" lon="7.28551">
        <ele>1056.442444</ele>
        <time>2011-11-01T16:19:41Z</time>
      </trkpt>
      <trkpt lat="43.89193" lon="7.28547">
        <ele>1054.442429</ele>
        <time>2011-11-01T16:19:48Z</time>
      </trkpt>
      <trkpt lat="43.89193" lon="7.28547">
        <ele>1054.442429</ele>
        <time>2011-11-01T16:19:52Z</time>
      </trkpt>
      <trkpt lat="43.89185" lon="7.28539">
        <ele>1051.442398</ele>
        <time>2011-11-01T16:20:06Z</time>
      </trkpt>
      <trkpt lat="43.89175" lon="7.28533">
        <ele>1051.442375</ele>
        <time>2011-11-01T16:20:09Z</time>
      </trkpt>
      <trkpt lat="43.89168" lon="7.2853">
        <ele>1051.442352</ele>
        <time>2011-11-01T16:20:11Z</time>
      </trkpt>
      <trkpt lat="43.89159" lon="7.28525">
        <ele>1050.442337</ele>
        <time>2011-11-01T16:20:14Z</time>
      </trkpt>
      <trkpt lat="43.8915" lon="7.2852">
        <ele>1049.44231</ele>
        <time>2011-11-01T16:20:18Z</time>
      </trkpt>
      <trkpt lat="43.89139" lon="7.28524">
        <ele>1048.442307</ele>
        <time>2011-11-01T16:20:22Z</time>
      </trkpt>
      <trkpt lat="43.89128" lon="7.28535">
        <ele>1046.442314</ele>
        <time>2011-11-01T16:20:25Z</time>
      </trkpt>
      <trkpt lat="43.89117" lon="7.28542">
        <ele>1044.442314</ele>
        <time>2011-11-01T16:20:28Z</time>
      </trkpt>
      <trkpt lat="43.89106" lon="7.28549">
        <ele>1044.44231</ele>
        <time>2011-11-01T16:20:32Z</time>
      </trkpt>
      <trkpt lat="43.89099" lon="7.28559">
        <ele>1043.442326</ele>
        <time>2011-11-01T16:20:36Z</time>
      </trkpt>
      <trkpt lat="43.8909" lon="7.28569">
        <ele>1042.442329</ele>
        <time>2011-11-01T16:20:40Z</time>
      </trkpt>
      <trkpt lat="43.89081" lon="7.28577">
        <ele>1040.442337</ele>
        <time>2011-11-01T16:20:44Z</time>
      </trkpt>
      <trkpt lat="43.89072" lon="7.28586">
        <ele>1039.442345</ele>
        <time>2011-11-01T16:20:48Z</time>
      </trkpt>
      <trkpt lat="43.89063" lon="7.28594">
        <ele>1038.442345</ele>
        <time>2011-11-01T16:20:52Z</time>
      </trkpt>
      <trkpt lat="43.89054" lon="7.28602">
        <ele>1036.442352</ele>
        <time>2011-11-01T16:20:56Z</time>
      </trkpt>
      <trkpt lat="43.89052" lon="7.28605">
        <ele>1035.442352</ele>
        <time>2011-11-01T16:20:57Z</time>
      </trkpt>
      <trkpt lat="43.89043" lon="7.28612">
        <ele>1033.44236</ele>
        <time>2011-11-01T16:21:01Z</time>
      </trkpt>
      <trkpt lat="43.89028" lon="7.28625">
        <ele>1018.44236</ele>
        <time>2011-11-01T16:21:15Z</time>
      </trkpt>
      <trkpt lat="43.89018" lon="7.28633">
        <ele>1015.442368</ele>
        <time>2011-11-01T16:21:20Z</time>
      </trkpt>
      <trkpt lat="43.89014" lon="7.28636">
        <ele>1014.442368</ele>
        <time>2011-11-01T16:21:21Z</time>
      </trkpt>
      <trkpt lat="43.89007" lon="7.28653">
        <ele>1005.44239</ele>
        <time>2011-11-01T16:21:32Z</time>
      </trkpt>
      <trkpt lat="43.89009" lon="7.28665">
        <ele>997.442421</ele>
        <time>2011-11-01T16:22:01Z</time>
      </trkpt>
      <trkpt lat="43.88999" lon="7.28663">
        <ele>987.442402</ele>
        <time>2011-11-01T16:22:32Z</time>
      </trkpt>
      <trkpt lat="43.88986" lon="7.28666">
        <ele>984.44239</ele>
        <time>2011-11-01T16:22:42Z</time>
      </trkpt>
      <trkpt lat="43.88978" lon="7.28676">
        <ele>982.442398</ele>
        <time>2011-11-01T16:22:47Z</time>
      </trkpt>
      <trkpt lat="43.88971" lon="7.28685">
        <ele>983.442406</ele>
        <time>2011-11-01T16:22:51Z</time>
      </trkpt>
      <trkpt lat="43.88963" lon="7.28697">
        <ele>984.442421</ele>
        <time>2011-11-01T16:22:55Z</time>
      </trkpt>
      <trkpt lat="43.88955" lon="7.28708">
        <ele>985.442436</ele>
        <time>2011-11-01T16:22:59Z</time>
      </trkpt>
      <trkpt lat="43.88954" lon="7.2871">
        <ele>985.442436</ele>
        <time>2011-11-01T16:23:00Z</time>
      </trkpt>
      <trkpt lat="43.88948" lon="7.28722">
        <ele>985.442451</ele>
        <time>2011-11-01T16:23:04Z</time>
      </trkpt>
      <trkpt lat="43.8895" lon="7.28743">
        <ele>984.442497</ele>
        <time>2011-11-01T16:23:15Z</time>
      </trkpt>
      <trkpt lat="43.88949" lon="7.28758">
        <ele>983.442528</ele>
        <time>2011-11-01T16:23:21Z</time>
      </trkpt>
      <trkpt lat="43.88949" lon="7.28771">
        <ele>982.442558</ele>
        <time>2011-11-01T16:23:24Z</time>
      </trkpt>
      <trkpt lat="43.88948" lon="7.28786">
        <ele>981.442589</ele>
        <time>2011-11-01T16:23:27Z</time>
      </trkpt>
      <trkpt lat="43.88947" lon="7.28801">
        <ele>979.442616</ele>
        <time>2011-11-01T16:23:30Z</time>
      </trkpt>
      <trkpt lat="43.88943" lon="7.28815">
        <ele>977.442642</ele>
        <time>2011-11-01T16:23:33Z</time>
      </trkpt>
      <trkpt lat="43.88942" lon="7.28819">
        <ele>977.442642</ele>
        <time>2011-11-01T16:23:34Z</time>
      </trkpt>
      <trkpt lat="43.88935" lon="7.28829">
        <ele>976.442657</ele>
        <time>2011-11-01T16:23:37Z</time>
      </trkpt>
      <trkpt lat="43.88924" lon="7.28833">
        <ele>976.44265</ele>
        <time>2011-11-01T16:23:40Z</time>
      </trkpt>
      <trkpt lat="43.88915" lon="7.28833">
        <ele>976.442635</ele>
        <time>2011-11-01T16:23:42Z</time>
      </trkpt>
      <trkpt lat="43.88903" lon="7.28831">
        <ele>975.442616</ele>
        <time>2011-11-01T16:23:44Z</time>
      </trkpt>
      <trkpt lat="43.88892" lon="7.28828">
        <ele>975.442596</ele>
        <time>2011-11-01T16:23:46Z</time>
      </trkpt>
      <trkpt lat="43.8888" lon="7.28825">
        <ele>975.44257</ele>
        <time>2011-11-01T16:23:48Z</time>
      </trkpt>
      <trkpt lat="43.88869" lon="7.28821">
        <ele>973.442547</ele>
        <time>2011-11-01T16:23:50Z</time>
      </trkpt>
      <trkpt lat="43.88856" lon="7.2882">
        <ele>972.442528</ele>
        <time>2011-11-01T16:23:52Z</time>
      </trkpt>
      <trkpt lat="43.88844" lon="7.2882">
        <ele>971.442513</ele>
        <time>2011-11-01T16:23:54Z</time>
      </trkpt>
      <trkpt lat="43.88833" lon="7.2882">
        <ele>970.442497</ele>
        <time>2011-11-01T16:23:56Z</time>
      </trkpt>
      <trkpt lat="43.88822" lon="7.28821">
        <ele>969.442482</ele>
        <time>2011-11-01T16:23:58Z</time>
      </trkpt>
      <trkpt lat="43.8881" lon="7.28823">
        <ele>969.442474</ele>
        <time>2011-11-01T16:24:02Z</time>
      </trkpt>
      <trkpt lat="43.888" lon="7.28828">
        <ele>968.442471</ele>
        <time>2011-11-01T16:24:08Z</time>
      </trkpt>
      <trkpt lat="43.88773" lon="7.28838">
        <ele>968.442451</ele>
        <time>2011-11-01T16:24:24Z</time>
      </trkpt>
      <trkpt lat="43.88777" lon="7.28865">
        <ele>967.442513</ele>
        <time>2011-11-01T16:24:28Z</time>
      </trkpt>
      <trkpt lat="43.8878" lon="7.28878">
        <ele>967.442543</ele>
        <time>2011-11-01T16:24:30Z</time>
      </trkpt>
      <trkpt lat="43.88781" lon="7.28895">
        <ele>966.442581</ele>
        <time>2011-11-01T16:24:33Z</time>
      </trkpt>
      <trkpt lat="43.88781" lon="7.289">
        <ele>965.442593</ele>
        <time>2011-11-01T16:24:34Z</time>
      </trkpt>
      <trkpt lat="43.88775" lon="7.28911">
        <ele>965.442604</ele>
        <time>2011-11-01T16:24:37Z</time>
      </trkpt>
      <trkpt lat="43.88763" lon="7.28915">
        <ele>964.442596</ele>
        <time>2011-11-01T16:24:40Z</time>
      </trkpt>
      <trkpt lat="43.88753" lon="7.28917">
        <ele>963.442589</ele>
        <time>2011-11-01T16:24:43Z</time>
      </trkpt>
      <trkpt lat="43.88745" lon="7.28918">
        <ele>963.442581</ele>
        <time>2011-11-01T16:24:56Z</time>
      </trkpt>
      <trkpt lat="43.88728" lon="7.28949">
        <ele>957.442619</ele>
        <time>2011-11-01T16:25:34Z</time>
      </trkpt>
      <trkpt lat="43.88714" lon="7.2898">
        <ele>950.442669</ele>
        <time>2011-11-01T16:26:30Z</time>
      </trkpt>
      <trkpt lat="43.88712" lon="7.28999">
        <ele>951.442703</ele>
        <time>2011-11-01T16:27:00Z</time>
      </trkpt>
      <trkpt lat="43.88712" lon="7.29013">
        <ele>952.442734</ele>
        <time>2011-11-01T16:27:11Z</time>
      </trkpt>
      <trkpt lat="43.88712" lon="7.29026">
        <ele>956.442757</ele>
        <time>2011-11-01T16:27:23Z</time>
      </trkpt>
      <trkpt lat="43.88715" lon="7.29039">
        <ele>956.442795</ele>
        <time>2011-11-01T16:27:33Z</time>
      </trkpt>
      <trkpt lat="43.88718" lon="7.29053">
        <ele>956.442825</ele>
        <time>2011-11-01T16:27:41Z</time>
      </trkpt>
      <trkpt lat="43.8872" lon="7.29066">
        <ele>955.442856</ele>
        <time>2011-11-01T16:27:50Z</time>
      </trkpt>
      <trkpt lat="43.8872" lon="7.29072">
        <ele>955.442863</ele>
        <time>2011-11-01T16:27:54Z</time>
      </trkpt>
      <trkpt lat="43.88722" lon="7.29085">
        <ele>955.442894</ele>
        <time>2011-11-01T16:28:03Z</time>
      </trkpt>
      <trkpt lat="43.88723" lon="7.29097">
        <ele>956.442917</ele>
        <time>2011-11-01T16:28:16Z</time>
      </trkpt>
      <trkpt lat="43.88722" lon="7.29114">
        <ele>955.442951</ele>
        <time>2011-11-01T16:28:25Z</time>
      </trkpt>
      <trkpt lat="43.8872" lon="7.29129">
        <ele>955.442986</ele>
        <time>2011-11-01T16:28:32Z</time>
      </trkpt>
      <trkpt lat="43.88717" lon="7.29153">
        <ele>957.443024</ele>
        <time>2011-11-01T16:28:42Z</time>
      </trkpt>
      <trkpt lat="43.88714" lon="7.29165">
        <ele>959.443047</ele>
        <time>2011-11-01T16:28:49Z</time>
      </trkpt>
      <trkpt lat="43.8871" lon="7.29176">
        <ele>960.443062</ele>
        <time>2011-11-01T16:28:55Z</time>
      </trkpt>
      <trkpt lat="43.88707" lon="7.29182">
        <ele>961.443073</ele>
        <time>2011-11-01T16:28:58Z</time>
      </trkpt>
      <trkpt lat="43.88693" lon="7.29194">
        <ele>964.443077</ele>
        <time>2011-11-01T16:29:06Z</time>
      </trkpt>
      <trkpt lat="43.88676" lon="7.29188">
        <ele>964.443039</ele>
        <time>2011-11-01T16:29:14Z</time>
      </trkpt>
      <trkpt lat="43.88667" lon="7.29181">
        <ele>966.443016</ele>
        <time>2011-11-01T16:29:18Z</time>
      </trkpt>
      <trkpt lat="43.88657" lon="7.29174">
        <ele>966.442986</ele>
        <time>2011-11-01T16:29:22Z</time>
      </trkpt>
      <trkpt lat="43.88648" lon="7.29167">
        <ele>966.442963</ele>
        <time>2011-11-01T16:29:25Z</time>
      </trkpt>
      <trkpt lat="43.88638" lon="7.29161">
        <ele>966.442932</ele>
        <time>2011-11-01T16:29:28Z</time>
      </trkpt>
      <trkpt lat="43.88627" lon="7.29156">
        <ele>966.442909</ele>
        <time>2011-11-01T16:29:31Z</time>
      </trkpt>
      <trkpt lat="43.88614" lon="7.29149">
        <ele>966.442879</ele>
        <time>2011-11-01T16:29:35Z</time>
      </trkpt>
      <trkpt lat="43.88605" lon="7.29144">
        <ele>966.442856</ele>
        <time>2011-11-01T16:29:37Z</time>
      </trkpt>
      <trkpt lat="43.88596" lon="7.29139">
        <ele>967.442833</ele>
        <time>2011-11-01T16:29:39Z</time>
      </trkpt>
      <trkpt lat="43.88588" lon="7.29134">
        <ele>967.44281</ele>
        <time>2011-11-01T16:29:41Z</time>
      </trkpt>
      <trkpt lat="43.88584" lon="7.29131">
        <ele>968.442802</ele>
        <time>2011-11-01T16:29:42Z</time>
      </trkpt>
      <trkpt lat="43.88577" lon="7.29124">
        <ele>968.442772</ele>
        <time>2011-11-01T16:29:45Z</time>
      </trkpt>
      <trkpt lat="43.88556" lon="7.29091">
        <ele>972.44268</ele>
        <time>2011-11-01T16:30:14Z</time>
      </trkpt>
      <trkpt lat="43.88536" lon="7.29066">
        <ele>973.442596</ele>
        <time>2011-11-01T16:30:36Z</time>
      </trkpt>
      <trkpt lat="43.88527" lon="7.29053">
        <ele>974.442566</ele>
        <time>2011-11-01T16:30:40Z</time>
      </trkpt>
      <trkpt lat="43.88511" lon="7.2903">
        <ele>975.442497</ele>
        <time>2011-11-01T16:30:49Z</time>
      </trkpt>
      <trkpt lat="43.88494" lon="7.29019">
        <ele>975.442448</ele>
        <time>2011-11-01T16:30:53Z</time>
      </trkpt>
      <trkpt lat="43.88474" lon="7.29013">
        <ele>974.44241</ele>
        <time>2011-11-01T16:30:56Z</time>
      </trkpt>
      <trkpt lat="43.88459" lon="7.29009">
        <ele>974.442383</ele>
        <time>2011-11-01T16:30:58Z</time>
      </trkpt>
      <trkpt lat="43.88449" lon="7.29004">
        <ele>973.442356</ele>
        <time>2011-11-01T16:31:00Z</time>
      </trkpt>
      <trkpt lat="43.88439" lon="7.28998">
        <ele>973.442329</ele>
        <time>2011-11-01T16:31:02Z</time>
      </trkpt>
      <trkpt lat="43.88435" lon="7.28995">
        <ele>973.442318</ele>
        <time>2011-11-01T16:31:03Z</time>
      </trkpt>
      <trkpt lat="43.88424" lon="7.28987">
        <ele>974.442287</ele>
        <time>2011-11-01T16:31:06Z</time>
      </trkpt>
      <trkpt lat="43.88417" lon="7.28977">
        <ele>973.442261</ele>
        <time>2011-11-01T16:31:11Z</time>
      </trkpt>
      <trkpt lat="43.88411" lon="7.28972">
        <ele>973.442238</ele>
        <time>2011-11-01T16:31:13Z</time>
      </trkpt>
      <trkpt lat="43.88404" lon="7.28964">
        <ele>973.442207</ele>
        <time>2011-11-01T16:31:16Z</time>
      </trkpt>
      <trkpt lat="43.88395" lon="7.28958">
        <ele>973.442192</ele>
        <time>2011-11-01T16:31:19Z</time>
      </trkpt>
      <trkpt lat="43.88384" lon="7.28952">
        <ele>974.442162</ele>
        <time>2011-11-01T16:31:22Z</time>
      </trkpt>
      <trkpt lat="43.8837" lon="7.28949">
        <ele>974.442135</ele>
        <time>2011-11-01T16:31:25Z</time>
      </trkpt>
      <trkpt lat="43.88361" lon="7.28946">
        <ele>974.44212</ele>
        <time>2011-11-01T16:31:27Z</time>
      </trkpt>
      <trkpt lat="43.88352" lon="7.28943">
        <ele>974.442101</ele>
        <time>2011-11-01T16:31:29Z</time>
      </trkpt>
      <trkpt lat="43.88348" lon="7.28941">
        <ele>974.442093</ele>
        <time>2011-11-01T16:31:30Z</time>
      </trkpt>
      <trkpt lat="43.88336" lon="7.28938">
        <ele>974.44207</ele>
        <time>2011-11-01T16:31:33Z</time>
      </trkpt>
      <trkpt lat="43.88326" lon="7.28939">
        <ele>974.442055</ele>
        <time>2011-11-01T16:31:36Z</time>
      </trkpt>
      <trkpt lat="43.88315" lon="7.2894">
        <ele>973.442039</ele>
        <time>2011-11-01T16:31:39Z</time>
      </trkpt>
      <trkpt lat="43.88302" lon="7.28941">
        <ele>972.442028</ele>
        <time>2011-11-01T16:31:42Z</time>
      </trkpt>
      <trkpt lat="43.88296" lon="7.28941">
        <ele>972.442017</ele>
        <time>2011-11-01T16:31:44Z</time>
      </trkpt>
      <trkpt lat="43.88284" lon="7.28945">
        <ele>972.442013</ele>
        <time>2011-11-01T16:31:48Z</time>
      </trkpt>
      <trkpt lat="43.88272" lon="7.28944">
        <ele>971.441994</ele>
        <time>2011-11-01T16:31:51Z</time>
      </trkpt>
      <trkpt lat="43.8826" lon="7.28944">
        <ele>971.441978</ele>
        <time>2011-11-01T16:31:54Z</time>
      </trkpt>
      <trkpt lat="43.88248" lon="7.28941">
        <ele>971.441956</ele>
        <time>2011-11-01T16:31:57Z</time>
      </trkpt>
      <trkpt lat="43.88237" lon="7.28937">
        <ele>971.441933</ele>
        <time>2011-11-01T16:32:00Z</time>
      </trkpt>
      <trkpt lat="43.88228" lon="7.28934">
        <ele>971.44191</ele>
        <time>2011-11-01T16:32:03Z</time>
      </trkpt>
      <trkpt lat="43.8822" lon="7.28928">
        <ele>971.441891</ele>
        <time>2011-11-01T16:32:06Z</time>
      </trkpt>
      <trkpt lat="43.88212" lon="7.2892">
        <ele>971.441864</ele>
        <time>2011-11-01T16:32:10Z</time>
      </trkpt>
      <trkpt lat="43.88202" lon="7.28918">
        <ele>971.441845</ele>
        <time>2011-11-01T16:32:14Z</time>
      </trkpt>
      <trkpt lat="43.88189" lon="7.28917">
        <ele>971.44183</ele>
        <time>2011-11-01T16:32:17Z</time>
      </trkpt>
      <trkpt lat="43.88178" lon="7.28915">
        <ele>970.441803</ele>
        <time>2011-11-01T16:32:20Z</time>
      </trkpt>
      <trkpt lat="43.88173" lon="7.28914">
        <ele>970.441795</ele>
        <time>2011-11-01T16:32:24Z</time>
      </trkpt>
      <trkpt lat="43.88162" lon="7.28911">
        <ele>969.441772</ele>
        <time>2011-11-01T16:32:26Z</time>
      </trkpt>
      <trkpt lat="43.88151" lon="7.28907">
        <ele>968.44175</ele>
        <time>2011-11-01T16:32:30Z</time>
      </trkpt>
      <trkpt lat="43.88141" lon="7.289">
        <ele>967.441723</ele>
        <time>2011-11-01T16:32:33Z</time>
      </trkpt>
      <trkpt lat="43.88132" lon="7.28892">
        <ele>966.441696</ele>
        <time>2011-11-01T16:32:36Z</time>
      </trkpt>
      <trkpt lat="43.88123" lon="7.28886">
        <ele>966.441669</ele>
        <time>2011-11-01T16:32:39Z</time>
      </trkpt>
      <trkpt lat="43.88113" lon="7.28881">
        <ele>965.44165</ele>
        <time>2011-11-01T16:32:43Z</time>
      </trkpt>
      <trkpt lat="43.8811" lon="7.2888">
        <ele>964.441643</ele>
        <time>2011-11-01T16:32:44Z</time>
      </trkpt>
      <trkpt lat="43.881" lon="7.28873">
        <ele>964.441616</ele>
        <time>2011-11-01T16:32:48Z</time>
      </trkpt>
      <trkpt lat="43.88101" lon="7.28873">
        <ele>964.44162</ele>
        <time>2011-11-01T16:32:52Z</time>
      </trkpt>
      <trkpt lat="43.88091" lon="7.28866">
        <ele>964.441589</ele>
        <time>2011-11-01T16:32:53Z</time>
      </trkpt>
      <trkpt lat="43.88067" lon="7.28846">
        <ele>963.441513</ele>
        <time>2011-11-01T16:33:03Z</time>
      </trkpt>
      <trkpt lat="43.8806" lon="7.28839">
        <ele>961.441486</ele>
        <time>2011-11-01T16:33:06Z</time>
      </trkpt>
      <trkpt lat="43.88053" lon="7.28831">
        <ele>961.44146</ele>
        <time>2011-11-01T16:33:10Z</time>
      </trkpt>
      <trkpt lat="43.88043" lon="7.28824">
        <ele>960.441437</ele>
        <time>2011-11-01T16:33:14Z</time>
      </trkpt>
      <trkpt lat="43.88034" lon="7.28817">
        <ele>959.44141</ele>
        <time>2011-11-01T16:33:18Z</time>
      </trkpt>
      <trkpt lat="43.88025" lon="7.2881">
        <ele>958.441383</ele>
        <time>2011-11-01T16:33:24Z</time>
      </trkpt>
      <trkpt lat="43.88018" lon="7.28827">
        <ele>953.441406</ele>
        <time>2011-11-01T16:33:38Z</time>
      </trkpt>
      <trkpt lat="43.88013" lon="7.28839">
        <ele>951.441425</ele>
        <time>2011-11-01T16:33:42Z</time>
      </trkpt>
      <trkpt lat="43.87998" lon="7.28871">
        <ele>944.441467</ele>
        <time>2011-11-01T16:34:05Z</time>
      </trkpt>
      <trkpt lat="43.87991" lon="7.28882">
        <ele>944.441483</ele>
        <time>2011-11-01T16:34:08Z</time>
      </trkpt>
      <trkpt lat="43.87985" lon="7.28897">
        <ele>943.441505</ele>
        <time>2011-11-01T16:34:11Z</time>
      </trkpt>
      <trkpt lat="43.87978" lon="7.2891">
        <ele>942.441528</ele>
        <time>2011-11-01T16:34:14Z</time>
      </trkpt>
      <trkpt lat="43.87973" lon="7.28923">
        <ele>940.441544</ele>
        <time>2011-11-01T16:34:17Z</time>
      </trkpt>
      <trkpt lat="43.87966" lon="7.28936">
        <ele>939.441566</ele>
        <time>2011-11-01T16:34:20Z</time>
      </trkpt>
      <trkpt lat="43.87961" lon="7.28949">
        <ele>938.441582</ele>
        <time>2011-11-01T16:34:23Z</time>
      </trkpt>
      <trkpt lat="43.87956" lon="7.28964">
        <ele>937.441605</ele>
        <time>2011-11-01T16:34:26Z</time>
      </trkpt>
      <trkpt lat="43.87954" lon="7.28969">
        <ele>936.441616</ele>
        <time>2011-11-01T16:34:27Z</time>
      </trkpt>
      <trkpt lat="43.8795" lon="7.28982">
        <ele>936.441631</ele>
        <time>2011-11-01T16:34:30Z</time>
      </trkpt>
      <trkpt lat="43.87948" lon="7.28997">
        <ele>935.441658</ele>
        <time>2011-11-01T16:34:33Z</time>
      </trkpt>
      <trkpt lat="43.87946" lon="7.29011">
        <ele>935.441689</ele>
        <time>2011-11-01T16:34:36Z</time>
      </trkpt>
      <trkpt lat="43.87942" lon="7.29026">
        <ele>934.441711</ele>
        <time>2011-11-01T16:34:39Z</time>
      </trkpt>
      <trkpt lat="43.87935" lon="7.29041">
        <ele>933.441734</ele>
        <time>2011-11-01T16:34:42Z</time>
      </trkpt>
      <trkpt lat="43.87929" lon="7.29055">
        <ele>932.441757</ele>
        <time>2011-11-01T16:34:45Z</time>
      </trkpt>
      <trkpt lat="43.87925" lon="7.29063">
        <ele>932.441765</ele>
        <time>2011-11-01T16:34:47Z</time>
      </trkpt>
      <trkpt lat="43.87917" lon="7.29075">
        <ele>932.44178</ele>
        <time>2011-11-01T16:34:50Z</time>
      </trkpt>
      <trkpt lat="43.87908" lon="7.29086">
        <ele>931.441792</ele>
        <time>2011-11-01T16:34:53Z</time>
      </trkpt>
      <trkpt lat="43.87904" lon="7.2909">
        <ele>931.441795</ele>
        <time>2011-11-01T16:34:54Z</time>
      </trkpt>
      <trkpt lat="43.87894" lon="7.291">
        <ele>931.441803</ele>
        <time>2011-11-01T16:34:57Z</time>
      </trkpt>
      <trkpt lat="43.87891" lon="7.29102">
        <ele>931.441803</ele>
        <time>2011-11-01T16:34:58Z</time>
      </trkpt>
      <trkpt lat="43.8788" lon="7.29108">
        <ele>931.441803</ele>
        <time>2011-11-01T16:35:01Z</time>
      </trkpt>
      <trkpt lat="43.8787" lon="7.29113">
        <ele>932.441799</ele>
        <time>2011-11-01T16:35:04Z</time>
      </trkpt>
      <trkpt lat="43.87858" lon="7.2912">
        <ele>931.441795</ele>
        <time>2011-11-01T16:35:09Z</time>
      </trkpt>
      <trkpt lat="43.87849" lon="7.29125">
        <ele>932.441795</ele>
        <time>2011-11-01T16:35:12Z</time>
      </trkpt>
      <trkpt lat="43.8784" lon="7.2913">
        <ele>934.441788</ele>
        <time>2011-11-01T16:35:15Z</time>
      </trkpt>
      <trkpt lat="43.87833" lon="7.29133">
        <ele>934.441788</ele>
        <time>2011-11-01T16:35:17Z</time>
      </trkpt>
      <trkpt lat="43.87818" lon="7.29137">
        <ele>935.441776</ele>
        <time>2011-11-01T16:35:20Z</time>
      </trkpt>
      <trkpt lat="43.87807" lon="7.29138">
        <ele>934.441757</ele>
        <time>2011-11-01T16:35:22Z</time>
      </trkpt>
      <trkpt lat="43.87795" lon="7.29137">
        <ele>934.441746</ele>
        <time>2011-11-01T16:35:24Z</time>
      </trkpt>
      <trkpt lat="43.87785" lon="7.29135">
        <ele>934.441727</ele>
        <time>2011-11-01T16:35:26Z</time>
      </trkpt>
      <trkpt lat="43.87782" lon="7.29122">
        <ele>933.441696</ele>
        <time>2011-11-01T16:35:29Z</time>
      </trkpt>
      <trkpt lat="43.87781" lon="7.29118">
        <ele>933.441689</ele>
        <time>2011-11-01T16:35:30Z</time>
      </trkpt>
      <trkpt lat="43.87775" lon="7.29103">
        <ele>933.44165</ele>
        <time>2011-11-01T16:35:34Z</time>
      </trkpt>
      <trkpt lat="43.87767" lon="7.29095">
        <ele>932.44162</ele>
        <time>2011-11-01T16:35:37Z</time>
      </trkpt>
      <trkpt lat="43.87758" lon="7.29086">
        <ele>931.441589</ele>
        <time>2011-11-01T16:35:40Z</time>
      </trkpt>
      <trkpt lat="43.87751" lon="7.29074">
        <ele>930.441559</ele>
        <time>2011-11-01T16:35:43Z</time>
      </trkpt>
      <trkpt lat="43.87749" lon="7.2907">
        <ele>930.441544</ele>
        <time>2011-11-01T16:35:44Z</time>
      </trkpt>
      <trkpt lat="43.8774" lon="7.29065">
        <ele>930.441521</ele>
        <time>2011-11-01T16:35:47Z</time>
      </trkpt>
      <trkpt lat="43.87731" lon="7.29064">
        <ele>929.441509</ele>
        <time>2011-11-01T16:35:50Z</time>
      </trkpt>
      <trkpt lat="43.87722" lon="7.29059">
        <ele>927.441486</ele>
        <time>2011-11-01T16:35:53Z</time>
      </trkpt>
      <trkpt lat="43.87711" lon="7.29055">
        <ele>926.441463</ele>
        <time>2011-11-01T16:35:56Z</time>
      </trkpt>
      <trkpt lat="43.87708" lon="7.29055">
        <ele>926.44146</ele>
        <time>2011-11-01T16:35:57Z</time>
      </trkpt>
      <trkpt lat="43.87698" lon="7.29054">
        <ele>926.441441</ele>
        <time>2011-11-01T16:36:00Z</time>
      </trkpt>
      <trkpt lat="43.87691" lon="7.29044">
        <ele>925.441414</ele>
        <time>2011-11-01T16:36:03Z</time>
      </trkpt>
      <trkpt lat="43.87681" lon="7.29039">
        <ele>923.441391</ele>
        <time>2011-11-01T16:36:06Z</time>
      </trkpt>
      <trkpt lat="43.87673" lon="7.29032">
        <ele>922.441364</ele>
        <time>2011-11-01T16:36:09Z</time>
      </trkpt>
      <trkpt lat="43.87662" lon="7.29031">
        <ele>920.441345</ele>
        <time>2011-11-01T16:36:13Z</time>
      </trkpt>
      <trkpt lat="43.87664" lon="7.29063">
        <ele>912.441414</ele>
        <time>2011-11-01T16:36:24Z</time>
      </trkpt>
      <trkpt lat="43.87661" lon="7.29069">
        <ele>911.441422</ele>
        <time>2011-11-01T16:36:25Z</time>
      </trkpt>
      <trkpt lat="43.87655" lon="7.29079">
        <ele>908.441433</ele>
        <time>2011-11-01T16:36:27Z</time>
      </trkpt>
      <trkpt lat="43.87646" lon="7.29089">
        <ele>906.441444</ele>
        <time>2011-11-01T16:36:30Z</time>
      </trkpt>
      <trkpt lat="43.87639" lon="7.29098">
        <ele>904.441452</ele>
        <time>2011-11-01T16:36:33Z</time>
      </trkpt>
      <trkpt lat="43.87623" lon="7.29086">
        <ele>886.441406</ele>
        <time>2011-11-01T16:37:14Z</time>
      </trkpt>
      <trkpt lat="43.87597" lon="7.29074">
        <ele>871.441345</ele>
        <time>2011-11-01T16:38:22Z</time>
      </trkpt>
      <trkpt lat="43.87586" lon="7.29078">
        <ele>868.441338</ele>
        <time>2011-11-01T16:38:38Z</time>
      </trkpt>
      <trkpt lat="43.87578" lon="7.29082">
        <ele>863.441338</ele>
        <time>2011-11-01T16:38:53Z</time>
      </trkpt>
      <trkpt lat="43.87567" lon="7.29074">
        <ele>862.441307</ele>
        <time>2011-11-01T16:38:54Z</time>
      </trkpt>
      <trkpt lat="43.87555" lon="7.29063">
        <ele>861.441269</ele>
        <time>2011-11-01T16:38:58Z</time>
      </trkpt>
      <trkpt lat="43.87547" lon="7.29055">
        <ele>860.441238</ele>
        <time>2011-11-01T16:39:01Z</time>
      </trkpt>
      <trkpt lat="43.87539" lon="7.29045">
        <ele>860.441208</ele>
        <time>2011-11-01T16:39:04Z</time>
      </trkpt>
      <trkpt lat="43.87532" lon="7.29036">
        <ele>859.441181</ele>
        <time>2011-11-01T16:39:07Z</time>
      </trkpt>
      <trkpt lat="43.87529" lon="7.29019">
        <ele>857.441143</ele>
        <time>2011-11-01T16:39:10Z</time>
      </trkpt>
      <trkpt lat="43.87527" lon="7.29004">
        <ele>855.441109</ele>
        <time>2011-11-01T16:39:13Z</time>
      </trkpt>
      <trkpt lat="43.87525" lon="7.28988">
        <ele>854.441071</ele>
        <time>2011-11-01T16:39:16Z</time>
      </trkpt>
      <trkpt lat="43.87523" lon="7.28977">
        <ele>852.441048</ele>
        <time>2011-11-01T16:39:22Z</time>
      </trkpt>
      <trkpt lat="43.87516" lon="7.28966">
        <ele>849.441017</ele>
        <time>2011-11-01T16:39:25Z</time>
      </trkpt>
      <trkpt lat="43.87502" lon="7.28958">
        <ele>843.440979</ele>
        <time>2011-11-01T16:39:37Z</time>
      </trkpt>
      <trkpt lat="43.87499" lon="7.28961">
        <ele>841.440979</ele>
        <time>2011-11-01T16:39:40Z</time>
      </trkpt>
      <trkpt lat="43.87487" lon="7.28966">
        <ele>836.440975</ele>
        <time>2011-11-01T16:39:48Z</time>
      </trkpt>
      <trkpt lat="43.8748" lon="7.2897">
        <ele>834.440971</ele>
        <time>2011-11-01T16:39:53Z</time>
      </trkpt>
      <trkpt lat="43.87471" lon="7.28978">
        <ele>832.440979</ele>
        <time>2011-11-01T16:40:07Z</time>
      </trkpt>
      <trkpt lat="43.87471" lon="7.28979">
        <ele>831.440979</ele>
        <time>2011-11-01T16:40:10Z</time>
      </trkpt>
      <trkpt lat="43.87464" lon="7.28988">
        <ele>831.440987</ele>
        <time>2011-11-01T16:40:17Z</time>
      </trkpt>
      <trkpt lat="43.87456" lon="7.28996">
        <ele>830.440994</ele>
        <time>2011-11-01T16:40:21Z</time>
      </trkpt>
      <trkpt lat="43.87448" lon="7.29003">
        <ele>829.440998</ele>
        <time>2011-11-01T16:40:24Z</time>
      </trkpt>
      <trkpt lat="43.87439" lon="7.29011">
        <ele>828.441002</ele>
        <time>2011-11-01T16:40:27Z</time>
      </trkpt>
      <trkpt lat="43.87426" lon="7.29022">
        <ele>828.44101</ele>
        <time>2011-11-01T16:40:30Z</time>
      </trkpt>
      <trkpt lat="43.87416" lon="7.29032">
        <ele>828.441017</ele>
        <time>2011-11-01T16:40:32Z</time>
      </trkpt>
      <trkpt lat="43.87409" lon="7.29043">
        <ele>827.441025</ele>
        <time>2011-11-01T16:40:34Z</time>
      </trkpt>
      <trkpt lat="43.87405" lon="7.29054">
        <ele>828.441044</ele>
        <time>2011-11-01T16:40:36Z</time>
      </trkpt>
      <trkpt lat="43.874" lon="7.2907">
        <ele>827.441071</ele>
        <time>2011-11-01T16:40:39Z</time>
      </trkpt>
      <trkpt lat="43.87399" lon="7.29086">
        <ele>827.441101</ele>
        <time>2011-11-01T16:40:42Z</time>
      </trkpt>
      <trkpt lat="43.87397" lon="7.291">
        <ele>827.441132</ele>
        <time>2011-11-01T16:40:45Z</time>
      </trkpt>
      <trkpt lat="43.87395" lon="7.29105">
        <ele>827.441139</ele>
        <time>2011-11-01T16:40:46Z</time>
      </trkpt>
      <trkpt lat="43.87395" lon="7.2912">
        <ele>826.44117</ele>
        <time>2011-11-01T16:40:49Z</time>
      </trkpt>
      <trkpt lat="43.87394" lon="7.29134">
        <ele>825.441196</ele>
        <time>2011-11-01T16:40:52Z</time>
      </trkpt>
      <trkpt lat="43.87394" lon="7.29138">
        <ele>825.4412</ele>
        <time>2011-11-01T16:40:53Z</time>
      </trkpt>
      <trkpt lat="43.87398" lon="7.2915">
        <ele>825.441238</ele>
        <time>2011-11-01T16:40:56Z</time>
      </trkpt>
      <trkpt lat="43.87397" lon="7.29166">
        <ele>824.441265</ele>
        <time>2011-11-01T16:41:00Z</time>
      </trkpt>
      <trkpt lat="43.87398" lon="7.29175">
        <ele>823.441284</ele>
        <time>2011-11-01T16:41:03Z</time>
      </trkpt>
      <trkpt lat="43.87382" lon="7.29183">
        <ele>820.44128</ele>
        <time>2011-11-01T16:41:14Z</time>
      </trkpt>
      <trkpt lat="43.87374" lon="7.29177">
        <ele>819.441257</ele>
        <time>2011-11-01T16:41:17Z</time>
      </trkpt>
      <trkpt lat="43.87366" lon="7.29167">
        <ele>817.441223</ele>
        <time>2011-11-01T16:41:21Z</time>
      </trkpt>
      <trkpt lat="43.87354" lon="7.29157">
        <ele>814.441185</ele>
        <time>2011-11-01T16:41:27Z</time>
      </trkpt>
      <trkpt lat="43.87348" lon="7.29145">
        <ele>811.441154</ele>
        <time>2011-11-01T16:41:32Z</time>
      </trkpt>
      <trkpt lat="43.87343" lon="7.29109">
        <ele>807.441074</ele>
        <time>2011-11-01T16:41:47Z</time>
      </trkpt>
      <trkpt lat="43.87337" lon="7.29069">
        <ele>803.440987</ele>
        <time>2011-11-01T16:41:55Z</time>
      </trkpt>
      <trkpt lat="43.87322" lon="7.29036">
        <ele>797.440895</ele>
        <time>2011-11-01T16:42:10Z</time>
      </trkpt>
      <trkpt lat="43.87308" lon="7.29004">
        <ele>787.440811</ele>
        <time>2011-11-01T16:42:20Z</time>
      </trkpt>
      <trkpt lat="43.87283" lon="7.28982">
        <ele>775.440735</ele>
        <time>2011-11-01T16:42:33Z</time>
      </trkpt>
      <trkpt lat="43.87268" lon="7.2895">
        <ele>771.440647</ele>
        <time>2011-11-01T16:42:47Z</time>
      </trkpt>
      <trkpt lat="43.87254" lon="7.28918">
        <ele>769.440559</ele>
        <time>2011-11-01T16:43:03Z</time>
      </trkpt>
      <trkpt lat="43.87249" lon="7.28909">
        <ele>766.440533</ele>
        <time>2011-11-01T16:43:27Z</time>
      </trkpt>
      <trkpt lat="43.87248" lon="7.28947">
        <ele>757.440613</ele>
        <time>2011-11-01T16:44:06Z</time>
      </trkpt>
      <trkpt lat="43.87273" lon="7.28931">
        <ele>748.440613</ele>
        <time>2011-11-01T16:44:50Z</time>
      </trkpt>
      <trkpt lat="43.87297" lon="7.28915">
        <ele>739.440613</ele>
        <time>2011-11-01T16:46:28Z</time>
      </trkpt>
      <trkpt lat="43.87278" lon="7.2893">
        <ele>735.440617</ele>
        <time>2011-11-01T16:46:52Z</time>
      </trkpt>
      <trkpt lat="43.87269" lon="7.28939">
        <ele>727.44062</ele>
        <time>2011-11-01T16:47:20Z</time>
      </trkpt>
      <trkpt lat="43.87254" lon="7.28956">
        <ele>721.440636</ele>
        <time>2011-11-01T16:47:42Z</time>
      </trkpt>
      <trkpt lat="43.87222" lon="7.2898">
        <ele>716.440643</ele>
        <time>2011-11-01T16:48:10Z</time>
      </trkpt>
      <trkpt lat="43.87209" lon="7.28976">
        <ele>717.440617</ele>
        <time>2011-11-01T16:48:20Z</time>
      </trkpt>
      <trkpt lat="43.872" lon="7.28976">
        <ele>716.440605</ele>
        <time>2011-11-01T16:48:31Z</time>
      </trkpt>
      <trkpt lat="43.87204" lon="7.28996">
        <ele>712.440655</ele>
        <time>2011-11-01T16:49:21Z</time>
      </trkpt>
      <trkpt lat="43.87203" lon="7.29042">
        <ele>708.440746</ele>
        <time>2011-11-01T16:49:53Z</time>
      </trkpt>
      <trkpt lat="43.87186" lon="7.29082">
        <ele>706.440807</ele>
        <time>2011-11-01T16:50:06Z</time>
      </trkpt>
      <trkpt lat="43.87173" lon="7.29086">
        <ele>706.440796</ele>
        <time>2011-11-01T16:50:10Z</time>
      </trkpt>
      <trkpt lat="43.87162" lon="7.29087">
        <ele>705.440788</ele>
        <time>2011-11-01T16:50:13Z</time>
      </trkpt>
      <trkpt lat="43.87152" lon="7.2909">
        <ele>704.440773</ele>
        <time>2011-11-01T16:50:15Z</time>
      </trkpt>
      <trkpt lat="43.87138" lon="7.29091">
        <ele>701.440762</ele>
        <time>2011-11-01T16:50:23Z</time>
      </trkpt>
      <trkpt lat="43.87128" lon="7.29085">
        <ele>700.440739</ele>
        <time>2011-11-01T16:50:35Z</time>
      </trkpt>
      <trkpt lat="43.87117" lon="7.29079">
        <ele>699.440704</ele>
        <time>2011-11-01T16:50:42Z</time>
      </trkpt>
      <trkpt lat="43.87107" lon="7.29083">
        <ele>698.440697</ele>
        <time>2011-11-01T16:50:49Z</time>
      </trkpt>
      <trkpt lat="43.87101" lon="7.29094">
        <ele>697.440712</ele>
        <time>2011-11-01T16:50:53Z</time>
      </trkpt>
      <trkpt lat="43.87098" lon="7.29111">
        <ele>697.440746</ele>
        <time>2011-11-01T16:50:57Z</time>
      </trkpt>
      <trkpt lat="43.87085" lon="7.29155">
        <ele>692.440819</ele>
        <time>2011-11-01T16:51:14Z</time>
      </trkpt>
      <trkpt lat="43.87074" lon="7.29175">
        <ele>694.440845</ele>
        <time>2011-11-01T16:51:24Z</time>
      </trkpt>
      <trkpt lat="43.87061" lon="7.29206">
        <ele>695.440895</ele>
        <time>2011-11-01T16:51:37Z</time>
      </trkpt>
      <trkpt lat="43.87056" lon="7.29218">
        <ele>696.44091</ele>
        <time>2011-11-01T16:51:40Z</time>
      </trkpt>
      <trkpt lat="43.87051" lon="7.29231">
        <ele>696.440929</ele>
        <time>2011-11-01T16:51:43Z</time>
      </trkpt>
      <trkpt lat="43.87046" lon="7.29244">
        <ele>696.440948</ele>
        <time>2011-11-01T16:51:47Z</time>
      </trkpt>
      <trkpt lat="43.87033" lon="7.29284">
        <ele>699.441017</ele>
        <time>2011-11-01T16:52:07Z</time>
      </trkpt>
      <trkpt lat="43.87022" lon="7.29319">
        <ele>697.441074</ele>
        <time>2011-11-01T16:52:31Z</time>
      </trkpt>
      <trkpt lat="43.8701" lon="7.29365">
        <ele>698.441151</ele>
        <time>2011-11-01T16:52:50Z</time>
      </trkpt>
      <trkpt lat="43.87001" lon="7.29402">
        <ele>699.441216</ele>
        <time>2011-11-01T16:53:00Z</time>
      </trkpt>
      <trkpt lat="43.86997" lon="7.29414">
        <ele>699.441238</ele>
        <time>2011-11-01T16:53:03Z</time>
      </trkpt>
      <trkpt lat="43.86991" lon="7.29429">
        <ele>699.441257</ele>
        <time>2011-11-01T16:53:08Z</time>
      </trkpt>
      <trkpt lat="43.86986" lon="7.29441">
        <ele>699.441277</ele>
        <time>2011-11-01T16:53:12Z</time>
      </trkpt>
      <trkpt lat="43.86982" lon="7.29452">
        <ele>700.441292</ele>
        <time>2011-11-01T16:53:16Z</time>
      </trkpt>
      <trkpt lat="43.86975" lon="7.29465">
        <ele>700.441311</ele>
        <time>2011-11-01T16:53:21Z</time>
      </trkpt>
      <trkpt lat="43.86971" lon="7.29477">
        <ele>700.44133</ele>
        <time>2011-11-01T16:53:32Z</time>
      </trkpt>
      <trkpt lat="43.86966" lon="7.29488">
        <ele>701.441345</ele>
        <time>2011-11-01T16:53:44Z</time>
      </trkpt>
      <trkpt lat="43.86966" lon="7.2949">
        <ele>701.441349</ele>
        <time>2011-11-01T16:53:49Z</time>
      </trkpt>
      <trkpt lat="43.86964" lon="7.29467">
        <ele>699.441299</ele>
        <time>2011-11-01T16:54:18Z</time>
      </trkpt>
      <trkpt lat="43.86959" lon="7.29453">
        <ele>698.441269</ele>
        <time>2011-11-01T16:54:22Z</time>
      </trkpt>
      <trkpt lat="43.86955" lon="7.29444">
        <ele>698.441242</ele>
        <time>2011-11-01T16:54:24Z</time>
      </trkpt>
      <trkpt lat="43.86949" lon="7.29429">
        <ele>697.4412</ele>
        <time>2011-11-01T16:54:27Z</time>
      </trkpt>
      <trkpt lat="43.86947" lon="7.29424">
        <ele>697.441189</ele>
        <time>2011-11-01T16:54:28Z</time>
      </trkpt>
      <trkpt lat="43.86939" lon="7.29413">
        <ele>697.441154</ele>
        <time>2011-11-01T16:54:31Z</time>
      </trkpt>
      <trkpt lat="43.86935" lon="7.2941">
        <ele>697.441143</ele>
        <time>2011-11-01T16:54:32Z</time>
      </trkpt>
      <trkpt lat="43.86925" lon="7.294">
        <ele>696.441109</ele>
        <time>2011-11-01T16:54:35Z</time>
      </trkpt>
      <trkpt lat="43.86913" lon="7.29391">
        <ele>696.441078</ele>
        <time>2011-11-01T16:54:38Z</time>
      </trkpt>
      <trkpt lat="43.86909" lon="7.29388">
        <ele>696.441063</ele>
        <time>2011-11-01T16:54:39Z</time>
      </trkpt>
      <trkpt lat="43.869" lon="7.29382">
        <ele>695.441036</ele>
        <time>2011-11-01T16:54:41Z</time>
      </trkpt>
      <trkpt lat="43.86891" lon="7.29376">
        <ele>694.441013</ele>
        <time>2011-11-01T16:54:43Z</time>
      </trkpt>
      <trkpt lat="43.86884" lon="7.29368">
        <ele>694.440987</ele>
        <time>2011-11-01T16:54:45Z</time>
      </trkpt>
      <trkpt lat="43.86877" lon="7.29359">
        <ele>694.44096</ele>
        <time>2011-11-01T16:54:47Z</time>
      </trkpt>
      <trkpt lat="43.86869" lon="7.2935">
        <ele>693.440926</ele>
        <time>2011-11-01T16:54:49Z</time>
      </trkpt>
      <trkpt lat="43.8686" lon="7.29338">
        <ele>693.440895</ele>
        <time>2011-11-01T16:54:52Z</time>
      </trkpt>
      <trkpt lat="43.86857" lon="7.29334">
        <ele>692.44088</ele>
        <time>2011-11-01T16:54:56Z</time>
      </trkpt>
      <trkpt lat="43.86848" lon="7.29328">
        <ele>691.440857</ele>
        <time>2011-11-01T16:55:01Z</time>
      </trkpt>
      <trkpt lat="43.8684" lon="7.29335">
        <ele>689.440857</ele>
        <time>2011-11-01T16:55:15Z</time>
      </trkpt>
      <trkpt lat="43.86833" lon="7.29327">
        <ele>686.440834</ele>
        <time>2011-11-01T16:55:51Z</time>
      </trkpt>
      <trkpt lat="43.86827" lon="7.29309">
        <ele>686.440788</ele>
        <time>2011-11-01T16:55:55Z</time>
      </trkpt>
      <trkpt lat="43.86822" lon="7.29294">
        <ele>686.44075</ele>
        <time>2011-11-01T16:55:58Z</time>
      </trkpt>
      <trkpt lat="43.8682" lon="7.2929">
        <ele>686.440739</ele>
        <time>2011-11-01T16:55:59Z</time>
      </trkpt>
      <trkpt lat="43.86816" lon="7.29273">
        <ele>686.440697</ele>
        <time>2011-11-01T16:56:02Z</time>
      </trkpt>
      <trkpt lat="43.86811" lon="7.29261">
        <ele>686.44067</ele>
        <time>2011-11-01T16:56:04Z</time>
      </trkpt>
      <trkpt lat="43.86804" lon="7.29252">
        <ele>686.440643</ele>
        <time>2011-11-01T16:56:06Z</time>
      </trkpt>
      <trkpt lat="43.86796" lon="7.29244">
        <ele>687.440613</ele>
        <time>2011-11-01T16:56:08Z</time>
      </trkpt>
      <trkpt lat="43.86789" lon="7.29234">
        <ele>687.440578</ele>
        <time>2011-11-01T16:56:10Z</time>
      </trkpt>
      <trkpt lat="43.86782" lon="7.29221">
        <ele>688.440548</ele>
        <time>2011-11-01T16:56:12Z</time>
      </trkpt>
      <trkpt lat="43.86777" lon="7.29209">
        <ele>688.440514</ele>
        <time>2011-11-01T16:56:14Z</time>
      </trkpt>
      <trkpt lat="43.8677" lon="7.29196">
        <ele>688.440479</ele>
        <time>2011-11-01T16:56:16Z</time>
      </trkpt>
      <trkpt lat="43.86758" lon="7.29193">
        <ele>688.440453</ele>
        <time>2011-11-01T16:56:18Z</time>
      </trkpt>
      <trkpt lat="43.86745" lon="7.29188">
        <ele>688.440426</ele>
        <time>2011-11-01T16:56:20Z</time>
      </trkpt>
      <trkpt lat="43.86733" lon="7.29183">
        <ele>687.440403</ele>
        <time>2011-11-01T16:56:22Z</time>
      </trkpt>
      <trkpt lat="43.86723" lon="7.29179">
        <ele>687.440384</ele>
        <time>2011-11-01T16:56:24Z</time>
      </trkpt>
      <trkpt lat="43.86713" lon="7.29177">
        <ele>686.440361</ele>
        <time>2011-11-01T16:56:26Z</time>
      </trkpt>
      <trkpt lat="43.86703" lon="7.29181">
        <ele>686.440357</ele>
        <time>2011-11-01T16:56:28Z</time>
      </trkpt>
      <trkpt lat="43.86688" lon="7.29188">
        <ele>686.440346</ele>
        <time>2011-11-01T16:56:31Z</time>
      </trkpt>
      <trkpt lat="43.86678" lon="7.29186">
        <ele>686.440334</ele>
        <time>2011-11-01T16:56:33Z</time>
      </trkpt>
      <trkpt lat="43.86668" lon="7.29178">
        <ele>685.440304</ele>
        <time>2011-11-01T16:56:36Z</time>
      </trkpt>
      <trkpt lat="43.86665" lon="7.29165">
        <ele>685.440269</ele>
        <time>2011-11-01T16:56:39Z</time>
      </trkpt>
      <trkpt lat="43.86661" lon="7.2915">
        <ele>684.440239</ele>
        <time>2011-11-01T16:56:42Z</time>
      </trkpt>
      <trkpt lat="43.86655" lon="7.29132">
        <ele>685.440189</ele>
        <time>2011-11-01T16:56:45Z</time>
      </trkpt>
      <trkpt lat="43.86649" lon="7.29119">
        <ele>685.440155</ele>
        <time>2011-11-01T16:56:47Z</time>
      </trkpt>
      <trkpt lat="43.86639" lon="7.29111">
        <ele>685.440125</ele>
        <time>2011-11-01T16:56:49Z</time>
      </trkpt>
      <trkpt lat="43.86629" lon="7.29103">
        <ele>685.440094</ele>
        <time>2011-11-01T16:56:51Z</time>
      </trkpt>
      <trkpt lat="43.8662" lon="7.29095">
        <ele>685.440063</ele>
        <time>2011-11-01T16:56:53Z</time>
      </trkpt>
      <trkpt lat="43.8661" lon="7.29092">
        <ele>686.440044</ele>
        <time>2011-11-01T16:56:55Z</time>
      </trkpt>
      <trkpt lat="43.86597" lon="7.29095">
        <ele>686.440037</ele>
        <time>2011-11-01T16:56:57Z</time>
      </trkpt>
      <trkpt lat="43.86585" lon="7.29099">
        <ele>686.440029</ele>
        <time>2011-11-01T16:56:59Z</time>
      </trkpt>
      <trkpt lat="43.86576" lon="7.29108">
        <ele>685.440037</ele>
        <time>2011-11-01T16:57:02Z</time>
      </trkpt>
      <trkpt lat="43.8657" lon="7.29124">
        <ele>686.44006</ele>
        <time>2011-11-01T16:57:03Z</time>
      </trkpt>
      <trkpt lat="43.8656" lon="7.29141">
        <ele>686.440079</ele>
        <time>2011-11-01T16:57:05Z</time>
      </trkpt>
      <trkpt lat="43.86546" lon="7.29167">
        <ele>686.440113</ele>
        <time>2011-11-01T16:57:08Z</time>
      </trkpt>
      <trkpt lat="43.86538" lon="7.29183">
        <ele>687.44014</ele>
        <time>2011-11-01T16:57:10Z</time>
      </trkpt>
      <trkpt lat="43.8653" lon="7.29198">
        <ele>687.440155</ele>
        <time>2011-11-01T16:57:12Z</time>
      </trkpt>
      <trkpt lat="43.8652" lon="7.29212">
        <ele>687.44017</ele>
        <time>2011-11-01T16:57:14Z</time>
      </trkpt>
      <trkpt lat="43.86496" lon="7.29232">
        <ele>687.440186</ele>
        <time>2011-11-01T16:57:18Z</time>
      </trkpt>
      <trkpt lat="43.86485" lon="7.29242">
        <ele>686.440186</ele>
        <time>2011-11-01T16:57:20Z</time>
      </trkpt>
      <trkpt lat="43.86487" lon="7.29263">
        <ele>685.440231</ele>
        <time>2011-11-01T16:57:22Z</time>
      </trkpt>
      <trkpt lat="43.86488" lon="7.29283">
        <ele>684.440277</ele>
        <time>2011-11-01T16:57:24Z</time>
      </trkpt>
      <trkpt lat="43.86487" lon="7.29302">
        <ele>683.440311</ele>
        <time>2011-11-01T16:57:26Z</time>
      </trkpt>
      <trkpt lat="43.86486" lon="7.29337">
        <ele>679.440384</ele>
        <time>2011-11-01T16:57:31Z</time>
      </trkpt>
      <trkpt lat="43.8649" lon="7.29352">
        <ele>678.440418</ele>
        <time>2011-11-01T16:57:34Z</time>
      </trkpt>
      <trkpt lat="43.86496" lon="7.29366">
        <ele>677.44046</ele>
        <time>2011-11-01T16:57:36Z</time>
      </trkpt>
      <trkpt lat="43.86501" lon="7.29377">
        <ele>677.440491</ele>
        <time>2011-11-01T16:57:38Z</time>
      </trkpt>
      <trkpt lat="43.86508" lon="7.29391">
        <ele>677.440529</ele>
        <time>2011-11-01T16:57:41Z</time>
      </trkpt>
      <trkpt lat="43.86518" lon="7.29397">
        <ele>677.440552</ele>
        <time>2011-11-01T16:57:44Z</time>
      </trkpt>
      <trkpt lat="43.86527" lon="7.29393">
        <ele>676.440556</ele>
        <time>2011-11-01T16:57:48Z</time>
      </trkpt>
      <trkpt lat="43.86535" lon="7.29385">
        <ele>676.440552</ele>
        <time>2011-11-01T16:57:50Z</time>
      </trkpt>
      <trkpt lat="43.86543" lon="7.29375">
        <ele>677.440544</ele>
        <time>2011-11-01T16:57:53Z</time>
      </trkpt>
      <trkpt lat="43.86553" lon="7.29368">
        <ele>677.440544</ele>
        <time>2011-11-01T16:57:57Z</time>
      </trkpt>
      <trkpt lat="43.86559" lon="7.29331">
        <ele>664.440468</ele>
        <time>2011-11-01T16:58:18Z</time>
      </trkpt>
      <trkpt lat="43.86559" lon="7.29331">
        <ele>664.440468</ele>
        <time>2011-11-01T16:58:44Z</time>
      </trkpt>
    </trkseg>
  </trk>
</gpx>